[[{"header":{"parameterUnit":"m.s-1","parameterCategory":1,"la1":30.6,"la2":29.2853,"lo1":-89.7004,"lo2":-87.6739,"dy":0.0162,"dx":0.0183,"nx":112,"ny":82,"refTime":"2023-08-28T06:00:00:Z","depth":0,"parameterNumber":2,"parameterNumberName":"U-component_of_WINDS"},"data":[0.0,0.0,0.0,0.0,0.0,0.0,0.0,0.0,0.0,0.0,0.0,0.0,0.0,0.0,0.0,0.0,0.0,0.0,0.0,0.0,0.0,0.0,0.0,0.0,0.0,0.0,0.0,0.0,0.0,0.0,0.0,0.0,0.0,0.0,0.0,0.0,0.0,0.0,0.0,0.0,0.0,0.0,0.0,0.0,0.0,0.0,0.0,0.0,0.0,0.0,0.0,0.0,0.0,0.0,0.0,0.0,0.0,0.0,0.0,0.0,0.0,0.0,0.0,0.0,0.0,0.0,0.0,0.0,0.0,0.0,0.0,0.0,0.0,0.0,0.0,0.0,0.0,0.0,0.0,0.0,0.0,0.0,0.0,0.0,0.0,0.0,0.0,0.0,0.0,0.0,-0.5018,-0.5018,-0.5018,-0.5018,-0.5018,-0.5018,-0.4818,-0.4423,0.0,0.0,0.0,0.0,0.0,0.0,0.0,0.0,0.0,0.0,0.0,0.0,0.0,0.0,0.0,0.0,0.0,0.0,0.0,0.0,0.0,0.0,0.0,0.0,0.0,0.0,0.0,0.0,0.0,0.0,0.0,0.0,0.0,0.0,0.0,0.0,0.0,0.0,0.0,0.0,0.0,0.0,0.0,0.0,0.0,0.0,0.0,0.0,0.0,0.0,0.0,0.0,0.0,0.0,0.0,0.0,0.0,0.0,0.0,0.0,0.0,0.0,0.0,0.0,0.0,0.0,0.0,0.0,0.0,0.0,0.0,0.0,0.0,0.0,0.0,0.0,0.0,0.0,0.0,0.0,0.0,0.0,0.0,0.0,0.0,0.0,0.0,0.0,0.0,0.0,0.0,0.0,0.0,0.0,0.0,0.0,0.0,0.0,0.0,0.0,0.0,0.0,0.0,0.0,-0.5018,-0.5018,-0.5018,-0.5018,-0.5018,-0.5018,-0.4818,-0.4423,0.0,0.0,0.0,0.0,0.0,0.0,0.0,0.0,0.0,0.0,0.0,0.0,0.0,0.0,0.0,0.0,0.0,0.0,0.0,0.0,0.0,0.0,0.0,0.0,0.0,0.0,0.0,0.0,0.0,0.0,0.0,0.0,0.0,0.0,0.0,0.0,0.0,0.0,0.0,0.0,0.0,0.0,0.0,0.0,0.0,0.0,0.0,0.0,0.0,0.0,0.0,0.0,0.0,0.0,0.0,0.0,0.0,0.0,0.0,0.0,0.0,0.0,0.0,0.0,0.0,0.0,0.0,0.0,0.0,0.0,0.0,0.0,0.0,0.0,0.0,0.0,0.0,0.0,0.0,0.0,0.0,0.0,0.0,0.0,0.0,0.0,0.0,0.0,0.0,0.0,0.0,0.0,0.0,0.0,0.0,0.0,0.0,0.0,0.0,0.0,0.0,0.0,0.0,-0.5018,-0.5018,-0.5018,-0.5018,-0.5018,-0.5018,-0.5018,-0.4818,-0.4423,-0.438,0.0,0.0,0.0,0.0,0.0,0.0,0.0,0.0,0.0,0.0,0.0,0.0,0.0,0.0,0.0,0.0,0.0,0.0,0.0,0.0,0.0,0.0,0.0,0.0,0.0,0.0,0.0,0.0,0.0,0.0,0.0,0.0,0.0,0.0,0.0,0.0,0.0,0.0,0.0,0.0,0.0,0.0,0.0,0.0,0.0,0.0,0.0,0.0,0.0,0.0,0.0,0.0,0.0,0.0,0.0,0.0,0.0,0.0,0.0,0.0,0.0,0.0,0.0,0.0,0.0,0.0,0.0,0.0,0.0,0.0,0.0,0.0,0.0,0.0,0.0,0.0,0.0,0.0,0.0,0.0,0.0,0.0,0.0,0.0,0.0,0.0,0.0,0.0,0.0,0.0,0.0,0.0,0.0,0.0,0.0,0.0,0.0,0.0,0.0,0.0,0.0,0.0,-0.5592,-0.5592,-0.5592,-0.5401,-0.5285,-0.5285,-0.5093,-0.4859,-0.4501,-0.4423,0.0,0.0,0.0,0.0,0.0,0.0,0.0,0.0,0.0,0.0,0.0,0.0,0.0,0.0,0.0,0.0,0.0,0.0,0.0,0.0,0.0,0.0,0.0,0.0,0.0,0.0,0.0,0.0,0.0,0.0,0.0,0.0,0.0,0.0,0.0,0.0,0.0,0.0,0.0,0.0,0.0,0.0,0.0,0.0,0.0,0.0,0.0,0.0,0.0,0.0,0.0,0.0,0.0,0.0,0.0,0.0,0.0,0.0,0.0,0.0,0.0,0.0,0.0,0.0,0.0,0.0,0.0,0.0,0.0,0.0,0.0,0.0,0.0,0.0,0.0,0.0,0.0,0.0,0.0,0.0,0.0,0.0,0.0,0.0,0.0,0.0,0.0,0.0,0.0,0.0,0.0,0.0,0.0,0.0,0.0,0.0,0.0,0.0,0.0,0.0,0.0,0.0,-0.731,-0.731,-0.731,-0.6584,-0.6125,-0.6125,-0.5437,-0.4898,-0.4701,-0.4501,0.0,0.0,0.0,0.0,0.0,0.0,0.0,0.0,0.0,0.0,0.0,0.0,0.0,0.0,0.0,0.0,0.0,0.0,0.0,0.0,0.0,0.0,0.0,0.0,0.0,0.0,0.0,0.0,0.0,0.0,0.0,0.0,0.0,0.0,0.0,0.0,0.0,0.0,0.0,0.0,0.0,0.0,0.0,0.0,0.0,0.0,0.0,0.0,0.0,0.0,0.0,0.0,0.0,0.0,0.0,0.0,0.0,0.0,0.0,0.0,0.0,0.0,0.0,0.0,0.0,0.0,0.0,0.0,0.0,0.0,0.0,0.0,0.0,0.0,0.0,0.0,0.0,0.0,0.0,0.0,0.0,0.0,0.0,0.0,0.0,0.0,0.0,0.0,0.0,0.0,0.0,0.0,0.0,0.0,0.0,0.0,0.0,0.0,0.0,0.0,0.0,0.0,-0.7502,-0.731,0.0,-0.6391,-0.6202,-0.6202,-0.5476,-0.5129,-0.5428,0.0,0.0,0.0,0.0,0.0,0.0,0.0,0.0,0.0,0.0,0.0,0.0,0.0,0.0,0.0,0.0,0.0,0.0,0.0,0.0,0.0,0.0,0.0,0.0,0.0,0.0,0.0,0.0,0.0,0.0,0.0,0.0,0.0,0.0,0.0,0.0,0.0,0.0,0.0,0.0,0.0,0.0,0.0,0.0,0.0,0.0,0.0,0.0,0.0,0.0,0.0,0.0,0.0,0.0,0.0,0.0,0.0,0.0,0.0,0.0,0.0,0.0,0.0,0.0,0.0,0.0,0.0,0.0,0.0,0.0,0.0,0.0,0.0,0.0,0.0,0.0,0.0,0.0,0.0,0.0,0.0,0.0,0.0,0.0,0.0,0.0,0.0,0.0,0.0,0.0,0.0,0.0,0.0,0.0,0.0,0.0,0.0,0.0,0.0,0.0,0.0,0.0,-0.8266,-0.8324,-0.8176,0.0,-0.7328,-0.7184,-0.713,-0.612,-0.5635,-0.5967,0.0,0.0,0.0,0.0,0.0,0.0,0.0,0.0,0.0,0.0,0.0,0.0,0.0,0.0,0.0,0.0,0.0,0.0,0.0,0.0,0.0,0.0,0.0,0.0,0.0,0.0,0.0,0.0,0.0,0.0,0.0,0.0,0.0,0.0,0.0,0.0,0.0,0.0,0.0,0.0,0.0,0.0,0.0,0.0,0.0,0.0,0.0,0.0,0.0,0.0,0.0,0.0,0.0,0.0,0.0,0.0,0.0,0.0,0.0,0.0,0.0,0.0,0.0,0.0,0.0,0.0,0.0,0.0,0.0,0.0,0.0,0.0,0.0,0.0,0.0,0.0,0.0,0.0,0.0,0.0,0.0,0.0,0.0,0.0,0.0,0.0,0.0,0.0,0.0,0.0,0.0,0.0,0.0,0.0,0.0,0.0,0.0,0.0,0.0,0.0,0.0,0.0,-0.9927,-1.0148,-1.0299,-1.0299,-0.9762,-0.9309,-0.9104,-0.7577,-0.6519,0.0,0.0,0.0,0.0,0.0,0.0,0.0,0.0,0.0,0.0,0.0,0.0,0.0,0.0,0.0,0.0,0.0,0.0,0.0,0.0,0.0,0.0,0.0,0.0,0.0,0.0,0.0,0.0,0.0,0.0,0.0,0.0,0.0,0.0,0.0,0.0,0.0,0.0,0.0,0.0,0.0,0.0,0.0,0.0,0.0,0.0,0.0,0.0,0.0,0.0,0.0,0.0,0.0,0.0,0.0,0.0,0.0,0.0,0.0,0.0,0.0,0.0,0.0,0.0,0.0,0.0,0.0,0.0,0.0,0.0,0.0,0.0,0.0,0.0,0.0,0.0,0.0,0.0,0.0,0.0,0.0,0.0,0.0,0.0,0.0,0.0,0.0,0.0,0.0,0.0,0.0,0.0,0.0,0.0,0.0,0.0,0.0,0.0,0.0,0.0,0.0,0.0,0.0,-1.0666,-1.0851,-1.073,-0.9948,-0.9756,-0.9569,-0.9318,-0.8329,-0.7655,-0.7479,0.0,0.0,0.0,0.0,0.0,0.0,0.0,0.0,0.0,0.0,0.0,0.0,0.0,0.0,0.0,0.0,0.0,0.0,0.0,0.0,0.0,0.0,0.0,0.0,0.0,0.0,0.0,0.0,0.0,0.0,0.0,0.0,0.0,0.0,0.0,0.0,0.0,0.0,0.0,0.0,0.0,0.0,0.0,0.0,0.0,0.0,0.0,0.0,0.0,0.0,0.0,0.0,0.0,0.0,0.0,0.0,0.0,0.0,0.0,0.0,0.0,0.0,0.0,0.0,0.0,0.0,0.0,0.0,0.0,0.0,0.0,0.0,0.0,0.0,0.0,0.0,0.0,0.0,0.0,0.0,0.0,0.0,0.0,0.0,0.0,0.0,0.0,0.0,0.0,0.0,0.0,0.0,0.0,0.0,0.0,0.0,0.0,0.0,0.0,0.0,0.0,0.0,-1.1002,-1.1166,-1.1013,-1.03,-1.0347,-1.0284,-1.0079,-0.9321,-0.8739,-0.8574,0.0,0.0,0.0,0.0,0.0,0.0,0.0,0.0,0.0,0.0,0.0,0.0,0.0,0.0,0.0,0.0,0.0,0.0,0.0,0.0,0.0,0.0,0.0,0.0,0.0,0.0,0.0,0.0,0.0,0.0,0.0,0.0,0.0,0.0,0.0,0.0,0.0,0.0,0.0,0.0,0.0,0.0,0.0,0.0,0.0,0.0,0.0,0.0,0.0,0.0,0.0,0.0,0.0,0.0,0.0,0.0,0.0,0.0,0.0,0.0,0.0,0.0,0.0,0.0,0.0,0.0,0.0,0.0,0.0,0.0,0.0,0.0,0.0,0.0,0.0,0.0,0.0,0.0,0.0,0.0,0.0,0.0,0.0,0.0,0.0,0.0,0.0,0.0,0.0,0.0,0.0,0.0,0.0,0.0,0.0,0.0,0.0,0.0,0.0,0.0,0.0,0.0,-1.115,-1.1299,-1.1349,-1.114,-1.1257,-1.1305,-1.112,-1.0427,-0.9829,-0.9502,0.0,0.0,0.0,0.0,0.0,0.0,0.0,0.0,0.0,0.0,0.0,0.0,0.0,0.0,0.0,0.0,0.0,0.0,0.0,0.0,0.0,0.0,0.0,0.0,0.0,0.0,0.0,0.0,0.0,0.0,0.0,0.0,0.0,0.0,0.0,0.0,0.0,0.0,0.0,0.0,0.0,0.0,0.0,0.0,0.0,0.0,0.0,0.0,0.0,0.0,0.0,0.0,0.0,0.0,0.0,0.0,0.0,0.0,0.0,0.0,-0.9504,-0.9176,0.0,0.0,0.0,0.0,0.0,0.0,0.0,0.0,0.0,0.0,0.0,0.0,0.0,0.0,0.0,0.0,0.0,0.0,0.0,0.0,0.0,0.0,0.0,0.0,0.0,0.0,0.0,0.0,0.0,0.0,0.0,0.0,0.0,0.0,0.0,0.0,0.0,0.0,0.0,0.0,-1.2114,-1.2288,-1.2323,-1.2111,-1.196,-1.1849,-1.1792,-1.1487,-1.0946,-1.0157,-0.9864,0.0,0.0,0.0,0.0,0.0,0.0,0.0,0.0,0.0,0.0,0.0,0.0,0.0,0.0,0.0,0.0,0.0,0.0,0.0,0.0,0.0,0.0,0.0,0.0,0.0,0.0,0.0,0.0,0.0,0.0,0.0,0.0,0.0,0.0,0.0,0.0,0.0,0.0,0.0,0.0,0.0,0.0,0.0,0.0,0.0,0.0,0.0,0.0,0.0,0.0,0.0,0.0,0.0,0.0,0.0,0.0,0.0,0.0,0.0,-1.05,-1.0208,0.0,0.0,0.0,0.0,0.0,0.0,0.0,0.0,0.0,0.0,0.0,0.0,0.0,0.0,0.0,0.0,0.0,0.0,0.0,0.0,0.0,0.0,0.0,0.0,0.0,0.0,0.0,0.0,0.0,0.0,0.0,0.0,0.0,0.0,0.0,0.0,0.0,0.0,0.0,0.0,-1.2588,-1.2574,-1.2454,-1.2246,-1.208,-1.2,-1.2,-1.1914,-1.165,-1.1165,-1.1048,0.0,0.0,0.0,0.0,0.0,0.0,0.0,0.0,0.0,0.0,0.0,0.0,0.0,0.0,0.0,0.0,0.0,0.0,0.0,0.0,0.0,0.0,0.0,0.0,0.0,0.0,0.0,0.0,0.0,0.0,0.0,0.0,0.0,0.0,0.0,0.0,0.0,0.0,0.0,0.0,0.0,0.0,0.0,0.0,0.0,0.0,0.0,0.0,0.0,0.0,0.0,0.0,0.0,-1.1706,-1.1706,-1.1706,-1.1706,-1.1706,-1.1669,-1.0999,-1.0812,-1.0925,-1.0775,0.0,0.0,0.0,0.0,0.0,0.0,0.0,0.0,0.0,0.0,0.0,0.0,0.0,0.0,0.0,0.0,0.0,0.0,0.0,0.0,0.0,0.0,0.0,0.0,-1.2302,-1.224,-1.196,0.0,0.0,0.0,0.0,0.0,0.0,0.0,0.0,0.0,0.0,0.0,-1.2898,-1.2726,-1.2504,-1.2299,-1.2212,-1.2218,-1.2256,-1.2212,-1.2195,-1.2155,-1.2149,-1.177,0.0,0.0,0.0,0.0,0.0,0.0,0.0,0.0,0.0,0.0,0.0,0.0,0.0,0.0,0.0,0.0,0.0,0.0,0.0,0.0,0.0,0.0,0.0,0.0,0.0,0.0,0.0,0.0,0.0,0.0,0.0,0.0,-0.7883,-0.8969,0.0,0.0,0.0,0.0,0.0,0.0,0.0,0.0,0.0,0.0,0.0,0.0,0.0,-1.1539,-1.1501,-1.165,-1.1706,-1.1706,-1.1706,-1.1706,-1.1706,-1.1706,-1.1706,-1.1706,-1.1595,0.0,-1.1595,-1.1558,0.0,0.0,0.0,0.0,0.0,0.0,0.0,0.0,0.0,0.0,0.0,0.0,0.0,0.0,0.0,0.0,0.0,0.0,0.0,0.0,0.0,0.0,-1.2742,-1.377,-1.3993,-1.4021,0.0,-1.315,-1.2182,-1.2182,-1.2362,0.0,0.0,0.0,0.0,0.0,0.0,0.0,-1.3414,-1.3384,-1.3321,-1.3321,-1.314,-1.3095,-1.3276,-1.314,-1.2956,-1.2689,-1.2677,-1.2447,-1.1828,-1.1875,0.0,0.0,0.0,0.0,0.0,0.0,0.0,0.0,0.0,0.0,0.0,0.0,0.0,0.0,0.0,0.0,0.0,0.0,0.0,0.0,0.0,0.0,0.0,0.0,0.0,0.0,0.0,0.0,0.0,-0.9101,-0.9796,-1.0412,-1.0496,-1.0755,0.0,0.0,0.0,0.0,0.0,0.0,0.0,0.0,0.0,-1.204,-1.204,-1.204,-1.204,-1.204,-1.204,-1.204,-1.2247,-1.2326,-1.2332,-1.2465,-1.2543,-1.2543,-1.2543,-1.2543,-1.2517,-1.1915,-1.1706,-1.1706,0.0,0.0,0.0,0.0,-1.1777,-1.1847,-1.1961,-1.2063,-1.2196,-1.2196,0.0,0.0,0.0,0.0,0.0,0.0,0.0,0.0,0.0,0.0,-1.4022,-1.5034,-1.5408,-1.5634,-1.5725,-1.5403,-1.483,0.0,-1.3529,-1.3585,-1.4974,0.0,0.0,0.0,0.0,-1.3568,-1.3719,-1.3604,-1.3513,-1.3513,-1.3423,-1.3377,-1.3468,-1.3423,-1.3329,-1.3216,-1.321,-1.3002,-1.261,-1.2517,-1.2123,0.0,0.0,0.0,0.0,0.0,0.0,0.0,0.0,0.0,0.0,0.0,0.0,0.0,0.0,0.0,0.0,0.0,0.0,0.0,0.0,0.0,0.0,0.0,0.0,0.0,0.0,0.0,0.0,-1.0592,-1.1223,-1.1533,-1.1632,-1.1744,0.0,0.0,0.0,0.0,0.0,0.0,-1.2077,-1.2077,-1.215,-1.2305,-1.2378,-1.2418,-1.2418,-1.2498,-1.2532,-1.2538,-1.2797,-1.3013,-1.3251,-1.3445,-1.3634,-1.3863,-1.3863,-1.3863,-1.3789,-1.256,-1.208,-1.208,-1.208,-1.2042,-1.2005,-1.208,-1.2222,-1.2383,-1.246,-1.2596,-1.281,-1.3002,-1.324,-1.3453,-1.3539,0.0,0.0,0.0,0.0,-1.4323,-1.5933,-1.585,-1.5629,-1.6581,-1.7059,-1.7257,-1.7257,-1.7518,-1.7355,0.0,-1.5079,-1.5033,-1.6787,0.0,0.0,0.0,0.0,-1.4688,-1.4847,-1.4469,-1.416,-1.412,-1.3851,-1.3713,-1.3713,-1.3713,-1.3688,-1.3622,-1.3616,-1.3501,-1.3191,-1.3046,-1.2833,-1.2518,0.0,0.0,0.0,0.0,0.0,0.0,0.0,0.0,0.0,0.0,0.0,0.0,0.0,0.0,0.0,0.0,0.0,0.0,0.0,0.0,0.0,0.0,0.0,0.0,0.0,0.0,0.0,0.0,0.0,-1.1929,-1.1818,0.0,0.0,0.0,0.0,-1.2261,-1.2268,-1.2268,-1.2268,-1.2268,-1.2298,-1.2305,-1.2616,-1.2764,-1.2764,-1.3019,-1.316,-1.316,-1.318,-1.3606,-1.4414,-1.4428,-1.4894,-1.5658,-1.5658,-1.5658,-1.5543,-1.3828,-1.312,-1.312,-1.312,-1.3002,-1.2844,-1.3048,-1.3015,-1.287,-1.3068,-1.316,-1.3325,-1.413,-1.502,-1.5778,-1.6031,-1.618,0.0,0.0,-1.6544,-1.6623,-1.713,-1.7217,-1.7474,-1.8727,-1.905,-1.9059,-1.9059,-1.9124,-1.8776,0.0,-1.7047,-1.711,-1.752,0.0,-1.7508,-1.7818,-1.781,-1.771,-1.7539,-1.6685,-1.5981,-1.5704,-1.4816,-1.4256,-1.4256,-1.4256,-1.4153,-1.3906,-1.3888,-1.3767,-1.3507,-1.345,-1.3234,-1.2801,-1.2751,0.0,0.0,0.0,0.0,0.0,0.0,0.0,0.0,0.0,0.0,0.0,0.0,0.0,0.0,0.0,0.0,0.0,0.0,0.0,0.0,0.0,0.0,0.0,0.0,0.0,0.0,0.0,0.0,-1.1966,-1.204,0.0,-1.2298,-1.2224,-1.2445,-1.3025,-1.2777,-1.2849,-1.3285,-1.304,-1.3149,-1.371,-1.3964,-1.4091,-1.4091,-1.4338,-1.4482,-1.4482,-1.4536,-1.5021,-1.5835,-1.5903,-1.6085,-1.6365,-1.6365,-1.6365,-1.6325,-1.5836,-1.5344,-1.4856,-1.4856,-1.4817,-1.4771,-1.4856,-1.4952,-1.5093,-1.518,-1.5315,-1.5488,-1.5803,-1.6123,-1.6419,-1.6516,-1.6746,-1.7107,-1.7747,-1.7711,-1.7738,-1.9023,-1.8922,-1.8786,-1.9791,-2.0236,-2.0415,-2.0415,-2.0632,-2.0695,-2.0191,-1.8803,-1.8212,-1.9757,-1.8817,-1.8118,-1.8856,-1.8403,-1.7987,-1.7894,-1.7561,-1.7282,-1.7055,-1.6821,-1.6546,-1.6264,-1.5792,-1.5421,-1.5141,-1.4533,-1.4039,-1.3779,-1.3767,-1.36,-1.3246,-1.324,-1.3153,0.0,0.0,0.0,0.0,0.0,0.0,0.0,0.0,0.0,0.0,0.0,0.0,0.0,0.0,0.0,0.0,0.0,0.0,0.0,0.0,0.0,0.0,0.0,0.0,0.0,-1.2328,-1.2512,-1.2835,-1.2981,-1.3091,-1.3091,-1.3264,-1.3616,-1.4129,-1.4096,-1.4236,-1.4721,-1.4451,-1.4538,-1.5104,-1.5366,-1.5553,-1.5717,-1.6,-1.6206,-1.6365,-1.6399,-1.687,-1.7715,-1.7754,-1.7953,-1.8209,-1.8209,-1.8209,-1.8242,-1.8357,-1.8106,-1.7525,-1.6566,-1.6156,-1.6086,-1.6086,-1.6237,-1.6437,-1.6437,-1.675,-1.7164,-1.7294,-1.754,-1.7811,-1.7928,-1.8171,-1.849,-1.9061,-1.9032,-1.9076,-2.0379,-2.0278,-2.0005,-2.0716,-2.1126,-2.1319,-2.1319,-2.1495,-2.1696,-2.1696,-2.0393,-1.9749,-2.1248,-2.0266,-1.9509,-2.0337,-1.9779,-1.9279,-1.9355,-1.8944,-1.8542,-1.8311,-1.8126,-1.7894,-1.7569,-1.7095,-1.672,-1.6539,-1.5609,-1.4915,-1.469,-1.4362,-1.4011,-1.3652,-1.3562,-1.3513,-1.3513,0.0,0.0,0.0,0.0,0.0,0.0,0.0,0.0,0.0,0.0,0.0,0.0,0.0,0.0,0.0,0.0,0.0,0.0,0.0,0.0,0.0,0.0,0.0,-1.3382,-1.3237,-1.3593,-1.4494,-1.4609,-1.4617,-1.4653,-1.5154,-1.5548,-1.5548,-1.6084,-1.6434,-1.648,-1.6459,-1.6468,-1.6514,-1.6827,-1.7194,-1.757,-1.7929,-1.8288,-1.8673,-1.8673,-1.9102,-1.9969,-1.9927,-2.04,-2.1182,-2.1182,-2.1182,-2.1182,-2.1224,-2.1224,-2.0921,-1.8215,-1.6992,-1.6837,-1.6845,-1.6812,-1.6812,-1.6812,-1.7383,-1.8172,-1.8559,-1.9236,-2.0017,-2.0402,-2.053,-2.0539,-2.0539,-2.0549,-2.0649,-2.1025,-2.1126,-2.1227,-2.1595,-2.1696,-2.1696,-2.1696,-2.1696,-2.1696,-2.1696,-2.1696,-2.1696,-2.1696,-2.1696,-2.1824,-2.2199,-2.1934,0.0,-2.1952,-2.0818,-1.9857,-1.9592,-1.8703,-1.8141,-1.8095,-1.8095,-1.8095,-1.8033,-1.7102,-1.6445,-1.625,-1.5289,-1.4516,-1.3965,-1.371,-1.3583,-1.3571,0.0,0.0,0.0,0.0,0.0,0.0,0.0,0.0,0.0,0.0,0.0,0.0,0.0,0.0,0.0,0.0,0.0,0.0,0.0,0.0,0.0,-1.4681,-1.4681,-1.4279,-1.4207,-1.435,-1.4752,-1.4948,-1.5137,-1.5442,-1.5732,-1.6246,-1.6965,-1.6847,-1.7139,-1.8027,-1.7728,-1.7999,-1.8889,-1.9159,-1.9357,-1.954,-1.9764,-1.9955,-2.0063,-1.9903,-2.0283,-2.1131,-2.0922,-2.0964,-2.1182,-2.1182,-2.1182,-2.1224,-2.1339,-2.1339,-2.1112,-2.037,-1.9816,-1.9566,-1.9691,-1.9758,-1.9758,-1.9758,-2.0007,-2.0347,-2.0467,-2.0638,-2.0874,-2.0977,-2.1095,-2.1252,-2.1252,-2.1302,-2.1385,-2.1495,-2.1522,-2.1549,-2.1668,-2.1696,-2.1696,-2.1696,-2.1696,-2.1696,-2.1696,-2.1696,-2.1696,-2.1696,-2.1696,-2.1733,-2.1833,-2.176,0.0,-2.1797,-2.1437,-2.1248,-2.1304,-2.1184,-2.0991,-2.0631,-2.0104,-1.9608,-1.9126,-1.8126,-1.7561,-1.7515,-1.6546,-1.5947,-1.5765,-1.5685,-1.5497,0.0,0.0,0.0,0.0,0.0,0.0,0.0,0.0,0.0,0.0,0.0,0.0,0.0,0.0,0.0,0.0,0.0,0.0,0.0,0.0,0.0,0.0,-1.606,-1.6199,-1.6084,-1.5798,-1.5762,-1.6199,-1.6501,-1.6763,-1.7003,-1.7364,-1.793,-1.8682,-1.8701,-1.9069,-1.999,-1.977,-1.9955,-2.0703,-2.0871,-2.0997,-2.1236,-2.132,-2.148,-2.1651,-2.1532,-2.1745,-2.2223,-2.2053,-2.2011,-2.2011,-2.2011,-2.2011,-2.2001,-2.2129,-2.2086,0.0,0.0,0.0,0.0,0.0,-2.1024,-2.1024,-2.1024,-2.1108,-2.121,-2.139,-2.1447,-2.1485,-2.1655,-2.1787,-2.1898,-2.1898,-2.1945,-2.1998,-2.1998,-2.1909,-2.1874,-2.1874,-2.1785,-2.1696,-2.1696,-2.1696,-2.1696,-2.1696,-2.1824,0.0,-2.1934,-2.1797,-2.1806,-2.2153,-2.2053,-2.2062,-2.24,-2.23,-2.2245,-2.2343,-2.2501,-2.2381,-2.1932,-2.1481,0.0,0.0,0.0,-1.8726,-1.8172,-1.7515,0.0,0.0,0.0,-1.7008,-1.6735,0.0,0.0,0.0,-1.4112,-1.3435,0.0,0.0,0.0,0.0,0.0,0.0,0.0,0.0,0.0,0.0,0.0,0.0,0.0,0.0,0.0,0.0,-1.7884,-1.8131,-1.8214,-1.7704,-1.7524,-1.8116,-1.8548,-1.8814,-1.8898,-1.9486,-1.9995,-2.0458,-2.0974,-2.1504,-2.1934,-2.1953,0.0,0.0,0.0,-2.2207,-2.2578,-2.2578,-2.2773,-2.3091,-2.3091,-2.3091,-2.3091,-2.3091,-2.3091,-2.3091,-2.3091,-2.3091,-2.3091,-2.3091,-2.3091,-2.3013,-2.2016,-2.1527,-2.1356,-2.1309,-2.1328,-2.1366,-2.1366,0.0,0.0,-2.1821,-2.1945,-2.2011,-2.2372,-2.2441,-2.2441,-2.2441,-2.2441,-2.2397,-2.2397,-2.2264,-2.2141,-2.2141,-2.1963,-2.1776,-2.1776,-2.1785,-2.175,-2.1796,-2.2089,-2.2291,-2.2346,-2.2062,-2.2071,-2.2794,-2.2593,-2.2611,-2.3334,-2.3123,-2.2922,-2.2968,0.0,0.0,-2.2446,-2.2419,-2.2245,-2.1851,-2.0987,-1.9965,-1.8672,-1.8495,-1.8357,-1.8265,-1.8265,-1.8265,-1.8218,-1.8079,-1.8033,-1.7925,-1.5264,-1.3989,0.0,0.0,0.0,0.0,0.0,0.0,0.0,0.0,0.0,0.0,0.0,0.0,0.0,0.0,0.0,-1.7906,-1.818,-1.8469,-1.8795,-1.9121,-1.9198,-1.8881,-1.9031,-1.945,-2.0168,-2.0517,-2.0912,-2.1561,-2.1709,-2.1943,-2.2373,-2.2393,-2.2549,-2.2847,-2.2847,-2.2896,-2.2974,-2.2974,-2.3013,-2.3091,0.0,0.0,-2.3091,-2.3091,-2.3091,-2.3091,-2.3091,-2.3091,-2.3091,-2.3091,-2.3091,-2.3042,-2.2493,-2.2374,-2.2462,-2.2135,-2.2222,-2.251,-2.251,-2.2587,-2.2727,-2.2814,-2.2843,-2.2853,-2.294,-2.2838,0.0,-2.2706,-2.2574,-2.2397,-2.2397,-2.2353,-2.2353,-2.2353,-2.2309,-2.2264,-2.2264,-2.2132,-2.21,-2.2425,-2.2409,-2.2391,-2.273,-2.2721,-2.273,-2.2885,-2.284,-2.2849,-2.2995,-2.2959,-2.3032,-2.3343,-2.338,-2.3343,-2.327,-2.3261,-2.3096,-2.2693,-2.2208,-2.1316,-1.9985,-2.0619,-2.0619,-1.9886,-1.9877,-1.9749,-1.9521,-1.8726,-1.8211,-1.7987,-1.7396,-1.7005,0.0,0.0,0.0,0.0,0.0,0.0,0.0,0.0,0.0,0.0,0.0,-1.731,-1.7235,0.0,-1.8136,-1.861,-1.8969,-1.9219,-1.9432,-2.009,-2.0294,-1.9538,-1.9918,-2.0429,-2.0839,-2.1209,-2.1605,-2.2168,-2.2197,-2.2383,-2.276,-2.2779,-2.2877,-2.3091,-2.3091,-2.3198,-2.3467,-2.3467,-2.3574,-2.3734,-2.3734,-2.3734,-2.3734,-2.3734,-2.3734,-2.3734,-2.3734,-2.3734,-2.3715,-2.3545,-2.3467,-2.3428,-2.2955,-2.2872,-2.295,-2.2737,-2.2785,-2.2969,-2.2969,-2.3013,-2.3091,-2.3091,-2.3091,-2.3091,-2.3091,-2.3013,-2.2969,-2.2969,-2.2838,-2.274,-2.274,-2.2662,-2.2618,-2.2618,-2.2485,-2.2397,-2.2397,-2.2523,-2.264,-2.2847,-2.313,-2.3336,-2.355,-2.3658,-2.3579,-2.3233,-2.3197,-2.3279,-2.3529,-2.3556,-2.3629,-2.3831,-2.3849,-2.3767,-2.3508,-2.3316,-2.3114,-2.2922,-2.2712,-2.2216,-2.1344,-2.1753,-2.1708,-2.0997,-2.0997,-2.0943,-2.0817,-2.0294,-1.9968,-1.984,-1.984,-1.9133,0.0,0.0,0.0,0.0,0.0,0.0,0.0,-1.5719,-1.6289,-1.6289,-1.7033,-1.7837,-1.8322,-1.8492,-1.8747,-1.9299,-1.9697,-1.9971,-2.0146,-2.0752,-2.0956,-2.0371,-2.0928,-2.1356,-2.1434,-2.1797,-2.2178,-2.2607,-2.2637,-2.2783,-2.3081,-2.3091,-2.314,-2.3218,-2.3218,-2.3477,-2.3906,-2.3906,-2.4082,-2.4414,-2.4414,-2.4414,-2.4414,-2.4414,-2.4414,-2.4414,-2.4414,-2.4414,-2.4385,-2.4053,-2.3906,-2.3877,-2.3481,-2.3344,-2.3325,-2.3159,-2.3091,-2.3091,-2.3091,-2.3091,-2.3091,-2.3091,-2.3091,-2.3091,-2.3091,-2.3091,-2.3091,-2.3091,-2.3091,-2.3091,-2.3091,-2.2969,-2.2838,-2.2838,-2.2706,-2.2549,-2.2634,-2.2919,-2.3205,-2.3376,-2.3909,-2.4306,-2.4382,-2.4519,-2.4368,-2.38,-2.3657,-2.3776,-2.4156,-2.4202,-2.4202,-2.4202,-2.4202,-2.4073,-2.3684,-2.3325,-2.3105,-2.3023,-2.3023,-2.284,-2.2419,-2.24,-2.2245,-2.1934,-2.1851,-2.1806,-2.1806,-2.1733,-2.1696,-2.1696,-2.1696,-2.0619,-1.3839,-1.4199,-1.4601,-1.5436,-1.5719,-1.6,0.0,-1.7141,-1.7323,-1.7323,-1.7843,-1.8331,-1.8379,-1.8831,-1.9355,-1.9775,-1.9883,-2.0147,-2.0937,-2.1132,-2.1307,-2.1631,-2.1748,-2.1953,-2.2334,-2.2412,-2.2617,-2.2994,-2.3023,-2.3042,-2.3091,-2.3091,-2.3276,-2.3711,-2.3721,-2.3916,-2.4346,-2.4346,-2.4375,-2.4414,-2.4414,-2.4414,-2.4414,-2.4414,-2.4414,-2.4414,-2.4414,-2.4414,-2.4414,-2.4365,-2.4346,-2.4346,-2.4297,-2.4268,-2.4134,-2.3374,-2.3091,-2.3091,-2.3091,-2.3091,-2.3091,-2.3091,-2.3091,-2.3091,-2.3091,-2.3091,-2.3091,-2.3091,-2.3091,-2.3091,-2.3091,-2.3091,-2.3057,-2.3057,-2.3047,-2.3154,-2.3543,-2.348,-2.3604,-2.4382,-2.4412,-2.4391,-2.475,-2.4854,-2.4766,-2.4424,-2.4227,-2.4156,-2.4192,-2.4202,-2.4202,-2.4202,-2.4202,-2.4183,-2.4137,-2.4091,-2.3859,-2.3453,-2.3425,-2.3251,-2.2858,-2.284,-2.2821,-2.2776,-2.24,-2.2217,-2.2217,-2.1861,-2.1696,-2.1696,-2.1696,-2.1553,-1.5234,-1.5525,-1.5772,-1.6577,-1.683,-1.6968,-1.7289,-1.7486,-1.7699,-1.7967,-1.8289,-1.8666,-1.9197,-1.9467,-1.9795,-2.0225,-2.0293,-2.0518,-2.1103,-2.1455,-2.1768,-2.2197,-2.2471,-2.2588,-2.2519,-2.2691,-2.2993,-2.3309,-2.3319,-2.3363,-2.3493,-2.3643,-2.3816,-2.4192,-2.4159,-2.4457,-2.5029,-2.5039,-2.5073,-2.5138,-2.5318,-2.5318,-2.5138,-2.5138,-2.5138,-2.5138,-2.5138,-2.5138,-2.5118,-2.4902,-2.4795,-2.4775,-2.4521,-2.4414,-2.4346,-2.374,-2.3516,-2.3486,-2.3179,-2.3091,-2.3091,-2.3091,-2.3091,-2.3091,-2.3091,-2.3091,-2.3091,-2.3091,-2.3091,-2.3091,-2.3091,-2.3091,-2.3091,-2.3091,-2.3091,-2.3218,-2.3691,-2.3894,-2.4152,-2.4819,-2.5054,-2.5189,-2.5353,-2.5235,-2.5079,-2.4981,-2.4735,-2.4548,-2.439,-2.439,-2.4341,-2.4202,-2.4202,-2.4202,-2.4202,-2.4202,-2.4128,-2.3904,-2.3895,-2.3721,-2.327,-2.3251,-2.3142,-2.2913,-2.273,-2.2648,-2.2648,-2.2236,-2.2034,-2.2025,-2.1797,-2.1696,-1.6455,-1.6629,-1.6777,-1.7358,-1.7529,-1.7564,-1.7564,-1.7777,-1.8045,-1.8383,-1.8731,-1.9143,-1.9795,-2.0019,-2.0195,-2.0546,-2.0713,-2.0908,-2.1348,-2.1828,-2.2416,-2.3043,-2.3242,-2.3355,-2.3569,-2.3295,-2.3232,-2.3503,-2.3503,-2.364,-2.3978,-2.4147,-2.4391,-2.4821,-2.4802,-2.5085,-2.5777,-2.5787,-2.5803,-2.583,-2.6004,-2.5965,-2.5693,-2.5693,-2.5781,-2.5927,-2.583,-2.583,-2.5897,-2.5525,-2.5387,-2.531,-2.4902,-2.4775,-2.4727,-2.4307,-2.4072,-2.3916,-2.3603,-2.3452,-2.3452,-2.3452,-2.3452,-2.3422,-2.3315,-2.3276,-2.3247,-2.313,-2.3091,-2.3091,-2.3091,-2.3091,-2.3091,-2.3091,-2.3091,-2.3247,-2.3848,-2.4199,-2.458,-2.5137,-2.5518,-2.5693,-2.5693,-2.5538,-2.543,-2.543,-2.5235,-2.4981,-2.4627,-2.4627,-2.4538,-2.4399,-2.435,-2.4291,-2.4291,-2.4291,-2.4291,-2.4291,-2.435,-2.426,-2.3916,-2.3906,-2.3768,-2.3481,-2.3266,-2.3163,-2.3163,-2.2787,-2.2539,-2.2446,-2.2245,-2.2107,-1.747,-1.747,-1.747,-1.7505,-1.7588,-1.7672,-1.7672,-1.8137,-1.8588,-1.8598,-1.926,-1.9883,-1.9912,-2.0254,-2.0586,-2.0605,-2.0928,-2.1327,-2.1807,-2.2446,-2.3317,-2.4597,-2.4188,-2.4456,-2.6213,-2.4382,-2.3232,-2.3503,-2.3503,-2.3769,-2.442,-2.4504,-2.4862,-2.5715,-2.5755,-2.5976,-2.6476,-2.6476,-2.6332,-2.61,-2.61,-2.5965,-2.5693,-2.5693,-2.5975,-2.6448,-2.6197,-2.6255,-2.6448,-2.6187,-2.6071,-2.6032,-2.579,-2.5645,-2.5596,-2.5195,-2.4756,-2.4394,-2.4385,-2.4375,-2.4375,-2.4375,-2.4375,-2.4307,-2.3896,-2.3769,-2.3682,-2.3218,-2.3091,-2.3091,-2.3091,-2.3091,-2.3091,-2.3091,-2.3091,-2.3325,-2.4219,-2.4404,-2.4631,-2.5499,-2.5674,-2.5693,-2.5693,-2.5684,-2.5693,-2.5693,-2.5684,-2.5489,-2.4981,-2.4883,-2.4883,-2.4883,-2.4637,-2.4489,-2.4489,-2.4489,-2.4489,-2.4489,-2.4735,-2.4873,-2.4864,-2.4864,-2.4864,-2.4845,-2.4216,-2.3866,-2.3866,-2.3485,-2.3149,-2.2885,-2.313,-2.313,-1.7803,-1.7837,-1.7837,-1.7837,-1.7872,-1.81,-1.8916,-1.883,-1.9072,-2.0732,-2.0855,-2.0981,-2.194,-2.2168,-2.2199,-2.2301,-2.2293,-2.2615,-2.361,-2.3883,-2.4471,-2.5795,-2.5735,-2.5819,-2.6431,-2.4734,-2.3907,-2.4744,-2.4305,-2.4553,-2.5903,-2.608,-2.6491,-2.7253,-2.7237,-2.7065,-2.6747,-2.6757,-2.6651,-2.6352,-2.6352,-2.6304,-2.6217,-2.6217,-2.6314,-2.6496,-2.64,-2.64,-2.6496,-2.64,-2.6352,-2.6352,-2.6062,-2.5965,-2.5945,-2.5615,-2.542,-2.5157,-2.4619,-2.4414,-2.4414,-2.4414,-2.4414,-2.4385,-2.4248,-2.4209,-2.418,-2.4033,-2.3939,-2.3939,-2.3939,-2.3939,-2.3916,-2.3643,-2.3574,-2.373,-2.4297,-2.4414,-2.4678,-2.5518,-2.5693,-2.5693,-2.5693,-2.5693,-2.5693,-2.5693,-2.5538,-2.5391,-2.5186,-2.503,-2.4883,-2.4883,-2.4833,-2.4784,-2.4784,-2.4784,-2.4784,-2.4784,-2.4833,-2.4883,-2.4883,-2.4883,-2.4883,-2.4883,-2.4701,-2.4577,-2.4577,-2.4163,-2.3823,-2.3584,-2.3382,-2.3167,-1.7974,-1.8168,-1.8303,-1.8076,-1.8354,-1.8909,-1.9713,-1.9801,-2.0226,-2.213,-2.2212,-2.2235,-2.3128,-2.3231,-2.3206,-2.3294,-2.3455,-2.3872,-2.4675,-2.5095,-2.5746,-2.6919,-2.6842,-2.6976,-2.7637,-2.6027,-2.5242,-2.5902,-2.5463,-2.5797,-2.734,-2.7533,-2.7789,-2.8233,-2.8563,-2.8319,-2.7536,-2.7904,-2.7752,-2.7136,-2.6726,-2.6544,-2.6651,-2.6544,-2.6592,-2.6784,-2.6699,-2.6699,-2.6784,-2.6699,-2.6651,-2.6602,-2.6352,-2.6245,-2.6197,-2.5917,-2.582,-2.5741,-2.5078,-2.4836,-2.4836,-2.4836,-2.4836,-2.4863,-2.4697,-2.4648,-2.4619,-2.4463,-2.4414,-2.4414,-2.4414,-2.4414,-2.4346,-2.4082,-2.4014,-2.4131,-2.456,-2.4648,-2.4863,-2.5547,-2.5693,-2.5693,-2.5693,-2.5693,-2.5693,-2.5693,-2.5538,-2.544,-2.544,-2.5284,-2.5186,-2.5186,-2.5088,-2.5039,-2.5039,-2.5039,-2.5039,-2.5039,-2.5137,-2.5186,-2.5186,-2.5186,-2.5186,-2.5186,-2.5079,-2.5039,-2.5039,-2.4773,-2.4543,-2.4244,-2.4107,-2.3889,-1.8076,-1.8563,-1.8877,-1.8269,-1.91,-2.0104,-2.0217,-2.1034,-2.202,-2.2867,-2.3309,-2.3599,-2.3624,-2.3624,-2.3635,-2.3635,-2.4468,-2.5082,-2.5149,-2.6137,-2.7209,-2.8096,-2.7626,-2.7891,0.0,0.0,-2.7151,-2.6976,-2.6917,-2.7402,-2.8683,-2.8806,-2.8841,-2.883,-2.9761,-2.9806,-2.8771,-2.9715,-2.9567,-2.8366,-2.7231,-2.6832,-2.7081,-2.6832,-2.6965,-2.7441,-2.7167,-2.7214,-2.7441,-2.7177,-2.7081,-2.7034,-2.6774,-2.6678,-2.663,-2.638,-2.6284,-2.6235,-2.5965,-2.583,-2.5693,-2.5693,-2.5693,-2.5615,-2.5234,-2.5145,-2.5019,-2.46,-2.4482,-2.4482,-2.4482,-2.4482,-2.4482,-2.4453,-2.4453,-2.456,-2.498,-2.5116,-2.5205,-2.5596,-2.5693,-2.5693,-2.5693,-2.5693,-2.5693,-2.5693,-2.5693,-2.5693,-2.5693,-2.5693,-2.5693,-2.5693,-2.5489,-2.5333,-2.5333,-2.5333,-2.5333,-2.5333,-2.5538,-2.5693,-2.5693,-2.5693,-2.5693,-2.5693,-2.543,-2.5333,-2.5333,-2.5333,-2.5186,-2.4932,-2.5186,-2.5137,-1.9044,-1.9299,-1.9529,-1.9857,-2.0501,-2.1286,-2.2195,-2.2523,-2.3088,-2.4778,-2.4732,-2.4636,-2.5382,-2.5382,-2.5347,-2.55,-2.5859,-2.6335,-2.6975,-2.766,-2.8383,-2.9275,-2.9209,-2.93,-2.9753,-2.9378,0.0,-2.904,-2.8216,-2.8294,-2.9653,-3.01,-3.0482,-3.0833,-3.1125,-3.0767,-2.9852,-3.0079,-3.0034,-2.9704,-2.9383,-2.9303,-2.9349,-2.9303,-2.9349,-2.9441,-2.9395,-2.9395,-2.9441,-2.9395,-2.9349,-2.9349,-2.905,-2.8947,-2.8947,-2.8669,-2.8588,-2.853,-2.8495,-2.7258,-2.5693,-2.5693,-2.5693,-2.5664,-2.5605,-2.5566,-2.5537,-2.5382,-2.5352,-2.5352,-2.5352,-2.5352,-2.5265,-2.498,-2.4902,-2.4932,-2.5086,-2.5116,-2.5205,-2.5596,-2.5693,-2.5693,-2.5693,-2.5693,-2.5693,-2.5693,-2.5693,-2.5693,-2.5693,-2.5693,-2.5693,-2.5693,-2.5635,-2.5586,-2.5586,-2.5586,-2.5586,-2.5586,-2.5635,-2.5693,-2.5693,-2.5693,-2.5693,-2.5693,-2.5635,-2.5586,-2.5586,-2.5586,-2.544,-2.5186,-2.5284,-2.5137,-1.9497,-2.0042,-2.0539,-2.0859,-2.1615,-2.2518,-2.3469,-2.3827,-2.4366,-2.5859,-2.5804,-2.5652,-2.6223,-2.6223,-2.6188,-2.6292,-2.6634,-2.7115,-2.784,-2.8373,-2.8977,-2.9728,-2.9792,0.0,-2.9792,-2.9792,-2.9792,-2.9792,-2.9175,-2.9338,-3.0584,-3.0957,-3.1272,-3.1601,-3.2033,-3.1989,-3.148,-3.1036,-3.08,-3.08,-3.0396,-3.0215,-3.0215,-3.0215,-3.0215,-3.0215,0.0,-3.0215,-3.0215,-3.0215,-3.0215,-3.017,-3.0011,-2.9966,-2.9954,-2.9681,-2.959,-2.9544,-2.9453,-2.8495,-2.7258,-2.6706,-2.6159,-2.5693,-2.5693,-2.5693,-2.5693,-2.5693,-2.5693,-2.5693,-2.5693,-2.5693,-2.5625,-2.542,-2.5361,-2.5361,-2.5361,-2.5361,-2.5439,-2.5635,-2.5693,-2.5693,-2.5693,-2.5693,-2.5693,-2.5693,-2.5693,-2.5693,-2.5693,-2.5693,-2.5693,-2.5693,-2.5693,-2.5693,-2.5693,-2.5693,-2.5693,-2.5693,-2.5693,-2.5693,-2.5693,-2.5693,-2.5693,-2.5693,-2.5693,-2.5693,-2.5693,-2.5693,-2.5635,-2.5489,-2.5489,-2.5382,-1.9879,-2.0782,-2.167,-2.1732,-2.2681,-2.3745,-2.4338,-2.496,-2.5664,-2.6349,-2.6499,-2.6499,-2.6499,-2.6499,-2.6499,-2.6499,-2.6952,-2.7469,-2.8034,-2.8549,-2.9101,-2.9729,-2.9792,-2.9792,-2.9792,-2.9792,-2.9792,-2.9792,-2.9792,-3.0269,-3.1336,-3.1461,-3.1588,-3.1777,-3.2667,-3.3124,-3.3124,-3.2208,-3.1801,-3.1801,-3.0979,-3.0576,-3.0576,-3.0576,-3.0576,-3.0576,-3.0576,-3.0576,-3.0576,-3.0576,-3.0576,-3.0576,-3.0576,-3.0576,-3.0576,-3.0316,-3.0226,-3.0226,-2.9954,-2.9772,-2.9453,-2.8226,-2.7078,-2.6197,-2.6149,-2.6149,-2.6149,-2.611,-2.61,-2.6062,-2.5917,-2.5917,-2.5878,-2.5732,-2.5693,-2.5693,-2.5693,-2.5693,-2.5693,-2.5693,-2.5693,-2.5693,-2.5693,-2.5693,-2.5693,-2.5693,-2.5693,-2.5693,-2.5693,-2.5693,-2.5693,-2.5693,-2.5693,-2.5693,-2.5693,-2.5693,-2.5693,-2.5693,-2.5693,-2.5693,-2.5693,-2.5693,-2.5693,-2.5693,-2.5693,-2.5693,-2.5693,-2.5693,-2.5693,-2.5693,-2.5693,-2.5693,-2.1385,-2.1854,-2.2246,-2.3285,-2.4043,-2.4718,-2.5261,-2.5856,-2.6314,-2.6452,-2.6499,-2.6499,-2.6499,-2.6499,-2.6499,-2.6499,-2.6952,-2.7469,-2.8034,-2.8549,-2.9101,0.0,-2.9792,-2.9792,-2.9792,-2.9792,0.0,0.0,-2.9792,-3.0269,-3.1336,-3.1825,-3.2294,-3.2828,-3.3025,-3.3124,-3.3124,-3.2939,-3.2853,-3.2853,-3.2667,-3.2624,-3.2624,-3.2624,-3.2624,-3.2624,-3.2624,0.0,-3.2624,-3.2624,-3.2624,-3.2624,-3.2624,-3.2624,-3.2581,-3.2525,-3.2525,-3.2513,-3.2469,-3.1777,-3.0676,-2.9498,-2.8947,-2.8716,-2.8495,-2.8402,-2.8402,-2.8215,-2.8168,-2.7992,-2.7152,-2.6962,-2.6733,-2.5917,-2.5693,-2.5693,-2.5693,-2.5693,-2.5693,-2.5693,-2.5693,-2.5693,-2.5693,-2.5693,-2.5693,-2.5693,-2.5693,-2.5693,-2.5693,-2.5693,-2.5693,-2.5693,-2.5693,-2.5693,-2.5693,-2.5693,-2.5693,-2.5693,-2.5693,-2.5693,-2.5693,-2.5693,-2.5693,-2.5693,-2.5693,-2.5693,-2.5693,-2.5693,-2.5693,-2.5693,-2.5693,-2.5693,-2.1916,-2.2359,-2.2917,-2.411,-2.4619,-2.5034,-2.585,0.0,0.0,-2.6499,-2.6499,-2.6499,-2.6499,-2.6499,-2.6499,-2.6499,-2.6713,-2.719,-2.7996,-2.8335,-2.8825,-2.9691,-2.9792,-2.9792,-2.9792,-2.9792,-2.9792,-2.9792,-2.9792,-3.0269,-3.1336,-3.2202,-3.2792,-3.3111,-3.3124,-3.3124,-3.3124,-3.3124,-3.3124,-3.3124,-3.3124,-3.3124,-3.3124,-3.3124,-3.3124,-3.3124,-3.3124,-3.3124,-3.3124,-3.3124,-3.3124,-3.3124,-3.3124,-3.3124,-3.3124,-3.3124,-3.3124,-3.3124,-3.3124,-3.2698,-3.2096,-3.1512,-3.0463,-2.9361,-2.9269,-2.9223,-2.9177,-2.8912,-2.8866,-2.8727,-2.8121,-2.7981,-2.784,-2.7389,-2.7258,-2.7115,-2.66,-2.6466,-2.6332,-2.5781,-2.5693,-2.5693,-2.5693,-2.5693,-2.5693,-2.5693,-2.5693,-2.5693,-2.5693,-2.5693,-2.5693,-2.5693,-2.5693,-2.5693,-2.5693,-2.5693,-2.5693,-2.5693,-2.5693,-2.5693,-2.5693,-2.5693,-2.5693,-2.5693,-2.5693,-2.5693,-2.5693,-2.5693,-2.5693,-2.5693,-2.5693,-2.5693,-2.2267,-2.2689,-2.3346,-2.4362,-2.47,-2.5039,-2.6084,-2.6411,-2.6499,-2.6499,-2.6499,-2.6499,-2.6499,-2.6499,-2.6499,-2.6499,-2.6499,-2.6876,-2.7946,-2.8109,-2.8524,-2.9654,-2.9792,0.0,-2.9792,-2.9792,0.0,-2.9792,-2.9905,-3.0382,-3.1336,-3.2466,-3.3124,-3.3124,-3.3124,-3.3124,-3.3124,-3.3124,-3.3124,-3.3124,-3.3124,-3.3124,-3.3124,-3.3124,-3.3124,-3.3124,-3.3124,-3.3124,-3.3124,-3.3124,-3.3124,-3.3124,-3.3124,-3.3124,-3.3124,-3.3124,-3.3124,-3.3124,-3.3124,-3.3124,-3.3124,-3.3124,-3.1789,-3.0181,-3.0135,-3.0102,-3.0045,-2.9784,-2.9749,-2.9647,-2.928,-2.9189,-2.9096,-2.8819,-2.8727,-2.8484,-2.7699,-2.751,-2.7284,-2.6524,-2.6149,-2.61,-2.6284,-2.5965,-2.5781,-2.6014,-2.583,-2.5693,-2.5693,-2.5693,-2.5693,-2.5693,-2.5693,-2.5693,-2.5693,-2.5693,-2.5693,-2.5693,-2.5693,-2.5693,-2.5693,-2.5693,-2.5693,-2.5693,-2.5693,-2.5693,-2.5693,-2.5693,-2.5693,-2.5693,-2.5693,-2.5693,-2.2841,-2.3035,-2.3258,-2.3916,-2.4456,-2.4971,-2.5548,0.0,-2.6499,-2.6499,-2.6499,-2.6499,-2.6499,-2.6499,-2.6499,-2.6499,-2.6499,-2.6876,-2.7946,-2.8109,-2.8524,-2.9654,0.0,0.0,-2.9792,-2.9792,-2.9792,-2.9792,-3.0256,-3.0783,-3.1361,-3.2466,-3.3124,-3.3124,-3.3124,-3.3124,-3.3124,-3.3124,-3.3124,-3.3124,-3.3124,-3.3124,-3.3124,-3.3124,-3.3124,-3.3124,-3.3124,-3.3124,0.0,-3.3124,-3.3124,-3.3124,-3.3124,-3.3124,-3.3124,-3.3124,-3.3124,-3.3124,-3.3124,-3.3124,-3.3124,-3.3124,-3.2939,-3.2711,-3.2481,-3.2394,-3.2351,-3.2157,-3.2069,-3.1881,-3.0946,-3.0711,-3.0396,-2.9235,-2.8819,-2.868,-2.8588,-2.8588,-2.8541,-2.8448,-2.7699,-2.7332,-2.8262,-2.6935,-2.6004,-2.6914,-2.6284,-2.5693,-2.5693,-2.5693,-2.5693,-2.5693,-2.5693,-2.5693,-2.5693,-2.5693,-2.5693,-2.5693,-2.5693,-2.5693,-2.5693,-2.5693,-2.5693,-2.5693,-2.5693,-2.5693,-2.5693,-2.5693,-2.5693,-2.5693,-2.5693,-2.5693,-2.3035,-2.3108,-2.3246,-2.3853,-2.4406,-2.4958,-2.5618,0.0,-2.6624,-2.6624,-2.6705,-2.6739,-2.6533,-2.6555,-2.6589,-2.6499,-2.6499,-2.6876,-2.7946,-2.8109,-2.8524,-2.9654,-2.9792,-2.9792,0.0,0.0,-2.9792,-2.9792,-3.0306,-3.0834,-3.1361,-3.2139,-3.2717,-3.3111,-3.3124,-3.3124,-3.3124,-3.3124,-3.3124,-3.3124,-3.3124,-3.3124,-3.3124,-3.3124,-3.3124,-3.3124,-3.3124,-3.3124,0.0,-3.3124,-3.3124,-3.3124,-3.3124,-3.3124,-3.3124,-3.3124,-3.3124,-3.3124,-3.3124,-3.3124,-3.3124,-3.3124,-3.3124,-3.3068,-3.2982,-3.2939,-3.2896,-3.2636,-3.2593,-3.2463,-3.1925,-3.1781,-3.1693,-3.1181,-3.1003,-3.0767,-3.0158,-3.0022,-2.9841,-2.9223,-2.8669,-2.8391,-2.8819,-2.8132,-2.7626,-2.8028,-2.7757,-2.7295,-2.6696,-2.66,-2.637,-2.5781,-2.5693,-2.5693,-2.5693,-2.5693,-2.5693,-2.5693,-2.5693,-2.5693,-2.5693,-2.5693,-2.5693,-2.5693,-2.5693,-2.5693,-2.5693,-2.5693,-2.5693,-2.5693,-2.5693,-2.5693,-2.3108,-2.3108,-2.3238,-2.3714,-2.4343,-2.505,-2.5592,0.0,-2.6794,-2.6794,-2.6909,-2.6922,-2.6705,-2.6726,-2.676,-2.6671,-2.6636,-2.6965,-2.7841,-2.8154,-2.8572,-2.9428,0.0,-2.9934,-2.9792,-2.9792,-2.983,-2.9869,-3.0182,-3.0608,-3.1135,-3.1675,-3.2303,-3.3099,-3.3124,-3.3111,-3.3197,-3.3111,-3.3111,-3.3197,-3.3111,-3.3124,-3.3124,-3.3124,-3.3111,-3.3197,-3.3197,-3.3197,0.0,-3.3197,-3.3154,-3.3124,-3.3124,-3.3124,-3.3124,-3.3124,-3.3124,-3.3124,-3.3124,-3.3124,-3.3124,-3.3124,-3.3124,-3.3124,-3.3124,-3.3124,-3.3081,-3.2853,-3.281,-3.281,-3.2649,-3.2562,-3.2475,-3.2475,-3.2431,-3.2213,-3.1504,-3.1359,-3.1125,-3.0429,-2.9875,-2.9647,-2.9977,-2.9372,-2.8993,-2.9326,-2.9096,-2.8623,-2.784,-2.7746,-2.7332,-2.6284,-2.6139,-2.6004,-2.5732,-2.5693,-2.5693,-2.5693,-2.5693,-2.5693,-2.5693,-2.5693,-2.5693,-2.5693,-2.5693,-2.5693,-2.5693,-2.5693,-2.5693,-2.5693,-2.5693,-2.5693,-2.3108,-2.3108,-2.3138,-2.3343,-2.4271,-2.5116,-2.5275,-2.6191,-2.699,-2.699,-2.699,-2.699,-2.699,-2.699,-2.699,-2.699,-2.6977,-2.7161,-2.7561,-2.8237,-2.8762,0.0,-2.9796,-3.0228,-2.983,-2.9792,-2.9869,-3.0075,-2.9908,0.0,-3.0595,-3.1122,-3.1913,-3.3043,-3.3124,-3.3197,-3.3398,-3.3197,-3.3197,-3.3398,-3.3197,-3.3124,-3.3124,-3.3124,-3.3197,-3.3398,-3.3398,-3.3398,0.0,-3.3398,-3.3283,-3.3124,-3.3124,-3.3124,-3.3124,-3.3124,-3.3124,-3.3124,-3.3124,-3.3124,-3.3124,-3.3124,-3.3124,-3.3124,-3.3124,-3.3124,-3.3124,-3.3124,-3.3124,-3.3124,-3.3081,-3.2896,-3.2711,-3.2711,-3.2562,-3.24,-3.24,-3.2388,-3.2388,-3.2344,-3.1548,-3.1181,-3.2201,-3.0711,-2.9727,-3.0711,-3.0011,-2.9269,-2.9004,-2.9004,-2.8541,-2.7332,-2.7189,-2.6781,-2.5781,-2.5693,-2.5693,-2.5693,-2.5693,-2.5693,-2.5693,-2.5693,-2.5693,-2.5693,-2.5693,-2.5693,-2.5693,-2.5693,-2.5693,-2.5693,-2.5693,-2.5693,-2.342,-2.3437,-2.345,-2.3509,-2.4088,-2.477,-2.5356,-2.6058,-2.6716,-2.7136,-2.7268,-2.7268,-2.7045,-2.7113,-2.7146,-2.7024,-2.699,-2.7169,-2.7685,-2.8295,0.0,-2.9273,-2.9846,-3.0152,0.0,-2.9869,-2.9869,-3.0075,-3.0049,-3.0251,-3.0768,-3.1485,-3.2079,-3.2466,-3.2867,-3.3111,-3.3197,-3.3283,-3.3356,-3.3398,-3.3471,-3.3513,-3.3513,-3.3513,-3.3556,-3.3598,-3.3598,-3.3598,-3.3598,-3.3598,-3.3556,-3.3513,-3.3356,-3.3313,-3.3283,-3.3154,-3.3124,-3.3124,-3.3124,-3.3124,-3.3124,-3.3124,-3.3124,-3.3124,-3.3124,-3.3124,-3.3124,-3.3124,-3.3124,-3.3124,-3.3124,-3.3038,-3.2982,-3.2982,-3.2896,-3.2865,-3.2865,-3.2865,-3.2865,-3.2865,-3.2494,-3.222,-3.255,-3.1957,-3.1548,-3.1881,-3.1649,-3.1181,-3.0384,-3.0294,-2.9829,-2.8588,-2.8448,-2.7709,-2.5878,-2.5693,-2.5693,-2.5693,-2.5693,-2.5693,-2.5693,-2.5693,-2.5693,-2.5693,-2.5693,-2.5693,-2.5693,-2.5693,-2.5693,-2.5693,-2.5693,-2.5693,-2.3599,-2.3599,-2.3628,-2.3688,-2.4111,-2.4708,-2.5506,-2.6109,-2.6681,-2.7252,-2.7436,-2.7436,-2.7248,-2.7302,-2.7335,-2.7214,-2.718,-2.7296,-2.7563,-2.8366,0.0,-2.9977,-3.0087,0.0,-3.0419,-3.0126,-3.0011,-3.0318,-3.0267,-3.0381,-3.0687,-3.1366,-3.1888,-3.2149,-3.2921,-3.3356,-3.3496,-3.3484,-3.3556,-3.3654,-3.3683,-3.3713,-3.3713,-3.3713,-3.3768,-3.3852,-3.3852,-3.3852,0.0,-3.3852,-3.381,-3.367,-3.3556,-3.3513,-3.3513,-3.3356,-3.3313,-3.3313,-3.324,-3.3197,-3.3197,-3.3124,-3.3124,-3.3124,-3.3124,-3.3124,-3.3124,-3.3124,-3.3124,-3.3124,-3.3124,-3.3124,-3.3124,-3.3124,-3.3124,-3.3124,-3.3124,-3.3124,-3.3124,-3.3124,-3.2982,-3.2853,-3.2853,-3.2736,-3.2649,-3.2649,-3.2649,-3.2419,-3.1669,-3.1581,-3.1113,-2.9841,-2.9738,-2.9004,-2.7258,-2.661,-2.61,-2.5732,-2.5693,-2.5693,-2.5693,-2.5693,-2.5693,-2.5693,-2.5693,-2.5693,-2.5693,-2.5693,-2.5693,-2.5693,-2.5693,-2.5693,0.0,-2.3628,-2.3688,-2.3861,-2.4296,-2.4858,-2.5618,-2.6229,0.0,-2.7372,-2.749,-2.749,-2.749,-2.749,-2.749,-2.749,-2.749,-2.7469,-2.7335,-2.8473,-2.9706,0.0,-3.0495,-3.0343,-3.0911,-3.0457,-3.0267,-3.066,-3.0533,-3.0406,-3.0406,-3.0932,-3.151,-3.21,-3.3152,-3.3814,-3.4076,-3.3852,-3.3852,-3.4118,-3.3852,-3.3755,-3.3755,-3.3755,-3.3894,0.0,-3.4118,-3.4118,-3.4118,-3.4118,-3.3979,-3.3755,-3.3713,-3.3725,-3.3725,-3.3713,-3.3713,-3.367,-3.3471,-3.3441,-3.3398,-3.3197,-3.3124,-3.3124,-3.3124,-3.3124,-3.3124,-3.3124,-3.3124,-3.3124,-3.3124,-3.3124,-3.3124,-3.3124,-3.3124,-3.3124,-3.3124,-3.3124,-3.3124,-3.3124,-3.3124,-3.3124,-3.3124,-3.3124,-3.3124,-3.3124,-3.3124,-3.3025,-3.2754,-3.2723,-3.2307,-3.1169,-3.1036,-3.0609,-2.959,-2.8157,-2.6924,-2.6014,-2.5927,-2.5917,-2.5917,-2.583,-2.583,-2.583,-2.5732,-2.5693,-2.5693,-2.5693,-2.5693,-2.5693,-2.5693,-2.5693,-2.3995,0.0,-2.3995,-2.4024,-2.4158,-2.451,0.0,-2.5897,-2.6308,-2.7281,-2.749,-2.749,-2.749,-2.749,-2.749,-2.749,-2.749,-2.749,-2.7469,-2.8508,-2.967,-3.0631,-3.066,-3.0622,-3.0773,-3.0495,-3.0419,-3.0698,-3.066,-3.0622,-3.0622,-3.1267,-3.1941,-3.2527,-3.3242,-3.369,-3.3797,-3.3937,-3.4034,-3.4118,-3.4189,-3.423,-3.423,-3.423,-3.4272,-3.4314,-3.4314,-3.4314,-3.4314,-3.4314,-3.4272,-3.423,-3.4076,-3.3992,-3.3992,-3.3768,-3.3713,-3.367,-3.3641,-3.3641,-3.3598,-3.3398,-3.3313,-3.3313,-3.3154,-3.3124,-3.3124,-3.3124,-3.3124,-3.3124,-3.3124,-3.3124,-3.3124,-3.3124,-3.3124,-3.3124,-3.3124,-3.3124,-3.3124,-3.3124,-3.3124,-3.3124,-3.3124,-3.3124,-3.3124,-3.3124,-3.3124,-3.3081,-3.3025,-3.3025,-3.281,-3.2307,-3.2264,-3.1801,-3.0654,-2.9326,-2.8495,-2.8226,-2.8085,-2.7992,-2.7992,-2.7247,-2.6877,-2.6877,-2.61,-2.5693,-2.5693,-2.5693,-2.5693,-2.5693,-2.5693,-2.5693,-2.4083,-2.4083,-2.4083,-2.4083,-2.4083,-2.4347,-2.5236,-2.5628,-2.6041,-2.6948,-2.732,-2.749,-2.749,-2.749,-2.749,-2.749,-2.749,-2.7686,-2.8255,-2.9104,-2.997,-3.0732,-3.0773,-3.0736,0.0,-3.0647,-3.0609,-3.0798,-3.0849,-3.0849,-3.0849,-3.1211,-3.1705,-3.228,-3.2868,-3.3452,-3.4008,-3.416,-3.4243,-3.4243,-3.4356,-3.4397,-3.4397,-3.4397,-3.4397,-3.4397,-3.4397,-3.4397,-3.4397,-3.4397,-3.4397,-3.4397,-3.4272,-3.4243,-3.4243,-3.405,-3.4008,-3.4021,-3.3937,-3.381,-3.367,-3.3556,-3.3556,-3.3513,-3.3313,-3.324,-3.324,-3.3111,-3.3124,-3.3124,-3.3124,-3.3124,-3.3124,-3.3124,-3.3124,-3.3124,-3.3124,-3.3124,-3.3124,-3.3124,-3.3124,-3.3124,-3.3124,-3.3124,-3.3124,-3.3124,-3.3124,-3.3124,-3.3124,-3.3124,-3.3025,-3.2896,-3.2896,-3.2624,-3.1945,-3.1158,-3.0283,-2.9235,-2.9085,-2.9039,-2.9039,-2.8484,-2.8157,-2.8028,-2.7067,-2.6514,-2.637,-2.5917,-2.5693,-2.5693,-2.5693,-2.5693,-2.4083,-2.4083,-2.4083,-2.4083,-2.4083,-2.4269,-2.4861,-2.5406,-2.5981,-2.6588,0.0,-2.749,-2.749,-2.749,-2.749,-2.749,-2.7568,0.0,-2.9118,-2.9771,-3.0309,-3.0921,-3.0849,0.0,-3.0986,-3.0849,-3.0811,-3.0986,-3.0986,-3.0986,-3.0986,-3.0986,-3.1248,-3.1784,-3.2319,-3.3104,-3.4267,-3.4358,-3.4397,-3.4397,-3.4397,-3.4397,-3.4397,-3.4397,-3.4397,-3.4397,0.0,0.0,-3.4397,-3.4397,-3.4397,-3.4397,-3.4397,-3.4397,-3.4397,-3.4397,-3.4397,-3.4397,-3.4202,-3.3992,-3.3797,-3.3755,-3.3755,-3.3725,-3.3513,-3.3441,-3.3398,-3.324,-3.3154,-3.3124,-3.3124,-3.3124,-3.3124,-3.3124,-3.3124,-3.3124,-3.3124,-3.3124,-3.3124,-3.3124,-3.3124,-3.3124,-3.3124,-3.3124,-3.3124,-3.3124,-3.3124,-3.3124,-3.3124,-3.3124,-3.3124,-3.3124,-3.3124,-3.3124,-3.3124,-3.2896,-3.1977,-3.009,-2.9909,-2.9784,-2.9636,-2.9636,-2.9407,-2.9004,-2.8226,-2.7626,-2.7189,-2.6322,-2.5868,-2.5693,-2.5693,-2.5693,-2.4083,-2.4083,-2.4083,-2.4083,-2.4083,-2.4269,-2.4861,-2.5406,-2.5981,-2.6588,-2.7131,-2.749,-2.749,-2.749,-2.749,-2.749,-2.7941,-2.849,0.0,0.0,-3.0309,-3.0921,0.0,-3.0986,-3.0986,-3.0986,-3.0986,-3.0986,-3.0986,-3.0986,-3.0986,-3.0986,-3.1248,-3.1784,-3.1889,-3.2489,-3.3705,-3.4162,-3.4397,-3.4397,-3.4397,-3.4397,-3.4397,-3.4397,-3.4397,-3.4397,0.0,-3.4397,-3.4397,-3.4397,-3.4397,-3.4397,-3.4397,-3.4397,-3.4397,-3.4397,-3.4397,-3.4397,-3.4356,-3.4314,-3.4272,-3.4076,-3.4034,-3.3992,-3.3725,-3.3641,-3.3641,-3.3641,-3.3356,-3.3124,-3.3124,-3.3124,-3.3124,-3.3124,-3.3124,-3.3124,-3.3124,-3.3124,-3.3124,-3.3124,-3.3124,-3.3124,-3.3124,-3.3124,-3.3124,-3.3124,-3.3124,-3.3124,-3.3124,-3.3124,-3.3124,-3.3124,-3.3124,-3.3124,-3.3124,-3.3081,-3.2896,-3.2568,-3.2145,-3.1548,-3.0711,-3.0666,-3.0158,-2.9004,-2.8866,-2.8262,-2.7189,-2.7047,-2.6552,-2.5693,-2.5693,-2.5693,-2.4083,-2.4083,-2.4083,-2.4083,-2.4083,-2.4178,-2.4452,-2.5184,-2.5871,-2.6164,-2.6889,-2.749,-2.749,-2.749,-2.749,-2.749,0.0,-2.8996,-2.9284,-3.0032,-3.0699,0.0,0.0,-3.0986,-3.0986,-3.0986,-3.0986,-3.0986,-3.0986,-3.0986,-3.0986,-3.0986,-3.1104,-3.1365,-3.1641,-3.2058,-3.2607,-3.3522,-3.411,-3.4397,-3.4397,-3.4397,-3.4397,-3.4397,-3.4397,-3.4397,0.0,-3.4397,-3.4397,-3.4397,-3.4397,-3.4397,-3.4397,-3.4397,-3.4397,-3.4397,-3.4397,-3.4397,-3.4397,-3.4397,-3.4397,-3.4272,-3.4285,-3.4243,-3.3992,-3.3907,-3.3894,-3.3755,-3.3471,-3.3283,-3.3283,-3.3197,-3.3124,-3.3124,-3.3124,-3.3124,-3.3124,-3.3124,-3.3124,-3.3124,-3.3124,-3.3124,-3.3124,-3.3124,-3.3124,-3.3124,-3.3124,-3.3124,-3.3124,-3.3124,-3.3124,-3.3124,-3.3124,-3.3124,-3.3124,-3.3124,-3.3124,-3.3124,-3.2909,-3.2593,-3.212,-3.2077,-3.1757,-3.1024,-3.0463,-2.9772,-2.9004,-2.8437,-2.7887,-2.7295,-2.6744,-2.6514,-2.4083,-2.4083,-2.4083,-2.4083,-2.4083,-2.4083,-2.4083,-2.4971,-2.5793,-2.5793,-2.6707,-2.749,-2.749,-2.749,-2.749,-2.749,-2.8516,-2.931,-2.931,-3.0268,-3.0986,-3.0986,-3.0986,-3.0986,-3.0986,-3.0986,-3.0986,-3.0986,-3.0986,-3.0986,-3.0986,-3.0986,-3.0986,-3.0986,-3.1418,-3.1667,-3.1797,-3.2738,-3.3535,-3.4201,-3.4332,-3.4397,-3.4397,-3.4397,-3.4397,-3.4397,-3.4397,-3.4397,-3.4397,-3.4397,-3.4397,-3.4397,-3.4397,-3.4397,-3.4397,-3.4397,-3.4397,-3.4397,-3.4397,-3.4397,-3.4397,-3.4397,-3.4397,-3.4356,-3.4243,-3.416,-3.4118,-3.3937,-3.3725,-3.3569,-3.3484,-3.3313,-3.3154,-3.3154,-3.3111,-3.3124,-3.3124,-3.3124,-3.3124,-3.3124,-3.3124,-3.3124,-3.3124,-3.3124,-3.3124,-3.3124,-3.3124,-3.3124,-3.3124,-3.3124,-3.3124,-3.3124,-3.3124,-3.3124,-3.3124,-3.3124,-3.3124,-3.3124,-3.3124,-3.3124,-3.3124,-3.3124,-3.2982,-3.2723,-3.1921,-3.1247,-3.0588,-2.9841,-2.9235,-2.8773,-2.7981,-2.7605,-2.4083,-2.4083,-2.4083,-2.4083,-2.4083,-2.4083,-2.4083,-2.4971,-2.5793,-2.5793,-2.6707,-2.749,-2.749,-2.749,-2.749,-2.749,-2.8516,-2.931,-2.931,0.0,-3.0986,-3.0986,-3.0986,-3.0986,-3.0986,-3.0986,-3.0986,-3.0986,-3.0986,-3.0986,-3.0986,-3.0986,-3.0986,-3.0986,-3.1026,-3.13,-3.1797,-3.1889,-3.2489,-3.3652,-3.4162,-3.4397,-3.4397,-3.4397,-3.4397,-3.4397,-3.4397,-3.4397,-3.4397,-3.4397,-3.4397,-3.4397,-3.4397,-3.4397,-3.4397,-3.4397,-3.4397,-3.4397,-3.4397,-3.4397,-3.4397,-3.4397,-3.4397,-3.4397,-3.4397,-3.4397,-3.4356,-3.4356,-3.4189,-3.3992,-3.3755,-3.3513,-3.3398,-3.3398,-3.324,-3.3124,-3.3124,-3.3124,-3.3124,-3.3124,-3.3124,-3.3124,-3.3124,-3.3124,-3.3124,-3.3124,-3.3124,-3.3124,-3.3124,-3.3124,-3.3124,-3.3124,-3.3124,-3.3124,-3.3124,-3.3124,-3.3124,-3.3124,-3.3124,-3.3124,-3.3124,-3.3124,-3.2982,-3.2723,-3.2624,-3.2033,-3.0857,-3.08,-3.0158,-2.8958,-2.8912,-2.8773,-2.4083,-2.4083,-2.4083,-2.4083,-2.4083,-2.4083,-2.4083,-2.4971,-2.5793,-2.5793,-2.6707,-2.749,0.0,0.0,-2.749,-2.749,-2.8516,-2.931,-2.931,-3.0268,-3.0986,-3.0986,-3.0986,-3.0986,-3.0986,-3.0986,-3.0986,-3.0986,-3.0986,-3.0986,-3.0986,-3.0986,-3.0986,-3.0986,-3.0986,-3.1091,-3.1313,-3.1628,-3.2019,-3.2476,-3.3456,-3.3901,-3.3901,-3.4241,-3.4397,-3.4397,-3.4397,-3.4397,-3.4397,-3.4397,-3.4397,-3.4397,-3.4397,-3.4397,-3.4397,-3.4397,-3.4397,-3.4397,-3.4397,-3.4397,-3.4397,-3.4397,-3.4397,-3.4397,-3.4397,-3.4397,-3.4397,-3.4397,-3.4356,-3.423,-3.4021,-3.3768,-3.3598,-3.3598,-3.3441,-3.3283,-3.3283,-3.3197,-3.3124,-3.3124,-3.3124,-3.3124,-3.3124,-3.3124,-3.3124,-3.3124,-3.3124,-3.3124,-3.3124,-3.3124,-3.3124,-3.3124,-3.3124,-3.3124,-3.3124,-3.3124,-3.3124,-3.3124,-3.3124,-3.3124,-3.3124,-3.3124,-3.3038,-3.2939,-3.2939,-3.2624,-3.2033,-3.2033,-3.1725,-3.1092,-3.0486,-3.0158,-2.4083,-2.4083,-2.4083,-2.4083,-2.4083,-2.4083,-2.4083,-2.4971,-2.5793,-2.5793,-2.6707,-2.749,-2.749,0.0,0.0,0.0,-2.8516,-2.931,-2.931,-3.0268,-3.0986,-3.0986,-3.0986,-3.0986,-3.0986,-3.0986,-3.0986,-3.0986,-3.0986,-3.0986,-3.0986,-3.0986,-3.0986,-3.0986,-3.0986,-3.0986,-3.0986,-3.1378,-3.1536,-3.1549,-3.2568,-3.3234,-3.36,-3.3979,-3.4241,-3.4397,-3.4397,-3.4397,-3.4397,-3.4397,-3.4397,-3.4397,-3.4397,-3.4397,-3.4397,-3.4397,-3.4397,-3.4397,-3.4397,-3.4397,-3.4397,-3.4397,-3.4397,-3.4397,-3.4397,-3.4397,-3.4397,-3.4397,-3.4397,-3.4356,-3.4243,-3.4021,-3.381,-3.381,-3.3641,-3.3471,-3.3471,-3.3356,-3.3197,-3.3197,-3.3154,-3.3124,-3.3124,-3.3124,-3.3124,-3.3124,-3.3124,-3.3124,-3.3124,-3.3124,-3.3124,-3.3124,-3.3124,-3.3124,-3.3124,-3.3124,-3.3124,-3.3124,-3.3124,-3.3124,-3.3124,-3.3124,-3.3124,-3.3124,-3.3124,-3.3025,-3.281,-3.281,-3.2723,-3.2475,-3.1769,-3.1448,-2.4112,-2.4112,-2.4083,-2.4083,-2.4083,-2.4083,-2.4083,-2.4971,-2.5793,-2.5806,-2.6707,-2.749,-2.749,-2.749,0.0,-2.749,-2.8516,-2.931,-2.931,-3.0268,-3.0986,-3.0986,-3.0986,-3.0986,-3.0986,-3.0986,-3.0986,-3.0986,-3.0986,-3.0986,-3.0986,-3.0986,-3.0986,-3.0986,-3.0986,-3.0986,-3.0986,-3.0986,-3.0986,-3.0999,-3.1523,-3.2398,-3.3574,-3.3587,-3.3875,-3.4384,-3.4384,-3.4397,-3.4397,-3.4397,-3.4397,-3.4397,-3.4397,-3.4397,-3.4397,-3.4397,-3.4397,-3.4397,-3.4397,-3.4397,-3.4397,-3.4397,-3.4397,-3.4397,-3.4397,-3.4397,-3.4397,-3.4397,-3.4397,-3.4397,-3.4397,-3.4243,-3.4118,-3.4118,-3.3894,-3.3713,-3.3713,-3.3556,-3.3398,-3.3398,-3.324,-3.3124,-3.3124,-3.3124,-3.3124,-3.3124,-3.3124,-3.3124,-3.3124,-3.3124,-3.3124,-3.3124,-3.3124,-3.3124,-3.3124,-3.3124,-3.3124,-3.3124,-3.3124,-3.3124,-3.3124,-3.3124,-3.3124,-3.3124,-3.3124,-3.3124,-3.3124,-3.3124,-3.2939,-3.2711,-3.2711,-3.2593,-2.4734,-2.4565,-2.4334,-2.4141,-2.4083,-2.4083,-2.4083,-2.4971,-2.6015,-2.6824,-2.7255,-2.749,-2.749,-2.749,0.0,-2.749,-2.8516,-2.931,-2.931,-3.0268,-3.0986,-3.0986,-3.0986,-3.0986,-3.0986,-3.0986,-3.0986,-3.0986,-3.0986,-3.0986,-3.0986,-3.0986,-3.0986,-3.0986,-3.0986,-3.0986,-3.0986,-3.0986,-3.0986,-3.0986,-3.1156,-3.1627,-3.2332,-3.2777,-3.3273,-3.3835,-3.3835,-3.4045,-3.4397,-3.4397,-3.4397,-3.4397,-3.4397,-3.4397,-3.4397,-3.4397,-3.4397,-3.4397,-3.4397,-3.4397,-3.4397,-3.4397,-3.4397,-3.4397,-3.4397,-3.4397,-3.4397,-3.4397,-3.4397,-3.4397,-3.4397,-3.4356,-3.4314,-3.4314,-3.4147,-3.3992,-3.3992,-3.3768,-3.3598,-3.3598,-3.3556,-3.3513,-3.3513,-3.3398,-3.3313,-3.3313,-3.3197,-3.3124,-3.3124,-3.3124,-3.3124,-3.3124,-3.3124,-3.3124,-3.3124,-3.3124,-3.3124,-3.3124,-3.3124,-3.3124,-3.3124,-3.3124,-3.3124,-3.3124,-3.3124,-3.3124,-3.3124,-3.3124,-3.3081,-3.2982,-3.2982,-3.2939,-2.4664,-2.4492,-2.429,-2.4141,-2.4083,-2.4178,-2.44,-2.5158,0.0,0.0,-2.749,-2.749,-2.749,-2.749,0.0,-2.749,-2.8516,-2.931,-2.931,-3.0268,-3.0986,-3.0986,-3.0986,-3.0986,-3.0986,-3.0986,-3.0986,-3.0986,-3.0986,-3.0986,-3.0986,-3.0986,-3.0986,-3.0986,-3.0986,-3.0986,-3.0986,-3.0986,-3.0986,-3.0986,-3.0986,-3.1169,-3.1522,-3.2097,-3.2672,-3.3234,-3.3234,-3.3548,-3.4071,-3.4071,-3.4201,-3.4397,-3.4397,-3.4397,-3.4397,-3.4397,-3.4397,-3.4397,-3.4397,-3.4397,-3.4397,-3.4397,-3.4397,-3.4397,-3.4397,-3.4397,-3.4397,-3.4397,-3.4397,-3.4397,-3.4397,-3.4397,-3.4397,-3.4397,-3.4314,-3.4243,-3.4243,-3.4021,-3.3852,-3.3852,-3.3768,-3.3713,-3.3713,-3.3598,-3.3513,-3.3513,-3.3356,-3.324,-3.324,-3.3154,-3.3124,-3.3124,-3.3124,-3.3124,-3.3124,-3.3124,-3.3124,-3.3124,-3.3124,-3.3124,-3.3124,-3.3124,-3.3124,-3.3124,-3.3124,-3.3124,-3.3124,-3.3124,-3.3124,-3.3124,-3.3124,-3.3124,-2.4405,-2.4303,-2.4258,-2.42,-2.4141,-2.4269,-2.4921,-2.5437,-2.6093,-2.719,0.0,-2.749,-2.749,-2.749,-2.749,-2.749,-2.8464,-2.9258,-2.931,-3.0215,-3.0934,-3.0973,-3.0986,-3.0986,-3.0986,-3.0986,-3.0986,-3.0986,-3.0986,-3.0986,-3.0986,-3.0986,-3.0986,-3.0986,-3.0986,-3.0986,-3.0986,-3.0986,-3.0986,-3.0986,-3.0986,-3.0986,-3.0999,-3.1484,-3.2032,-3.262,-3.2672,-3.2999,-3.3509,-3.3509,-3.3835,-3.4332,-3.4332,-3.4358,-3.4397,-3.4397,-3.4397,-3.4397,-3.4397,-3.4397,-3.4397,-3.4397,-3.4397,-3.4397,-3.4397,-3.4397,-3.4397,-3.4397,-3.4397,-3.4397,-3.4397,-3.4397,-3.4397,-3.4397,-3.4397,-3.4397,-3.4397,-3.4285,-3.4118,-3.4118,-3.3937,-3.3755,-3.3755,-3.3755,-3.3725,-3.3713,-3.3556,-3.3441,-3.3398,-3.324,-3.3124,-3.3124,-3.3124,-3.3124,-3.3124,-3.3124,-3.3124,-3.3124,-3.3124,-3.3124,-3.3124,-3.3124,-3.3124,-3.3124,-3.3124,-3.3124,-3.3124,-3.3124,-3.3124,-3.3124,-3.3124,-3.3124,-2.6269,-2.5906,-2.5397,-2.492,-2.4447,-2.4373,-2.5403,-2.5716,-2.5989,-2.6713,-2.721,-2.749,-2.749,-2.749,-2.749,-2.749,-2.8124,-2.8773,-2.9209,-2.9876,-3.049,-3.0934,-3.0986,-3.0986,-3.0986,-3.0986,-3.0986,-3.0986,-3.0986,-3.0986,-3.0986,-3.0986,-3.0986,-3.0986,-3.0986,-3.0986,-3.0986,-3.0986,-3.0986,-3.0986,-3.0986,-3.0986,-3.0986,-3.1117,-3.1483,-3.2006,-3.2489,-3.2764,-3.2881,-3.2881,-3.3234,-3.3757,-3.3757,-3.4018,-3.4397,-3.4397,-3.4397,-3.4397,-3.4397,-3.4397,-3.4397,-3.4397,-3.4397,-3.4397,-3.4397,-3.4397,-3.4397,-3.4397,-3.4397,-3.4397,-3.4397,-3.4397,-3.4397,-3.4397,-3.4397,-3.4397,-3.4397,-3.4356,-3.4356,-3.4356,-3.4272,-3.4272,-3.4272,-3.4105,-3.3937,-3.3725,-3.367,-3.3598,-3.3441,-3.3356,-3.327,-3.3124,-3.3124,-3.3124,-3.3124,-3.3124,-3.3124,-3.3124,-3.3124,-3.3124,-3.3124,-3.3124,-3.3124,-3.3124,-3.3124,-3.3124,-3.3124,-3.3124,-3.3124,-3.3124,-3.3124,-3.3124,-2.6493,-2.6027,-2.5453,-2.509,0.0,-2.5059,-2.5657,-2.6029,-2.6326,-2.6631,-2.713,-2.749,-2.749,-2.749,-2.749,-2.749,-2.8007,-2.8525,-2.8839,-2.9588,-3.0218,-3.0542,-3.0817,-3.0986,-3.0986,-3.0986,-3.0986,-3.0986,-3.0986,-3.0986,-3.0986,-3.0986,-3.0986,-3.0986,-3.0986,-3.0986,-3.0986,-3.0986,-3.0986,-3.0986,-3.0986,-3.0986,-3.0986,-3.0986,-3.1143,-3.1444,-3.1744,-3.2032,-3.228,-3.228,-3.2633,-3.3156,-3.3156,-3.3509,-3.4018,-3.4018,-3.4175,-3.4397,-3.4397,-3.4397,-3.4397,-3.4397,-3.4397,-3.4397,-3.4397,-3.4397,-3.4397,-3.4397,-3.4397,-3.4397,-3.4397,-3.4397,-3.4397,-3.4397,-3.4397,-3.4397,-3.4397,-3.4397,-3.4397,-3.4397,-3.4397,-3.4397,-3.4397,-3.4314,-3.4189,-3.4063,-3.3937,-3.3852,-3.3738,-3.3598,-3.3471,-3.3283,-3.324,-3.3197,-3.3124,-3.3124,-3.3124,-3.3124,-3.3124,-3.3124,-3.3124,-3.3124,-3.3124,-3.3124,-3.3124,-3.3124,-3.3124,-3.3124,-3.3124,-3.3124,-3.3124,-3.3124,-2.6479,-2.5945,-2.5481,-2.5453,-2.5646,0.0,-2.5933,-2.6437,-2.6889,-2.6889,-2.7227,-2.749,-2.749,-2.749,-2.749,-2.749,-2.7928,-2.8268,-2.8407,-2.9222,-2.9865,-3.0074,-3.0555,-3.0882,-3.0973,-3.0986,-3.0986,-3.0986,-3.0986,-3.0986,-3.0986,-3.0986,-3.0986,-3.0986,-3.0986,-3.0986,-3.0986,-3.0986,-3.0986,-3.0986,-3.0986,-3.0986,-3.0986,-3.0986,-3.0986,-3.0986,-3.0986,-3.1248,-3.1654,-3.1654,-3.1993,-3.2542,-3.2542,-3.2908,-3.343,-3.343,-3.3718,-3.4123,-3.4228,-3.4254,-3.428,-3.4371,-3.4397,-3.4397,-3.4397,-3.4397,-3.4397,-3.4397,-3.4397,-3.4397,-3.4397,-3.4397,-3.4397,-3.4397,-3.4397,-3.4397,-3.4397,-3.4397,-3.4397,-3.4397,-3.4397,-3.4397,-3.4397,-3.4397,-3.4397,-3.4397,-3.4285,-3.416,-3.4118,-3.3907,-3.3683,-3.3471,-3.3441,-3.3356,-3.3154,-3.3154,-3.3154,-3.3124,-3.3124,-3.3124,-3.3124,-3.3124,-3.3124,-3.3124,-3.3124,-3.3124,-3.3124,-3.3124,-3.3124,-3.3124,-3.3124,-3.3124,-2.786,-2.7302,-2.6771,0.0,-2.6522,-2.5933,0.0,0.0,-2.7561,0.0,-2.7548,-2.749,-2.749,-2.749,-2.749,-2.749,-2.7555,-2.7811,-2.8307,-2.8551,-2.8987,-2.997,-3.0166,-3.0451,-3.0934,-3.0986,-3.0986,-3.0986,-3.0986,-3.0986,-3.0986,-3.0986,-3.0986,-3.0986,-3.0986,-3.0986,-3.0986,-3.0986,-3.0986,-3.0986,-3.0986,-3.0986,-3.0986,-3.0986,-3.0986,-3.0986,-3.0986,-3.1026,-3.1104,-3.1104,-3.1431,-3.1915,-3.1915,-3.2306,-3.2816,-3.2816,-3.2855,-3.2999,-3.3522,-3.3705,-3.3783,-3.4241,-3.4397,-3.4397,-3.4397,-3.4397,-3.4397,-3.4397,-3.4397,-3.4397,-3.4397,-3.4397,-3.4397,-3.4397,-3.4397,-3.4397,-3.4397,-3.4397,-3.4397,-3.4397,-3.4397,-3.4397,-3.4397,-3.4397,-3.4397,-3.4397,-3.4397,-3.4314,-3.4118,-3.4076,-3.3949,-3.3683,-3.367,-3.3598,-3.3398,-3.3356,-3.3283,-3.3124,-3.3124,-3.3124,-3.3124,-3.3124,-3.3124,-3.3124,-3.3124,-3.3124,-3.3124,-3.3124,-3.3124,-3.3124,-3.3124,-3.3124,-2.777,-2.7545,-2.7367,0.0,-2.6993,-2.6878,-2.7137,-2.7418,-2.7754,-2.814,-2.8124,-2.8189,-2.8547,-2.8306,-2.8072,-2.8072,-2.7756,-2.7581,-2.7863,-2.8177,-2.8569,-2.9091,-2.9457,-2.9876,-3.0451,-3.0516,-3.0647,-3.096,-3.0986,-3.0986,-3.0986,-3.0986,-3.0986,-3.0986,-3.0986,-3.0986,-3.0986,-3.0986,-3.0986,-3.0986,-3.0986,-3.0986,-3.0986,-3.0986,-3.0986,-3.0986,-3.0986,-3.0986,-3.0986,-3.0986,-3.113,-3.1365,-3.1365,-3.1705,-3.2215,-3.2215,-3.2411,-3.2725,-3.2999,-3.3091,-3.3182,-3.3757,-3.3953,-3.4005,-3.4306,-3.4397,-3.4397,-3.4397,-3.4397,-3.4397,-3.4397,-3.4397,-3.4397,-3.4397,-3.4397,-3.4397,-3.4397,-3.4397,-3.4397,-3.4397,-3.4397,-3.4397,-3.4397,-3.4397,-3.4397,-3.4397,-3.4397,-3.4356,-3.4272,-3.4285,-3.4189,-3.3937,-3.3937,-3.381,-3.3598,-3.3484,-3.3356,-3.3283,-3.3154,-3.3124,-3.3124,-3.3124,-3.3124,-3.3124,-3.3124,-3.3124,-3.3124,-3.3124,-3.3124,-3.3124,-3.3124,-3.3124,-2.768,0.0,-2.7775,-2.7265,-2.7433,-2.7675,0.0,0.0,-2.8086,0.0,-2.8944,-2.9194,-2.9897,-2.93,-2.8744,-2.8744,-2.8189,-2.7809,-2.7993,-2.8245,-2.8543,-2.8892,-2.9146,-2.9557,-3.0102,-2.9987,-3.0098,-3.0516,-3.0686,-3.0764,-3.0764,-3.0908,-3.0986,-3.0986,-3.0986,-3.0986,-3.0986,-3.0986,-3.0986,-3.0986,-3.0986,-3.0986,-3.0986,-3.0986,-3.1086,-3.1259,-3.1259,-3.1408,-3.1542,-3.1542,-3.1445,-3.1259,-3.1259,-3.1423,-3.1588,-3.1588,-3.1888,-3.228,-3.2424,-3.2476,-3.2568,-3.3169,-3.3365,-3.347,-3.4018,-3.4188,-3.4228,-3.4358,-3.4397,-3.4397,-3.4397,-3.4397,-3.4397,-3.4397,-3.4397,-3.4397,-3.4397,-3.4397,-3.4397,-3.4397,-3.4397,-3.4397,-3.4397,-3.4397,-3.4397,-3.4397,-3.4397,-3.4397,-3.4397,-3.4397,-3.4356,-3.4202,-3.4202,-3.4076,-3.381,-3.3641,-3.3569,-3.3471,-3.3283,-3.3197,-3.3197,-3.3111,-3.3124,-3.3124,-3.3124,-3.3124,-3.3124,-3.3124,-3.3124,-3.3124,-3.3124,-3.3124,-2.821,-2.8162,0.0,-2.7815,-2.788,-2.7905,0.0,0.0,-2.8888,-2.9445,-3.0018,-3.0589,-3.1275,-3.0329,-2.9442,-2.9442,-2.8903,-2.8661,-2.93,-2.8867,-2.892,-3.0146,-2.9753,-2.9626,-3.0248,-2.9689,-2.934,-2.9401,-2.9876,-3.014,-3.014,-3.0699,-3.0986,-3.0986,-3.0986,-3.0986,-3.0986,-3.0986,-3.0986,-3.0986,-3.0986,-3.0986,-3.0986,-3.0986,-3.1394,-3.2051,-3.2051,-3.2448,-3.3087,-3.3087,-3.2684,-3.2051,-3.2051,-3.1616,-3.1026,-3.1026,-3.1052,-3.1156,-3.1654,-3.185,-3.1941,-3.2555,-3.2738,-3.2855,-3.3443,-3.3639,-3.3744,-3.4254,-3.4397,-3.4397,-3.4397,-3.4397,-3.4397,-3.4397,-3.4397,-3.4397,-3.4397,-3.4397,-3.4397,-3.4397,-3.4397,-3.4397,-3.4397,-3.4397,-3.4397,-3.4397,-3.4397,-3.4397,-3.4397,-3.4397,-3.4397,-3.4397,-3.4397,-3.4314,-3.4118,-3.4076,-3.3949,-3.3713,-3.3513,-3.3398,-3.3398,-3.3197,-3.3124,-3.3124,-3.3124,-3.3124,-3.3124,-3.3124,-3.3124,-3.3124,-3.3124,-3.3124,0.0,0.0,0.0,-2.8088,-2.8029,-2.7955,-2.788,-2.7996,-2.8358,-2.9078,-2.9594,-3.0173,-3.1028,-3.0602,-3.0133,-3.0133,-2.958,-2.9237,-2.9473,-2.93,-2.932,-2.9764,-2.9603,-2.9693,-3.0297,-3.0154,-2.9997,-2.9958,-3.0116,-3.0025,-2.9624,-3.0124,-3.0438,-3.0438,-3.079,-3.0986,-3.0986,-3.0986,-3.0986,-3.0986,-3.0986,-3.0986,-3.0986,-3.0986,-3.164,-3.2791,-3.2791,-3.2967,-3.3178,-3.3178,-3.3038,-3.2791,-3.2791,-3.2376,-3.1713,-3.1713,-3.1394,-3.1013,-3.1222,-3.13,-3.1454,-3.2541,-3.2881,-3.3102,-3.4142,-3.4421,-3.4442,-3.454,-3.4594,-3.4566,-3.4417,-3.4397,-3.4397,-3.4397,-3.4397,-3.4397,-3.4397,-3.4397,-3.4397,-3.4397,-3.4397,-3.4397,-3.4397,-3.4397,-3.4397,-3.4397,-3.4397,-3.4397,-3.4397,-3.4397,-3.4397,-3.4397,-3.4397,-3.4356,-3.4314,-3.416,-3.4076,-3.3937,-3.3725,-3.3598,-3.3598,-3.3513,-3.3441,-3.3313,-3.3283,-3.324,-3.3124,-3.3124,-3.3124,-3.3124,-3.3124,-3.3124,-2.8411,0.0,0.0,0.0,-2.8177,-2.8103,-2.8005,-2.798,-2.8137,-2.8844,-2.938,-2.9991,-3.0846,-3.0989,-3.0984,-3.0925,-3.0329,-2.9919,-3.0133,-2.9981,-2.9919,-3.0133,-2.9981,-2.9998,-3.0392,-3.0246,-3.0062,-3.0033,-3.0233,0.0,-2.9379,-2.9865,-3.0145,-3.0087,-3.0503,-3.079,-3.0986,-3.0986,-3.0986,-3.0986,-3.1259,-3.1371,-3.1371,-3.1616,-3.2412,-3.3561,-3.3561,-3.3713,-3.3968,-3.3968,-3.3817,-3.3561,-3.3561,-3.3108,-3.247,-3.247,-3.216,-3.1763,-3.1763,-3.1763,-3.189,-3.2782,-3.3065,-3.3248,-3.4306,-3.4635,-3.465,-3.4747,-3.4785,-3.4792,-3.4888,-3.4872,-3.484,-3.484,-3.4592,-3.4397,-3.4397,-3.4397,-3.4397,-3.4397,-3.4397,-3.4397,-3.4397,-3.4397,-3.4397,-3.4397,-3.4397,-3.4397,-3.4397,-3.4397,-3.4397,-3.4397,-3.4397,-3.4397,-3.4397,-3.4272,-3.4202,-3.4202,-3.3979,-3.3852,-3.3852,-3.3755,-3.3641,-3.3513,-3.3441,-3.3313,-3.3197,-3.3111,-3.3124,-3.3124,-3.3124,-3.3124,0.0,0.0,0.0,0.0,0.0,0.0,-2.8054,0.0,-2.8345,-2.8865,-2.9507,-3.0175,-3.087,-3.1511,-3.1953,-3.1841,-3.1087,-3.0777,-3.1409,-3.097,-3.0777,-3.1438,-3.0925,-3.0524,-3.0554,-2.995,-2.9566,-2.9535,-3.008,-3.0109,-2.9434,-2.9964,-3.0261,-3.0121,-3.016,-3.0435,-3.1022,-3.1048,-3.1048,-3.1048,-3.1773,-3.211,-3.2146,-3.2861,-3.3596,-3.4312,-3.4312,-3.4758,-3.5504,-3.5504,-3.5052,-3.4346,-3.4346,-3.3871,-3.3213,-3.3213,-3.3213,-3.3178,-3.3213,-3.3178,-3.3178,-3.3213,-3.3248,-3.3361,-3.3965,-3.4148,-3.4239,-3.4769,-3.4915,-3.5055,-3.5709,-3.5797,-3.5722,-3.5722,-3.506,-3.4468,-3.4468,-3.4468,-3.4481,-3.4397,-3.4397,-3.4397,-3.4397,-3.4397,-3.4397,-3.4397,-3.4397,-3.4397,-3.4397,-3.4397,-3.4397,-3.4397,-3.4397,-3.4397,-3.4397,-3.4397,-3.4397,-3.4397,-3.4243,-3.4118,-3.4118,-3.3852,-3.3725,-3.3713,-3.3513,-3.3398,-3.3398,-3.3197,-3.3124,-3.3124,-3.3124,-3.3124,-2.8411,0.0,0.0,0.0,0.0,0.0,0.0,0.0,-2.8272,-2.852,-2.8936,-2.9544,-3.0398,-3.0963,-3.1463,-3.199,-3.1796,-3.1653,-3.1855,-3.1611,-3.1511,-3.1698,-3.1409,-3.1278,-3.1438,-3.1278,-3.097,0.0,-3.0669,-3.0452,-2.9519,-3.0021,-3.056,-3.0966,-3.1392,-3.1708,-3.1873,-3.2335,-3.2591,-3.2591,-3.2791,-3.2897,-3.2897,-3.3108,-3.3596,-3.4312,-3.4312,-3.4758,-3.5504,-3.5504,-3.5359,-3.5166,-3.5166,-3.4691,-3.4007,-3.4007,-3.3665,-3.3213,-3.3367,-3.3332,-3.3318,-3.3973,-3.4109,-3.4153,-3.4892,-3.51,-3.5116,-3.5128,-3.5124,-3.5125,-3.5189,-3.5505,-3.5836,-3.5836,-3.6027,-3.6227,-3.6227,-3.6227,-3.5829,-3.4634,-3.4397,-3.4397,-3.4397,-3.4397,-3.4397,-3.4397,-3.4397,-3.4397,-3.4397,-3.4397,-3.4397,-3.4397,-3.4397,-3.4397,-3.4397,-3.4397,-3.4397,-3.4397,-3.4356,-3.4314,-3.4314,-3.423,-3.4147,-3.3992,-3.3725,-3.3556,-3.3398,-3.3197,-3.3124,-3.3124,-3.3124,-3.3124,0.0,0.0,0.0,0.0,0.0,0.0,-2.8549,-2.8462,-2.8405,0.0,-2.8811,-2.9424,-3.0253,-3.0807,-3.1411,-3.2167,-3.2219,-3.2122,-3.2025,-3.194,-3.1898,-3.1898,-3.1769,-3.1769,-3.187,-3.1898,-3.1712,-3.1321,-3.1364,-3.1043,-3.0179,-3.0151,-3.0411,-3.0998,-3.1278,-3.1567,-3.182,-3.2456,-3.2765,-3.2799,-3.3364,-3.3665,-3.3665,-3.4075,-3.448,-3.4894,-3.496,-3.5219,-3.5572,-3.5572,-3.5554,-3.5504,-3.5504,-3.5198,-3.4791,-3.4791,-3.4524,-3.4187,-3.4288,-3.4254,-3.4254,-3.4806,-3.4905,-3.4905,-3.5359,-3.5504,-3.5481,-3.5358,-3.5551,-3.5727,-3.5623,-3.5812,-3.6105,-3.6362,-3.6476,-3.6571,-3.6824,-3.688,-3.6503,-3.5182,-3.495,-3.484,-3.4481,-3.4397,-3.4397,-3.4397,-3.4397,-3.4397,-3.4397,-3.4397,-3.4397,-3.4397,-3.4397,-3.4397,-3.4397,-3.4397,-3.4397,-3.4397,-3.4397,-3.4397,-3.4397,-3.4397,-3.4356,-3.4243,-3.3894,-3.3556,-3.3283,-3.3154,-3.3124,-3.3124,-3.3124,-3.3124,0.0,0.0,0.0,0.0,0.0,0.0,-2.8795,-2.8732,-2.87,0.0,-2.8947,-2.9579,-3.0258,-3.0906,-3.1585,-3.2222,-3.2407,-3.2358,-3.2066,-3.2038,-3.2025,-3.2025,-3.2025,-3.2025,-3.2025,-3.2025,-3.2025,-3.2025,-3.2025,-3.1739,-3.116,-3.0435,-3.0254,-3.0748,-3.0704,-3.092,-3.1471,-3.206,-3.2433,-3.2537,-3.3768,-3.4389,-3.4514,-3.5335,-3.572,-3.5752,-3.5926,-3.5894,-3.572,-3.572,-3.5653,-3.5504,-3.5504,-3.5504,-3.5504,-3.5504,-3.5504,-3.5504,-3.5537,-3.5504,-3.5504,-3.5537,-3.5504,-3.5504,-3.5504,-3.5504,-3.5504,-3.5504,-3.5923,-3.6372,-3.6372,-3.6296,-3.6372,-3.6975,-3.6587,-3.6264,-3.6925,-3.7052,-3.6849,-3.6122,-3.5896,-3.5588,-3.4827,-3.4675,-3.4675,-3.4675,-3.4675,-3.4675,-3.4675,-3.4592,-3.4551,-3.4551,-3.4481,-3.4397,-3.4397,-3.4397,-3.4397,-3.4397,-3.4397,-3.4397,-3.4397,-3.4397,-3.4397,-3.4397,-3.3937,-3.3513,-3.3111,-3.3124,-3.3124,-3.3124,-3.3124,-3.3124,0.0,0.0,0.0,0.0,0.0,0.0,-2.9029,-2.9029,-2.9006,0.0,-2.9085,-2.9368,-3.0027,-3.075,-3.1381,-3.1846,-3.2427,-3.2691,-3.2385,-3.2219,-3.2163,-3.2163,-3.2066,-3.2038,-3.2135,-3.2163,-3.2163,-3.2163,-3.2066,-3.1981,-3.1951,-3.1695,-3.1612,-3.1718,-3.208,-3.2378,-3.2677,-3.3152,-3.3748,-3.4442,-3.456,-3.5,-3.5655,-3.5688,-3.5799,-3.5941,-3.5973,-3.5973,-3.5941,-3.5941,-3.5765,-3.5504,-3.5504,-3.5504,-3.5504,-3.5504,-3.5504,-3.5537,-3.5621,-3.5604,-3.5537,-3.5621,-3.5604,-3.5504,-3.5504,-3.5504,-3.5504,-3.5504,-3.5594,-3.5699,-3.5699,-3.6078,-3.6484,-3.6618,-3.6882,-3.7296,-3.7946,-3.8115,-3.8025,-3.7771,-3.7155,-3.6621,-3.6464,-3.6425,-3.6425,-3.6425,-3.6425,-3.6425,-3.6425,-3.5856,-3.5467,-3.5467,-3.484,-3.4397,-3.4397,-3.4397,-3.4397,-3.4397,-3.4397,-3.4397,-3.4397,-3.4397,-3.4397,-3.4397,-3.3937,-3.3598,-3.3356,-3.3197,-3.3124,-3.3124,-3.3124,-3.3124,0.0,0.0,0.0,-2.9328,0.0,0.0,0.0,-2.9305,-2.9259,-2.9121,-2.9098,-2.9304,-2.9967,-3.0393,-3.0944,-3.1856,-3.2212,-3.2476,-3.2803,-3.2535,-3.2287,-3.2287,-3.2247,-3.2219,-3.2287,-3.2287,-3.2287,-3.2287,-3.2247,-3.2219,-3.2302,-3.2163,-3.2094,-3.2094,-3.2272,-3.2396,-3.2497,-3.3062,-3.3562,-3.403,-3.4576,-3.506,-3.5519,-3.5806,-3.6006,-3.6116,-3.6195,-3.6195,-3.6085,-3.6085,-3.5973,-3.5733,-3.5733,-3.5651,-3.5504,-3.5572,-3.5554,-3.5504,-3.5572,-3.5554,-3.5537,-3.5671,-3.5621,-3.5504,-3.5572,-3.5539,-3.5504,-3.5504,-3.5504,-3.5504,-3.5504,-3.5744,-3.6088,-3.6417,-3.6731,-3.712,-3.7764,-3.8153,-3.8376,-3.8309,-3.8215,-3.7866,-3.7035,-3.688,-3.688,-3.688,-3.688,-3.688,-3.688,-3.6543,-3.6122,-3.5736,-3.5305,-3.4868,-3.4439,-3.4397,-3.4397,-3.4397,-3.4397,-3.4397,-3.4397,-3.4397,-3.4356,-3.4243,-3.4021,-3.3768,-3.3556,-3.3441,-3.3313,-3.3124,-3.3124,-3.3124,0.0,0.0,0.0,0.0,0.0,-2.9836,0.0,0.0,0.0,-2.9305,-2.9236,0.0,0.0,0.0,0.0,0.0,0.0,0.0,0.0,-3.258,0.0,-3.2547,-3.248,-3.2425,-3.2496,-3.2496,-3.2453,-3.2398,-3.2453,-3.2453,-3.2398,-3.2287,-3.2247,-3.2247,-3.2122,-3.2038,-3.2066,-3.2585,-3.2904,-3.3086,-3.4166,-3.482,-3.5125,-3.5737,-3.612,-3.6274,-3.6414,-3.6414,-3.6274,-3.6274,-3.6179,-3.6037,-3.6005,-3.5797,-3.5554,-3.5671,-3.5621,-3.5504,-3.5504,-3.5504,-3.5537,-3.5621,-3.5604,-3.5537,-3.5671,-3.5604,-3.5504,-3.5522,-3.5537,-3.5504,-3.5504,-3.5504,-3.5639,-3.6178,-3.6297,-3.6477,-3.709,-3.7644,-3.8093,-3.8347,-3.8841,-3.8832,-3.7572,-3.7396,-3.7396,-3.7396,-3.7396,-3.7319,-3.7165,-3.6996,-3.6582,-3.579,-3.5548,-3.5155,-3.4481,-3.4397,-3.4397,-3.4397,-3.4397,-3.4397,-3.4397,-3.4397,-3.4314,-3.416,-3.4118,-3.3992,-3.3768,-3.3725,-3.3513,-3.3154,-3.3154,-3.3154,0.0,0.0,0.0,0.0,-2.9896,0.0,-2.9858,0.0,-2.9852,-2.983,0.0,0.0,0.0,0.0,0.0,0.0,0.0,0.0,-3.1372,-3.1848,-3.2468,-3.3124,-3.2742,-3.2523,-3.2816,-3.2843,-3.2718,-3.2425,-3.2676,-3.2718,-3.2425,-3.2398,-3.237,-3.237,-3.2247,-3.2247,-3.2342,-3.2323,-3.266,-3.3341,-3.341,-3.4115,-3.5461,-3.5355,-3.5753,-3.646,-3.6492,-3.6492,-3.646,-3.646,-3.6352,-3.6179,-3.6068,-3.5863,-3.5688,-3.5688,-3.5621,-3.5504,-3.5504,-3.5504,-3.5504,-3.5537,-3.5504,-3.5537,-3.5671,-3.5604,-3.5522,-3.5638,-3.5604,-3.5504,-3.5504,-3.5504,-3.5534,-3.5609,-3.5609,-3.5804,-3.6447,-3.6656,-3.703,-3.8167,-3.8452,-3.8656,-3.9037,-3.9104,-3.9104,-3.9104,-3.9104,-3.887,-3.815,-3.7372,-3.6582,-3.579,-3.4991,-3.4522,-3.4397,-3.4397,-3.4397,-3.4397,-3.4397,-3.4397,-3.4397,-3.4397,-3.4397,-3.4356,-3.4202,-3.4076,-3.4034,-3.381,-3.3598,-3.3356,-3.3356,-3.3283,0.0,0.0,0.0,0.0,0.0,0.0,-2.9896,0.0,-2.9896,0.0,0.0,0.0,0.0,0.0,0.0,0.0,-3.0869,0.0,0.0,0.0,-3.1836,0.0,0.0,0.0,-3.2897,-3.2897,-3.2746,-3.2425,-3.2718,-3.2746,-3.2425,-3.2398,-3.2398,-3.2398,-3.2342,-3.2342,-3.2398,-3.2342,-3.2496,-3.2813,-3.3172,-3.3664,-3.4306,-3.5046,-3.5569,-3.5922,-3.6322,-3.6492,-3.6492,-3.6492,-3.646,-3.6383,-3.632,-3.6132,-3.5863,-3.5863,-3.5767,-3.5621,-3.5621,-3.5621,-3.5621,-3.5621,-3.5701,-3.5797,-3.5735,-3.5604,-3.5554,-3.5814,-3.5701,-3.5537,-3.5604,-3.5554,-3.5504,-3.5504,-3.5504,-3.5579,-3.5863,-3.6222,-3.6641,-3.718,-3.7569,-3.8033,-3.8706,-3.9155,-3.9388,-3.9388,-3.9388,-3.9119,-3.8315,-3.7872,-3.7155,-3.583,-3.5386,-3.495,-3.4439,-3.4397,-3.4397,-3.4397,-3.4397,-3.4397,-3.4397,-3.4397,-3.4397,-3.4397,-3.4314,-3.4285,-3.4285,-3.3835,-3.3459,-3.3113,-3.3331,-3.3093,-2.9896,0.0,0.0,0.0,0.0,0.0,0.0,0.0,0.0,0.0,0.0,0.0,0.0,0.0,-3.0058,-3.0554,0.0,-3.0592,0.0,-3.1206,0.0,0.0,0.0,0.0,0.0,-3.3085,-3.2962,-3.2578,-3.2827,-3.2827,-3.2425,-3.2398,-3.2398,-3.2398,-3.2398,-3.2398,-3.2398,-3.2398,-3.2398,-3.2398,-3.289,-3.3229,-3.3444,-3.466,-3.5337,-3.5552,-3.6199,-3.6492,-3.6492,-3.6492,-3.6492,-3.6492,-3.6492,-3.6367,-3.6132,-3.6068,-3.5926,-3.5784,-3.5784,-3.5752,-3.5688,-3.5688,-3.5799,-3.5894,-3.5847,-3.575,-3.5683,-3.5973,-3.5861,-3.5651,-3.5703,-3.5621,-3.5554,-3.5504,-3.5504,-3.5504,-3.5504,-3.5878,-3.6267,-3.6447,-3.6851,-3.736,-3.8003,-3.8691,-3.92,-3.9358,-3.9388,-3.9119,-3.8315,-3.8202,-3.7644,-3.6162,-3.6042,-3.5696,-3.484,-3.4758,-3.4634,-3.4439,-3.4397,-3.4397,-3.4397,-3.4397,-3.4397,-3.4397,-3.4254,-3.4175,-3.4175,-3.3613,-3.3136,-3.2675,-3.2918,-3.2672,0.0,0.0,0.0,-2.9896,0.0,0.0,0.0,0.0,-2.9896,0.0,0.0,0.0,0.0,-2.9896,-2.9896,-2.9913,-2.9913,0.0,0.0,0.0,0.0,0.0,0.0,0.0,0.0,-3.3529,-3.345,-3.2924,-3.3123,-3.3027,-3.2425,-3.2398,-3.2398,-3.2398,-3.2398,-3.2398,-3.2398,-3.2398,-3.2398,-3.2398,-3.2413,-3.2767,-3.3429,-3.4197,-3.489,-3.5552,-3.6199,-3.6492,-3.6492,-3.6492,-3.6492,-3.6492,-3.6492,-3.6492,-3.646,-3.6274,-3.6116,-3.6005,-3.6005,-3.5863,-3.5688,-3.5688,-3.5688,-3.5784,-3.6085,-3.6085,-3.6005,-3.6148,-3.6085,-3.5941,-3.5752,-3.5688,-3.5671,-3.5522,-3.5504,-3.5504,-3.5504,-3.5519,-3.5729,-3.6357,-3.6507,-3.6716,-3.733,-3.7988,-3.8646,-3.932,-3.9388,-3.9119,-3.8315,-3.8202,-3.7872,-3.6972,-3.6841,-3.6543,-3.5749,-3.5669,-3.5305,-3.4439,-3.4397,-3.4397,-3.4397,-3.4397,-3.4397,-3.4397,-3.3888,-3.3626,-3.3613,-3.3012,-3.2526,-3.2111,-3.2137,-3.1868,0.0,0.0,-2.9896,-2.9896,0.0,0.0,0.0,0.0,0.0,0.0,0.0,0.0,0.0,-2.9896,-2.9896,-2.9896,-2.9896,-2.9896,0.0,0.0,0.0,0.0,0.0,0.0,0.0,0.0,-3.3555,-3.3203,-3.3256,-3.315,-3.2746,-3.2523,-3.2398,-3.2398,-3.2398,-3.2398,-3.2398,-3.2398,-3.2398,-3.2398,-3.2398,-3.2521,-3.2752,-3.346,-3.4152,-3.489,-3.5568,-3.6076,-3.6492,-3.6492,-3.6492,-3.6492,-3.6492,-3.6492,-3.6492,-3.6274,-3.6179,-3.6148,-3.6148,-3.6179,-3.6226,-3.607,-3.6038,-3.6038,-3.6179,-3.6116,-3.6068,-3.632,-3.6195,-3.6005,-3.6022,-3.5879,-3.5688,-3.5638,-3.5572,-3.5504,-3.5504,-3.5504,-3.5564,-3.5789,-3.5833,-3.6043,-3.6686,-3.6985,-3.7494,-3.8571,-3.9125,-3.9119,-3.8315,-3.8202,-3.7872,-3.6996,-3.688,-3.6802,-3.6503,-3.6016,-3.5588,-3.5264,-3.4716,-3.4397,-3.4397,-3.4058,-3.3862,-3.3862,-3.33,-3.2999,-3.2999,-3.2411,-3.1967,-3.168,-3.1332,-3.1045,-2.9896,-2.9896,0.0,-2.9896,-2.9896,0.0,-2.9896,0.0,-2.9896,0.0,0.0,0.0,0.0,0.0,-2.9896,-2.9896,-2.9896,-2.9902,0.0,-2.9973,0.0,0.0,0.0,0.0,0.0,0.0,-3.3463,-3.3435,-3.345,-3.3266,0.0,-3.2784,-3.2617,-3.2425,-3.2523,-3.2523,-3.2398,-3.2398,-3.2398,-3.2398,-3.2398,-3.2398,-3.2413,-3.309,-3.3798,-3.4536,-3.5213,-3.5891,-3.6492,-3.6492,-3.6492,-3.6492,-3.6492,-3.6492,-3.6492,-3.6352,-3.6305,-3.6305,-3.6211,-3.6274,-3.6383,-3.6242,-3.6196,-3.6211,-3.6274,-3.6258,-3.6226,-3.6429,-3.6336,-3.6195,-3.6211,-3.6038,-3.5847,-3.572,-3.5638,-3.5554,-3.5504,-3.5504,-3.5504,-3.5504,-3.5504,-3.5639,-3.6073,-3.6327,-3.6836,-3.7883,-3.8616,-3.8871,-3.8333,-3.8465,-3.8412,-3.7843,-3.7791,-3.7677,-3.7372,-3.632,-3.5709,-3.5709,-3.4868,-3.4306,-3.4123,-3.3783,-3.3587,-3.3587,-3.2803,-3.2489,-3.2685,-3.1914,-3.1421,-3.1203,-3.0853,-3.0624]},{"header":{"parameterUnit":"m.s-1","parameterCategory":1,"la1":30.6,"la2":29.2853,"lo1":-89.7004,"lo2":-87.6739,"dy":0.0162,"dx":0.0183,"nx":112,"ny":82,"refTime":"2023-08-28T06:00:00:Z","depth":0,"parameterNumber":3,"parameterNumberName":"V-component_of_WINDS"},"data":[0.0,0.0,0.0,0.0,0.0,0.0,0.0,0.0,0.0,0.0,0.0,0.0,0.0,0.0,0.0,0.0,0.0,0.0,0.0,0.0,0.0,0.0,0.0,0.0,0.0,0.0,0.0,0.0,0.0,0.0,0.0,0.0,0.0,0.0,0.0,0.0,0.0,0.0,0.0,0.0,0.0,0.0,0.0,0.0,0.0,0.0,0.0,0.0,0.0,0.0,0.0,0.0,0.0,0.0,0.0,0.0,0.0,0.0,0.0,0.0,0.0,0.0,0.0,0.0,0.0,0.0,0.0,0.0,0.0,0.0,0.0,0.0,0.0,0.0,0.0,0.0,0.0,0.0,0.0,0.0,0.0,0.0,0.0,0.0,0.0,0.0,0.0,0.0,0.0,0.0,3.5704,3.5704,3.5704,3.5704,3.5704,3.5704,3.5692,3.5704,0.0,0.0,0.0,0.0,0.0,0.0,0.0,0.0,0.0,0.0,0.0,0.0,0.0,0.0,0.0,0.0,0.0,0.0,0.0,0.0,0.0,0.0,0.0,0.0,0.0,0.0,0.0,0.0,0.0,0.0,0.0,0.0,0.0,0.0,0.0,0.0,0.0,0.0,0.0,0.0,0.0,0.0,0.0,0.0,0.0,0.0,0.0,0.0,0.0,0.0,0.0,0.0,0.0,0.0,0.0,0.0,0.0,0.0,0.0,0.0,0.0,0.0,0.0,0.0,0.0,0.0,0.0,0.0,0.0,0.0,0.0,0.0,0.0,0.0,0.0,0.0,0.0,0.0,0.0,0.0,0.0,0.0,0.0,0.0,0.0,0.0,0.0,0.0,0.0,0.0,0.0,0.0,0.0,0.0,0.0,0.0,0.0,0.0,0.0,0.0,0.0,0.0,0.0,0.0,3.5704,3.5704,3.5704,3.5704,3.5704,3.5704,3.5692,3.5704,0.0,0.0,0.0,0.0,0.0,0.0,0.0,0.0,0.0,0.0,0.0,0.0,0.0,0.0,0.0,0.0,0.0,0.0,0.0,0.0,0.0,0.0,0.0,0.0,0.0,0.0,0.0,0.0,0.0,0.0,0.0,0.0,0.0,0.0,0.0,0.0,0.0,0.0,0.0,0.0,0.0,0.0,0.0,0.0,0.0,0.0,0.0,0.0,0.0,0.0,0.0,0.0,0.0,0.0,0.0,0.0,0.0,0.0,0.0,0.0,0.0,0.0,0.0,0.0,0.0,0.0,0.0,0.0,0.0,0.0,0.0,0.0,0.0,0.0,0.0,0.0,0.0,0.0,0.0,0.0,0.0,0.0,0.0,0.0,0.0,0.0,0.0,0.0,0.0,0.0,0.0,0.0,0.0,0.0,0.0,0.0,0.0,0.0,0.0,0.0,0.0,0.0,0.0,3.5704,3.5704,3.5704,3.5704,3.5704,3.5704,3.5704,3.5692,3.5704,3.5355,0.0,0.0,0.0,0.0,0.0,0.0,0.0,0.0,0.0,0.0,0.0,0.0,0.0,0.0,0.0,0.0,0.0,0.0,0.0,0.0,0.0,0.0,0.0,0.0,0.0,0.0,0.0,0.0,0.0,0.0,0.0,0.0,0.0,0.0,0.0,0.0,0.0,0.0,0.0,0.0,0.0,0.0,0.0,0.0,0.0,0.0,0.0,0.0,0.0,0.0,0.0,0.0,0.0,0.0,0.0,0.0,0.0,0.0,0.0,0.0,0.0,0.0,0.0,0.0,0.0,0.0,0.0,0.0,0.0,0.0,0.0,0.0,0.0,0.0,0.0,0.0,0.0,0.0,0.0,0.0,0.0,0.0,0.0,0.0,0.0,0.0,0.0,0.0,0.0,0.0,0.0,0.0,0.0,0.0,0.0,0.0,0.0,0.0,0.0,0.0,0.0,0.0,3.5559,3.5559,3.5559,3.5608,3.5626,3.5626,3.5673,3.5706,3.5694,3.5704,0.0,0.0,0.0,0.0,0.0,0.0,0.0,0.0,0.0,0.0,0.0,0.0,0.0,0.0,0.0,0.0,0.0,0.0,0.0,0.0,0.0,0.0,0.0,0.0,0.0,0.0,0.0,0.0,0.0,0.0,0.0,0.0,0.0,0.0,0.0,0.0,0.0,0.0,0.0,0.0,0.0,0.0,0.0,0.0,0.0,0.0,0.0,0.0,0.0,0.0,0.0,0.0,0.0,0.0,0.0,0.0,0.0,0.0,0.0,0.0,0.0,0.0,0.0,0.0,0.0,0.0,0.0,0.0,0.0,0.0,0.0,0.0,0.0,0.0,0.0,0.0,0.0,0.0,0.0,0.0,0.0,0.0,0.0,0.0,0.0,0.0,0.0,0.0,0.0,0.0,0.0,0.0,0.0,0.0,0.0,0.0,0.0,0.0,0.0,0.0,0.0,0.0,3.5146,3.5146,3.5146,3.5309,3.5412,3.5412,3.5583,3.5701,3.5707,3.5694,0.0,0.0,0.0,0.0,0.0,0.0,0.0,0.0,0.0,0.0,0.0,0.0,0.0,0.0,0.0,0.0,0.0,0.0,0.0,0.0,0.0,0.0,0.0,0.0,0.0,0.0,0.0,0.0,0.0,0.0,0.0,0.0,0.0,0.0,0.0,0.0,0.0,0.0,0.0,0.0,0.0,0.0,0.0,0.0,0.0,0.0,0.0,0.0,0.0,0.0,0.0,0.0,0.0,0.0,0.0,0.0,0.0,0.0,0.0,0.0,0.0,0.0,0.0,0.0,0.0,0.0,0.0,0.0,0.0,0.0,0.0,0.0,0.0,0.0,0.0,0.0,0.0,0.0,0.0,0.0,0.0,0.0,0.0,0.0,0.0,0.0,0.0,0.0,0.0,0.0,0.0,0.0,0.0,0.0,0.0,0.0,0.0,0.0,0.0,0.0,0.0,0.0,3.5106,3.5146,0.0,3.5345,3.5398,3.5398,3.5577,3.5648,3.5525,0.0,0.0,0.0,0.0,0.0,0.0,0.0,0.0,0.0,0.0,0.0,0.0,0.0,0.0,0.0,0.0,0.0,0.0,0.0,0.0,0.0,0.0,0.0,0.0,0.0,0.0,0.0,0.0,0.0,0.0,0.0,0.0,0.0,0.0,0.0,0.0,0.0,0.0,0.0,0.0,0.0,0.0,0.0,0.0,0.0,0.0,0.0,0.0,0.0,0.0,0.0,0.0,0.0,0.0,0.0,0.0,0.0,0.0,0.0,0.0,0.0,0.0,0.0,0.0,0.0,0.0,0.0,0.0,0.0,0.0,0.0,0.0,0.0,0.0,0.0,0.0,0.0,0.0,0.0,0.0,0.0,0.0,0.0,0.0,0.0,0.0,0.0,0.0,0.0,0.0,0.0,0.0,0.0,0.0,0.0,0.0,0.0,0.0,0.0,0.0,0.0,0.0,3.4934,3.5181,3.5416,0.0,3.582,3.591,3.5641,3.5849,3.5829,3.5419,0.0,0.0,0.0,0.0,0.0,0.0,0.0,0.0,0.0,0.0,0.0,0.0,0.0,0.0,0.0,0.0,0.0,0.0,0.0,0.0,0.0,0.0,0.0,0.0,0.0,0.0,0.0,0.0,0.0,0.0,0.0,0.0,0.0,0.0,0.0,0.0,0.0,0.0,0.0,0.0,0.0,0.0,0.0,0.0,0.0,0.0,0.0,0.0,0.0,0.0,0.0,0.0,0.0,0.0,0.0,0.0,0.0,0.0,0.0,0.0,0.0,0.0,0.0,0.0,0.0,0.0,0.0,0.0,0.0,0.0,0.0,0.0,0.0,0.0,0.0,0.0,0.0,0.0,0.0,0.0,0.0,0.0,0.0,0.0,0.0,0.0,0.0,0.0,0.0,0.0,0.0,0.0,0.0,0.0,0.0,0.0,0.0,0.0,0.0,0.0,0.0,0.0,3.462,3.539,3.5916,3.5916,3.6753,3.6991,3.6177,3.6427,3.6274,0.0,0.0,0.0,0.0,0.0,0.0,0.0,0.0,0.0,0.0,0.0,0.0,0.0,0.0,0.0,0.0,0.0,0.0,0.0,0.0,0.0,0.0,0.0,0.0,0.0,0.0,0.0,0.0,0.0,0.0,0.0,0.0,0.0,0.0,0.0,0.0,0.0,0.0,0.0,0.0,0.0,0.0,0.0,0.0,0.0,0.0,0.0,0.0,0.0,0.0,0.0,0.0,0.0,0.0,0.0,0.0,0.0,0.0,0.0,0.0,0.0,0.0,0.0,0.0,0.0,0.0,0.0,0.0,0.0,0.0,0.0,0.0,0.0,0.0,0.0,0.0,0.0,0.0,0.0,0.0,0.0,0.0,0.0,0.0,0.0,0.0,0.0,0.0,0.0,0.0,0.0,0.0,0.0,0.0,0.0,0.0,0.0,0.0,0.0,0.0,0.0,0.0,0.0,3.6297,3.6487,3.6665,3.6804,3.7057,3.7167,3.7029,3.7184,3.7209,3.6966,0.0,0.0,0.0,0.0,0.0,0.0,0.0,0.0,0.0,0.0,0.0,0.0,0.0,0.0,0.0,0.0,0.0,0.0,0.0,0.0,0.0,0.0,0.0,0.0,0.0,0.0,0.0,0.0,0.0,0.0,0.0,0.0,0.0,0.0,0.0,0.0,0.0,0.0,0.0,0.0,0.0,0.0,0.0,0.0,0.0,0.0,0.0,0.0,0.0,0.0,0.0,0.0,0.0,0.0,0.0,0.0,0.0,0.0,0.0,0.0,0.0,0.0,0.0,0.0,0.0,0.0,0.0,0.0,0.0,0.0,0.0,0.0,0.0,0.0,0.0,0.0,0.0,0.0,0.0,0.0,0.0,0.0,0.0,0.0,0.0,0.0,0.0,0.0,0.0,0.0,0.0,0.0,0.0,0.0,0.0,0.0,0.0,0.0,0.0,0.0,0.0,0.0,3.6992,3.7249,3.7478,3.7619,3.7951,3.8049,3.778,3.7914,3.7852,3.7509,0.0,0.0,0.0,0.0,0.0,0.0,0.0,0.0,0.0,0.0,0.0,0.0,0.0,0.0,0.0,0.0,0.0,0.0,0.0,0.0,0.0,0.0,0.0,0.0,0.0,0.0,0.0,0.0,0.0,0.0,0.0,0.0,0.0,0.0,0.0,0.0,0.0,0.0,0.0,0.0,0.0,0.0,0.0,0.0,0.0,0.0,0.0,0.0,0.0,0.0,0.0,0.0,0.0,0.0,0.0,0.0,0.0,0.0,0.0,0.0,0.0,0.0,0.0,0.0,0.0,0.0,0.0,0.0,0.0,0.0,0.0,0.0,0.0,0.0,0.0,0.0,0.0,0.0,0.0,0.0,0.0,0.0,0.0,0.0,0.0,0.0,0.0,0.0,0.0,0.0,0.0,0.0,0.0,0.0,0.0,0.0,0.0,0.0,0.0,0.0,0.0,0.0,3.7193,3.7841,3.8315,3.8377,3.9095,3.9264,3.8464,3.8577,3.835,3.7587,0.0,0.0,0.0,0.0,0.0,0.0,0.0,0.0,0.0,0.0,0.0,0.0,0.0,0.0,0.0,0.0,0.0,0.0,0.0,0.0,0.0,0.0,0.0,0.0,0.0,0.0,0.0,0.0,0.0,0.0,0.0,0.0,0.0,0.0,0.0,0.0,0.0,0.0,0.0,0.0,0.0,0.0,0.0,0.0,0.0,0.0,0.0,0.0,0.0,0.0,0.0,0.0,0.0,0.0,0.0,0.0,0.0,0.0,0.0,0.0,3.2608,3.2133,0.0,0.0,0.0,0.0,0.0,0.0,0.0,0.0,0.0,0.0,0.0,0.0,0.0,0.0,0.0,0.0,0.0,0.0,0.0,0.0,0.0,0.0,0.0,0.0,0.0,0.0,0.0,0.0,0.0,0.0,0.0,0.0,0.0,0.0,0.0,0.0,0.0,0.0,0.0,0.0,3.8715,3.8824,3.8936,3.9003,3.9274,3.9369,3.9182,3.9252,3.9305,3.9274,3.8664,0.0,0.0,0.0,0.0,0.0,0.0,0.0,0.0,0.0,0.0,0.0,0.0,0.0,0.0,0.0,0.0,0.0,0.0,0.0,0.0,0.0,0.0,0.0,0.0,0.0,0.0,0.0,0.0,0.0,0.0,0.0,0.0,0.0,0.0,0.0,0.0,0.0,0.0,0.0,0.0,0.0,0.0,0.0,0.0,0.0,0.0,0.0,0.0,0.0,0.0,0.0,0.0,0.0,0.0,0.0,0.0,0.0,0.0,0.0,3.3429,3.3131,0.0,0.0,0.0,0.0,0.0,0.0,0.0,0.0,0.0,0.0,0.0,0.0,0.0,0.0,0.0,0.0,0.0,0.0,0.0,0.0,0.0,0.0,0.0,0.0,0.0,0.0,0.0,0.0,0.0,0.0,0.0,0.0,0.0,0.0,0.0,0.0,0.0,0.0,0.0,0.0,3.9774,3.943,3.9202,3.9288,3.936,3.9405,3.9405,3.9431,3.9489,3.9588,3.9175,0.0,0.0,0.0,0.0,0.0,0.0,0.0,0.0,0.0,0.0,0.0,0.0,0.0,0.0,0.0,0.0,0.0,0.0,0.0,0.0,0.0,0.0,0.0,0.0,0.0,0.0,0.0,0.0,0.0,0.0,0.0,0.0,0.0,0.0,0.0,0.0,0.0,0.0,0.0,0.0,0.0,0.0,0.0,0.0,0.0,0.0,0.0,0.0,0.0,0.0,0.0,0.0,0.0,3.3998,3.3998,3.3998,3.3998,3.3998,3.4011,3.4233,3.4293,3.4257,3.4305,0.0,0.0,0.0,0.0,0.0,0.0,0.0,0.0,0.0,0.0,0.0,0.0,0.0,0.0,0.0,0.0,0.0,0.0,0.0,0.0,0.0,0.0,0.0,0.0,3.6766,3.6848,3.7084,0.0,0.0,0.0,0.0,0.0,0.0,0.0,0.0,0.0,0.0,0.0,4.0598,4.0058,3.9657,3.9762,3.9789,3.9808,3.9776,3.9789,3.9733,3.9602,3.9584,3.9576,0.0,0.0,0.0,0.0,0.0,0.0,0.0,0.0,0.0,0.0,0.0,0.0,0.0,0.0,0.0,0.0,0.0,0.0,0.0,0.0,0.0,0.0,0.0,0.0,0.0,0.0,0.0,0.0,0.0,0.0,0.0,0.0,3.2214,3.207,0.0,0.0,0.0,0.0,0.0,0.0,0.0,0.0,0.0,0.0,0.0,0.0,0.0,3.3993,3.3882,3.3955,3.3998,3.3998,3.3998,3.3998,3.3998,3.3998,3.3998,3.3998,3.4036,0.0,3.4036,3.4049,0.0,0.0,0.0,0.0,0.0,0.0,0.0,0.0,0.0,0.0,0.0,0.0,0.0,0.0,0.0,0.0,0.0,0.0,0.0,0.0,0.0,0.0,3.6616,3.6951,3.7055,3.7253,0.0,3.7921,3.7772,3.7772,3.8329,0.0,0.0,0.0,0.0,0.0,0.0,0.0,4.1438,4.1345,4.1303,4.1303,4.1361,4.1375,4.1318,4.1361,4.1092,4.0398,4.036,4.0085,3.9457,3.93,0.0,0.0,0.0,0.0,0.0,0.0,0.0,0.0,0.0,0.0,0.0,0.0,0.0,0.0,0.0,0.0,0.0,0.0,0.0,0.0,0.0,0.0,0.0,0.0,0.0,0.0,0.0,0.0,0.0,3.254,3.2807,3.3149,3.3164,3.3101,0.0,0.0,0.0,0.0,0.0,0.0,0.0,0.0,0.0,3.3881,3.3881,3.3881,3.3881,3.3881,3.3881,3.3881,3.4347,3.4567,3.4586,3.5078,3.5298,3.5298,3.5298,3.5298,3.5225,3.436,3.3998,3.3998,0.0,0.0,0.0,0.0,3.4325,3.4776,3.4737,3.5032,3.542,3.542,0.0,0.0,0.0,0.0,0.0,0.0,0.0,0.0,0.0,0.0,3.7503,3.7446,3.778,3.8215,3.8557,3.8855,3.9015,0.0,3.9712,4.0456,4.0317,0.0,0.0,0.0,0.0,4.1757,4.2222,4.1869,4.159,4.159,4.1619,4.1634,4.1605,4.1619,4.1485,4.1132,4.1113,4.077,3.9993,4.0001,3.9653,0.0,0.0,0.0,0.0,0.0,0.0,0.0,0.0,0.0,0.0,0.0,0.0,0.0,0.0,0.0,0.0,0.0,0.0,0.0,0.0,0.0,0.0,0.0,0.0,0.0,0.0,0.0,0.0,3.3338,3.342,3.3975,3.4023,3.3985,0.0,0.0,0.0,0.0,0.0,0.0,3.3868,3.3868,3.3842,3.3807,3.4009,3.4119,3.4119,3.4339,3.4431,3.4449,3.5041,3.5274,3.5206,3.5842,3.6105,3.5997,3.5997,3.5997,3.5921,3.4982,3.4592,3.4592,3.4592,3.4605,3.4618,3.4592,3.4998,3.5583,3.5556,3.5943,3.6426,3.6338,3.6376,3.6465,3.6454,0.0,0.0,0.0,0.0,3.7682,3.7879,3.8147,3.8322,3.8133,3.8542,3.8988,3.8988,3.9578,4.0033,0.0,4.0465,4.1024,4.0528,0.0,0.0,0.0,0.0,4.206,4.2666,4.2321,4.2014,4.2048,4.2158,4.2203,4.2203,4.2203,4.2129,4.1924,4.1906,4.1553,4.075,4.0756,4.0393,3.9551,0.0,0.0,0.0,0.0,0.0,0.0,0.0,0.0,0.0,0.0,0.0,0.0,0.0,0.0,0.0,0.0,0.0,0.0,0.0,0.0,0.0,0.0,0.0,0.0,0.0,0.0,0.0,0.0,0.0,3.3921,3.3959,0.0,0.0,0.0,0.0,3.3802,3.382,3.382,3.382,3.382,3.3788,3.3807,3.4546,3.4949,3.4949,3.5771,3.6156,3.6156,3.6211,3.6032,3.5675,3.5711,3.5519,3.5168,3.5168,3.5168,3.5219,3.5906,3.617,3.617,3.617,3.6213,3.627,3.6217,3.625,3.6343,3.6272,3.6281,3.6241,3.5872,3.6038,3.6395,3.6327,3.688,0.0,0.0,3.7488,3.7667,3.8361,3.8557,3.8677,3.9042,3.9167,3.9185,3.9185,3.9869,4.0379,0.0,4.0038,4.0308,4.1025,0.0,4.1497,4.2362,4.2472,4.2492,4.2605,4.2905,4.3172,4.3294,4.3647,4.3875,4.3875,4.3875,4.3559,4.2797,4.2742,4.237,4.1571,4.1549,4.1188,4.0444,4.044,0.0,0.0,0.0,0.0,0.0,0.0,0.0,0.0,0.0,0.0,0.0,0.0,0.0,0.0,0.0,0.0,0.0,0.0,0.0,0.0,0.0,0.0,0.0,0.0,0.0,0.0,0.0,0.0,3.3908,3.3881,0.0,3.3788,3.3815,3.3734,3.3494,3.4174,3.4481,3.4273,3.4993,3.5286,3.503,3.5224,3.532,3.532,3.56,3.5731,3.5731,3.632,3.6376,3.5987,3.6575,3.6773,3.6649,3.6649,3.6649,3.6667,3.6859,3.6368,3.5535,3.5535,3.5551,3.555,3.5535,3.5876,3.6325,3.631,3.6635,3.7049,3.6894,3.6969,3.7095,3.7095,3.7612,3.82,3.795,3.8419,3.8922,3.8681,3.8796,3.8948,3.8842,3.9185,3.9532,3.9532,4.0167,4.0727,4.0609,4.1141,4.1513,4.119,4.165,4.2044,4.2103,4.2324,4.2503,4.2542,4.2659,4.2774,4.2885,4.2978,4.3105,4.3212,4.3387,4.3396,4.3205,4.3434,4.3206,4.2407,4.237,4.2014,4.1225,4.1206,4.1091,0.0,0.0,0.0,0.0,0.0,0.0,0.0,0.0,0.0,0.0,0.0,0.0,0.0,0.0,0.0,0.0,0.0,0.0,0.0,0.0,0.0,0.0,0.0,0.0,0.0,3.3757,3.3689,3.3546,3.349,3.3447,3.3447,3.3673,3.3701,3.3489,3.4349,3.4798,3.4575,3.5322,3.5645,3.5367,3.5552,3.5769,3.6038,3.6255,3.6506,3.6756,3.7381,3.745,3.7036,3.7644,3.7853,3.7752,3.7752,3.7752,3.7714,3.7637,3.702,3.613,3.5935,3.5865,3.5918,3.5918,3.6257,3.6702,3.6702,3.6968,3.7338,3.7622,3.7615,3.7553,3.78,3.8203,3.8549,3.8335,3.8807,3.9329,3.9044,3.9163,3.9369,3.9375,3.9733,4.0095,4.0095,4.0532,4.0912,4.0912,4.1468,4.1756,4.1146,4.1552,4.1956,4.193,4.1937,4.2061,4.2349,4.2299,4.2264,4.2364,4.2444,4.2542,4.2678,4.2848,4.2996,4.3087,4.3474,4.3469,4.2968,4.3079,4.2804,4.2017,4.1739,4.159,4.159,0.0,0.0,0.0,0.0,0.0,0.0,0.0,0.0,0.0,0.0,0.0,0.0,0.0,0.0,0.0,0.0,0.0,0.0,0.0,0.0,0.0,0.0,0.0,3.3332,3.339,3.3225,3.2842,3.2813,3.283,3.2814,3.3446,3.3824,3.3824,3.4394,3.4747,3.4747,3.48,3.4818,3.4817,3.5577,3.6354,3.7148,3.7907,3.8667,3.937,3.937,3.9164,3.8773,3.8795,3.857,3.8213,3.8213,3.8213,3.8213,3.819,3.819,3.8134,3.7554,3.7394,3.7486,3.7504,3.754,3.754,3.754,3.7279,3.7053,3.7842,3.7854,3.7646,3.837,3.8612,3.8629,3.8629,3.8646,3.8836,3.9543,3.9733,3.9922,4.0722,4.0912,4.0912,4.0912,4.0912,4.0912,4.0912,4.0912,4.0912,4.0912,4.0912,4.1153,4.1861,4.136,0.0,4.2057,4.1868,4.1749,4.1895,4.2257,4.248,4.25,4.25,4.25,4.2483,4.2867,4.3123,4.3176,4.3629,4.3542,4.2819,4.204,4.165,4.1612,0.0,0.0,0.0,0.0,0.0,0.0,0.0,0.0,0.0,0.0,0.0,0.0,0.0,0.0,0.0,0.0,0.0,0.0,0.0,0.0,0.0,3.2781,3.2781,3.2937,3.2968,3.2905,3.2749,3.3281,3.3603,3.34,3.4126,3.4447,3.412,3.5026,3.5731,3.6057,3.6856,3.742,3.7679,3.7805,3.799,3.8247,3.8374,3.8538,3.8747,3.8851,3.8654,3.8219,3.8334,3.8311,3.8213,3.8213,3.8213,3.819,3.8103,3.8103,3.8185,3.8011,3.7664,3.7288,3.7927,3.8157,3.8157,3.8157,3.8027,3.7868,3.8092,3.811,3.8048,3.8237,3.8751,3.9244,3.9244,3.9749,4.0325,4.0532,4.0584,4.0636,4.086,4.0912,4.0912,4.0912,4.0912,4.0912,4.0912,4.0912,4.0912,4.0912,4.0912,4.0981,4.117,4.1032,0.0,4.1212,4.118,4.1366,4.2039,4.2143,4.2218,4.2417,4.2626,4.2534,4.2089,4.2444,4.2659,4.2679,4.3105,4.3226,4.3023,4.2803,4.2434,0.0,0.0,0.0,0.0,0.0,0.0,0.0,0.0,0.0,0.0,0.0,0.0,0.0,0.0,0.0,0.0,0.0,0.0,0.0,0.0,0.0,0.0,3.2477,3.2669,3.2704,3.2843,3.2861,3.2669,3.3369,3.3806,3.3643,3.4357,3.4814,3.486,3.5734,3.6534,3.7106,3.7776,3.8231,3.843,3.834,3.8471,3.8808,3.8762,3.8852,3.9159,3.9247,3.9129,3.8882,3.8979,3.9003,3.9003,3.9003,3.9003,3.8986,3.8914,3.8938,0.0,0.0,0.0,0.0,0.0,3.8322,3.8322,3.8322,3.8277,3.8265,3.8589,3.8692,3.876,3.9067,3.9508,3.9915,3.9915,4.0312,4.0728,4.0728,4.0776,4.0817,4.0817,4.0864,4.0912,4.0912,4.0912,4.0912,4.0912,4.1153,0.0,4.136,4.1101,4.1119,4.1774,4.1585,4.1602,4.224,4.205,4.2058,4.258,4.2541,4.2427,4.2243,4.2387,0.0,0.0,0.0,4.2183,4.2424,4.2679,0.0,0.0,0.0,4.2631,4.2214,0.0,0.0,0.0,4.1721,4.1349,0.0,0.0,0.0,0.0,0.0,0.0,0.0,0.0,0.0,0.0,0.0,0.0,0.0,0.0,0.0,0.0,3.2181,3.2625,3.269,3.3035,3.3132,3.2767,3.3376,3.3854,3.3919,3.4529,3.5251,3.5977,3.6604,3.7246,3.799,3.8024,0.0,0.0,0.0,3.8464,3.9106,3.9106,3.9445,4.0096,4.0096,4.0096,4.0096,4.0096,4.0096,4.0096,4.0096,4.0096,4.0096,4.0096,4.0096,3.996,3.8618,3.8244,3.8429,3.8344,3.8378,3.8446,3.8446,0.0,0.0,3.9266,3.9488,3.9607,4.0256,4.0485,4.0485,4.0485,4.0485,4.051,4.051,4.0583,4.0673,4.0673,4.0769,4.0847,4.0847,4.0864,4.0905,4.0991,4.1543,4.2033,4.2137,4.1602,4.1619,4.2982,4.2603,4.2637,4.4,4.3603,4.3224,4.331,0.0,0.0,4.2327,4.2275,4.1947,4.1205,4.1411,4.174,4.2185,4.2284,4.2344,4.2384,4.2384,4.2384,4.2404,4.2464,4.2483,4.2487,4.1937,4.1659,0.0,0.0,0.0,0.0,0.0,0.0,0.0,0.0,0.0,0.0,0.0,0.0,0.0,0.0,0.0,3.2303,3.2463,3.2726,3.3305,3.3883,3.4019,3.3458,3.4157,3.4819,3.5198,3.5988,3.6775,3.7438,3.7601,3.8007,3.8751,3.8785,3.9056,3.9673,3.9673,3.9757,3.9893,3.9893,3.996,4.0096,0.0,0.0,4.0096,4.0096,4.0096,4.0096,4.0096,4.0096,4.0096,4.0096,4.0096,4.0011,3.9156,3.9246,3.9802,3.9224,3.9377,3.9887,3.9887,3.9821,3.9764,3.9917,3.9968,3.9985,4.0137,4.0263,0.0,4.0337,4.0412,4.051,4.051,4.0534,4.0534,4.0534,4.0558,4.0583,4.0583,4.0655,4.0917,4.1518,4.1815,4.2223,4.2861,4.2844,4.2861,4.3155,4.3069,4.3086,4.3362,4.3293,4.3431,4.4018,4.4087,4.4018,4.388,4.3862,4.3552,4.2792,4.221,4.1835,4.1666,4.1356,4.1356,4.1692,4.1674,4.1756,4.1864,4.2183,4.2386,4.2503,4.239,4.1958,0.0,0.0,0.0,0.0,0.0,0.0,0.0,0.0,0.0,0.0,0.0,3.1716,3.2245,0.0,3.2219,3.2893,3.3273,3.3626,3.3999,3.4972,3.5238,3.4185,3.5115,3.5926,3.6186,3.692,3.7706,3.8396,3.8447,3.8768,3.952,3.9554,3.9723,4.0096,4.0096,4.0282,4.0646,4.0646,4.0832,4.1213,4.1213,4.1213,4.1213,4.1213,4.1213,4.1213,4.1213,4.1213,4.1179,4.0781,4.0646,4.0578,3.9859,3.9816,4.0154,3.9781,3.9866,4.0188,4.0188,4.0163,4.0096,4.0096,4.0096,4.0096,4.0096,4.0163,4.0188,4.0188,4.0263,4.0296,4.0296,4.0362,4.0387,4.0387,4.0461,4.051,4.051,4.0842,4.1268,4.1644,4.238,4.3091,4.3486,4.3915,4.4113,4.381,4.3741,4.3897,4.4251,4.4302,4.444,4.482,4.4854,4.4699,4.4328,4.3966,4.3586,4.3224,4.2827,4.2338,4.1777,4.1566,4.1369,4.1209,4.1209,4.1214,4.13,4.1494,4.163,4.1713,4.1713,4.1742,0.0,0.0,0.0,0.0,0.0,0.0,0.0,3.2318,3.2056,3.2056,3.1866,3.1849,3.2383,3.2601,3.2883,3.3512,3.4117,3.459,3.4895,3.6034,3.6389,3.5284,3.6248,3.7083,3.7218,3.7753,3.8413,3.9157,3.9208,3.9462,4.0079,4.0096,4.018,4.0316,4.0316,4.0663,4.1407,4.1407,4.1711,4.2286,4.2286,4.2286,4.2286,4.2286,4.2286,4.2286,4.2286,4.2286,4.2236,4.166,4.1407,4.1356,4.0773,4.0536,4.0502,4.0214,4.0096,4.0096,4.0096,4.0096,4.0096,4.0096,4.0096,4.0096,4.0096,4.0096,4.0096,4.0096,4.0096,4.0096,4.0096,4.0188,4.0263,4.0263,4.0337,4.047,4.0624,4.1136,4.1648,4.1955,4.3022,4.3962,4.4099,4.4692,4.4997,4.4527,4.4492,4.4716,4.5311,4.5397,4.5397,4.5397,4.5397,4.5156,4.4544,4.3983,4.3569,4.3414,4.3414,4.3069,4.2275,4.224,4.1947,4.136,4.1205,4.1119,4.1119,4.0981,4.0912,4.0912,4.0912,4.1356,3.3103,3.295,3.2795,3.2453,3.2318,3.2179,0.0,3.1653,3.1576,3.1576,3.2025,3.24,3.2485,3.2947,3.3525,3.4252,3.4438,3.4984,3.6355,3.6694,3.6998,3.7466,3.7669,3.8024,3.8684,3.8819,3.9174,3.9926,3.9977,4.0011,4.0096,4.0096,4.0417,4.1068,4.1085,4.1424,4.2168,4.2168,4.2219,4.2286,4.2286,4.2286,4.2286,4.2286,4.2286,4.2286,4.2286,4.2286,4.2286,4.2202,4.2168,4.2168,4.2083,4.2033,4.1907,4.0587,4.0096,4.0096,4.0096,4.0096,4.0096,4.0096,4.0096,4.0096,4.0096,4.0096,4.0096,4.0096,4.0096,4.0096,4.0096,4.0096,4.0138,4.0138,4.0121,4.0307,4.0985,4.1291,4.1827,4.3204,4.3702,4.4116,4.4766,4.4954,4.5025,4.51,4.5206,4.5311,4.538,4.5397,4.5397,4.5397,4.5397,4.5363,4.5276,4.519,4.4872,4.4225,4.4173,4.3845,4.3103,4.3069,4.3034,4.2948,4.224,4.1895,4.1895,4.1222,4.0912,4.0912,4.0912,4.0965,3.2484,3.2368,3.2248,3.193,3.1819,3.1746,3.1595,3.1464,3.1523,3.2,3.2244,3.2659,3.3503,3.3889,3.4286,3.503,3.5148,3.5537,3.6643,3.7161,3.7702,3.8447,3.892,3.9123,3.9005,3.9402,3.9724,3.9969,3.9986,3.9961,3.9884,4.0339,4.0736,4.0968,4.1531,4.2148,4.281,4.2827,4.3101,4.365,4.3523,4.3523,4.365,4.365,4.365,4.365,4.365,4.365,4.3616,4.3132,4.2946,4.2912,4.2472,4.2286,4.2168,4.1119,4.073,4.0679,4.0248,4.0096,4.0096,4.0096,4.0096,4.0096,4.0096,4.0096,4.0096,4.0096,4.0096,4.0096,4.0096,4.0096,4.0096,4.0096,4.0096,4.0316,4.1035,4.1594,4.2257,4.3315,4.3946,4.4408,4.4697,4.4831,4.4896,4.4951,4.5086,4.5211,4.5274,4.5274,4.53,4.5397,4.5397,4.5397,4.5397,4.5397,4.5259,4.4958,4.4941,4.4613,4.388,4.3845,4.3638,4.3207,4.2861,4.2706,4.2706,4.193,4.155,4.1533,4.1101,4.0912,3.1949,3.1859,3.1803,3.1557,3.1462,3.1443,3.1443,3.1502,3.1732,3.2326,3.269,3.3241,3.4286,3.4675,3.4979,3.5498,3.5785,3.6214,3.6975,3.7713,3.8342,3.8925,3.9556,3.9648,3.8746,3.9547,4.0037,3.9901,3.9901,3.9933,4.0005,4.0587,4.11,4.1412,4.2105,4.28,4.3435,4.3452,4.3805,4.4514,4.4367,4.4412,4.4615,4.4615,4.4542,4.4457,4.4514,4.4514,4.4406,4.3878,4.3641,4.3618,4.3132,4.2912,4.2828,4.21,4.1694,4.1424,4.0882,4.0722,4.0722,4.0722,4.0722,4.0671,4.0485,4.0417,4.0367,4.0163,4.0096,4.0096,4.0096,4.0096,4.0096,4.0096,4.0096,4.0367,4.1305,4.1914,4.2574,4.3538,4.4198,4.4615,4.4615,4.4682,4.472,4.472,4.4831,4.4951,4.5123,4.5123,4.5194,4.5291,4.5318,4.5327,4.5327,4.5327,4.5327,4.5327,4.5318,4.5033,4.4509,4.4492,4.4234,4.37,4.3528,4.3449,4.3449,4.2632,4.2278,4.2327,4.1726,4.1467,3.1517,3.1517,3.1517,3.1498,3.1406,3.1315,3.1315,3.1814,3.2276,3.2293,3.3444,3.4438,3.4489,3.5081,3.5566,3.56,3.6248,3.7032,3.777,3.8393,3.8807,3.889,3.9375,3.9232,3.7962,3.9209,4.0037,3.9901,3.9901,4.0152,4.0742,4.0782,4.1479,4.2903,4.297,4.3339,4.4064,4.4064,4.415,4.431,4.431,4.4412,4.4615,4.4615,4.4429,4.4126,4.4253,4.4241,4.4126,4.4236,4.4259,4.4305,4.4446,4.453,4.4445,4.3639,4.2878,4.2252,4.2236,4.2219,4.2219,4.2219,4.2219,4.21,4.139,4.117,4.1018,4.0316,4.0096,4.0096,4.0096,4.0096,4.0096,4.0096,4.0096,4.0502,4.1948,4.2269,4.277,4.4276,4.4581,4.4615,4.4615,4.4598,4.4615,4.4615,4.4598,4.4709,4.4951,4.5005,4.5005,4.5005,4.514,4.522,4.522,4.522,4.522,4.522,4.5086,4.4988,4.4971,4.4971,4.4971,4.4937,4.4369,4.407,4.407,4.3254,4.297,4.3155,4.2935,4.2935,3.1308,3.1288,3.1288,3.1288,3.1269,3.1272,3.1403,3.1887,3.2378,3.2622,3.3375,3.3987,3.4028,3.43,3.4512,3.4423,3.5332,3.6191,3.653,3.7399,3.8044,3.8153,3.8334,3.8278,3.7835,3.9011,3.9592,3.9028,3.9372,3.9677,3.9792,4.0352,4.1087,4.1966,4.265,4.3313,4.3969,4.3985,4.4027,4.4184,4.4184,4.4212,4.4286,4.4286,4.4229,4.4097,4.4155,4.4155,4.4097,4.4155,4.4184,4.4184,4.4355,4.4412,4.4378,4.4254,4.4028,4.3684,4.2642,4.2286,4.2286,4.2286,4.2286,4.2236,4.1999,4.1931,4.188,4.1627,4.1568,4.1568,4.1568,4.1568,4.1424,4.095,4.0832,4.1102,4.2083,4.2286,4.2743,4.431,4.4615,4.4615,4.4615,4.4615,4.4615,4.4615,4.4682,4.4765,4.4858,4.4923,4.5005,4.5005,4.5032,4.5059,4.5059,4.5059,4.5059,4.5059,4.5032,4.5005,4.5005,4.5005,4.5005,4.5005,4.4793,4.4683,4.4683,4.393,4.3649,4.3778,4.3177,4.3004,3.121,3.1075,3.0995,3.1151,3.1237,3.1316,3.1394,3.2076,3.2685,3.2733,3.3242,3.3673,3.3731,3.3802,3.3843,3.3735,3.4855,3.5727,3.5819,3.6857,3.7548,3.7393,3.7544,3.7472,3.7011,3.8137,3.8684,3.8222,3.8562,3.8974,3.9319,3.9875,4.0718,4.1857,4.2246,4.2785,4.3432,4.3174,4.3248,4.3638,4.3935,4.4068,4.4027,4.4068,4.4039,4.3923,4.3998,4.3998,4.3923,4.3998,4.4027,4.4056,4.4184,4.4224,4.4253,4.444,4.4497,4.4361,4.3436,4.3125,4.3125,4.3125,4.3125,4.3064,4.2777,4.2692,4.2642,4.2371,4.2286,4.2286,4.2286,4.2286,4.2168,4.1711,4.1593,4.1796,4.254,4.2692,4.3064,4.4361,4.4615,4.4615,4.4615,4.4615,4.4615,4.4615,4.4682,4.4737,4.4737,4.4803,4.4858,4.4858,4.4913,4.494,4.494,4.494,4.494,4.494,4.4886,4.4858,4.4858,4.4858,4.4858,4.4858,4.4896,4.494,4.494,4.4463,4.4278,4.442,4.3827,4.3657,3.1151,3.0818,3.058,3.1015,3.1245,3.1331,3.1281,3.2312,3.3112,3.2581,3.3058,3.3547,3.3505,3.3505,3.3521,3.3521,3.4702,3.5655,3.5584,3.6727,3.7279,3.6615,3.6995,3.6845,0.0,0.0,3.737,3.7472,3.7562,3.8152,3.9298,3.9377,4.034,4.2443,4.1819,4.1787,4.2554,4.1852,4.1933,4.2754,4.3578,4.3894,4.3763,4.3894,4.3789,4.3492,4.3687,4.3658,4.3492,4.3704,4.3763,4.3793,4.3906,4.3964,4.3993,4.4121,4.4179,4.4207,4.4412,4.4514,4.4615,4.4615,4.4615,4.4479,4.3707,4.3443,4.3335,4.2608,4.2405,4.2405,4.2405,4.2405,4.2405,4.2354,4.2354,4.254,4.3267,4.3392,4.3656,4.4445,4.4615,4.4615,4.4615,4.4615,4.4615,4.4615,4.4615,4.4615,4.4615,4.4615,4.4615,4.4615,4.4709,4.4776,4.4776,4.4776,4.4776,4.4776,4.4682,4.4615,4.4615,4.4615,4.4615,4.4615,4.472,4.4776,4.4776,4.4776,4.4858,4.4978,4.4858,4.4886,3.0477,3.0293,3.0145,2.993,3.0251,3.0683,3.083,3.1796,3.2593,3.2218,3.2598,3.2841,3.2342,3.2342,3.237,3.2274,3.3777,3.4789,3.4295,3.5643,3.6492,3.5831,3.591,3.5861,3.5537,3.5797,0.0,3.6022,3.7358,3.8324,3.8645,3.9139,3.9905,4.101,4.0839,4.1109,4.1754,4.1591,4.1624,4.1836,4.2062,4.2142,4.211,4.2142,4.211,4.2045,4.2078,4.2078,4.2045,4.2078,4.211,4.211,4.2269,4.2316,4.2316,4.2504,4.2583,4.2598,4.2645,4.3515,4.4615,4.4615,4.4615,4.4564,4.435,4.4282,4.4231,4.4073,4.4022,4.4022,4.4022,4.4022,4.387,4.3267,4.3132,4.3183,4.3341,4.3392,4.3656,4.4445,4.4615,4.4615,4.4615,4.4615,4.4615,4.4615,4.4615,4.4615,4.4615,4.4615,4.4615,4.4615,4.4626,4.4654,4.4654,4.4654,4.4654,4.4654,4.4626,4.4615,4.4615,4.4615,4.4615,4.4615,4.4626,4.4654,4.4654,4.4654,4.4737,4.4858,4.4803,4.4886,3.0166,2.9783,2.9538,2.979,3.0164,3.0571,3.0933,3.1763,3.2335,3.1862,3.2007,3.2104,3.1741,3.1741,3.1769,3.1683,3.2817,3.371,3.3622,3.4727,3.5545,3.5507,3.5504,0.0,3.5504,3.5504,3.5504,3.5504,3.6514,3.7382,3.7937,3.8314,3.9139,4.0447,4.0181,4.0216,4.0566,4.0907,4.106,4.106,4.136,4.1492,4.1492,4.1492,4.1492,4.1492,0.0,4.1492,4.1492,4.1492,4.1492,4.1525,4.1592,4.1625,4.1609,4.1804,4.1869,4.1901,4.1965,4.2645,4.3515,4.3902,4.4298,4.4615,4.4615,4.4615,4.4615,4.4615,4.4615,4.4615,4.4615,4.4615,4.4496,4.4028,4.3927,4.3927,4.3927,4.3927,4.4062,4.4513,4.4615,4.4615,4.4615,4.4615,4.4615,4.4615,4.4615,4.4615,4.4615,4.4615,4.4615,4.4615,4.4615,4.4615,4.4615,4.4615,4.4615,4.4615,4.4615,4.4615,4.4615,4.4615,4.4615,4.4615,4.4615,4.4615,4.4615,4.4615,4.4626,4.4709,4.4709,4.4748,2.9892,2.9271,2.8889,2.9911,3.0304,3.0598,3.1151,3.1805,3.212,3.1611,3.1511,3.1511,3.1511,3.1511,3.1511,3.1511,3.2049,3.2736,3.341,3.4099,3.4758,3.5429,3.5504,3.5504,3.5504,3.5504,3.5504,3.5504,3.5504,3.6073,3.7345,3.7494,3.8405,4.0309,3.9717,3.9388,3.9388,4.0041,4.0339,4.0339,4.0925,4.1227,4.1227,4.1227,4.1227,4.1227,4.1227,4.1227,4.1227,4.1227,4.1227,4.1227,4.1227,4.1227,4.1227,4.1346,4.1412,4.1412,4.1609,4.1739,4.1965,4.2847,4.3651,4.4253,4.4281,4.4281,4.4281,4.4327,4.431,4.4355,4.444,4.444,4.4485,4.457,4.4615,4.4615,4.4615,4.4615,4.4615,4.4615,4.4615,4.4615,4.4615,4.4615,4.4615,4.4615,4.4615,4.4615,4.4615,4.4615,4.4615,4.4615,4.4615,4.4615,4.4615,4.4615,4.4615,4.4615,4.4615,4.4615,4.4615,4.4615,4.4615,4.4615,4.4615,4.4615,4.4615,4.4615,4.4615,4.4615,4.4615,4.4615,2.8834,2.848,2.8473,2.8819,2.9361,2.9919,3.0508,3.1157,3.164,3.1524,3.1511,3.1511,3.1511,3.1511,3.1511,3.1511,3.2049,3.2736,3.341,3.4099,3.4758,0.0,3.5504,3.5504,3.5504,3.5504,0.0,0.0,3.5504,3.6073,3.7345,3.7928,3.8657,3.9559,3.9445,3.9388,3.9388,3.9517,3.9589,3.9589,3.9717,3.9753,3.9753,3.9753,3.9753,3.9753,3.9753,0.0,3.9753,3.9753,3.9753,3.9753,3.9753,3.9753,3.9788,3.9809,3.9809,3.9793,3.9829,4.0309,4.108,4.1933,4.2316,4.2473,4.2645,4.2707,4.2707,4.2831,4.2862,4.3,4.3558,4.3676,4.3839,4.444,4.4615,4.4615,4.4615,4.4615,4.4615,4.4615,4.4615,4.4615,4.4615,4.4615,4.4615,4.4615,4.4615,4.4615,4.4615,4.4615,4.4615,4.4615,4.4615,4.4615,4.4615,4.4615,4.4615,4.4615,4.4615,4.4615,4.4615,4.4615,4.4615,4.4615,4.4615,4.4615,4.4615,4.4615,4.4615,4.4615,4.4615,4.4615,2.8432,2.811,2.8112,2.8925,2.934,2.9834,3.0806,0.0,0.0,3.1511,3.1511,3.1511,3.1511,3.1511,3.1511,3.1511,3.1765,3.2333,3.3365,3.3769,3.4352,3.5385,3.5504,3.5504,3.5504,3.5504,3.5504,3.5504,3.5504,3.6073,3.7345,3.8377,3.908,3.9373,3.9388,3.9388,3.9388,3.9388,3.9388,3.9388,3.9388,3.9388,3.9388,3.9388,3.9388,3.9388,3.9388,3.9388,3.9388,3.9388,3.9388,3.9388,3.9388,3.9388,3.9388,3.9388,3.9388,3.9388,3.9388,3.9666,4.008,4.0516,4.1262,4.2029,4.2093,4.2125,4.2157,4.2363,4.2395,4.2489,4.2892,4.2984,4.3075,4.341,4.3515,4.3604,4.3943,4.4047,4.415,4.4542,4.4615,4.4615,4.4615,4.4615,4.4615,4.4615,4.4615,4.4615,4.4615,4.4615,4.4615,4.4615,4.4615,4.4615,4.4615,4.4615,4.4615,4.4615,4.4615,4.4615,4.4615,4.4615,4.4615,4.4615,4.4615,4.4615,4.4615,4.4615,4.4615,4.4615,4.4615,4.4615,2.8183,2.7894,2.7884,2.9097,2.9502,2.9906,3.1017,3.1406,3.1511,3.1511,3.1511,3.1511,3.1511,3.1511,3.1511,3.1511,3.1511,3.1959,3.3305,3.3499,3.3993,3.534,3.5504,0.0,3.5504,3.5504,0.0,3.5504,3.5639,3.6207,3.7345,3.8691,3.9388,3.9388,3.9388,3.9388,3.9388,3.9388,3.9388,3.9388,3.9388,3.9388,3.9388,3.9388,3.9388,3.9388,3.9388,3.9388,3.9388,3.9388,3.9388,3.9388,3.9388,3.9388,3.9388,3.9388,3.9388,3.9388,3.9388,3.9388,3.9388,3.9388,4.0324,4.1445,4.1478,4.1526,4.1543,4.1755,4.1804,4.1852,4.2109,4.2173,4.2237,4.2426,4.2489,4.2629,4.3166,4.3287,4.3453,4.4035,4.4281,4.431,4.4179,4.4412,4.4542,4.4384,4.4514,4.4615,4.4615,4.4615,4.4615,4.4615,4.4615,4.4615,4.4615,4.4615,4.4615,4.4615,4.4615,4.4615,4.4615,4.4615,4.4615,4.4615,4.4615,4.4615,4.4615,4.4615,4.4615,4.4615,4.4615,4.4615,2.777,2.7635,2.7779,2.8502,2.9146,2.9759,3.0447,0.0,3.1511,3.1511,3.1511,3.1511,3.1511,3.1511,3.1511,3.1511,3.1511,3.1959,3.3305,3.3499,3.3993,3.534,0.0,0.0,3.5504,3.5504,3.5504,3.5504,3.6058,3.6686,3.7375,3.8691,3.9388,3.9388,3.9388,3.9388,3.9388,3.9388,3.9388,3.9388,3.9388,3.9388,3.9388,3.9388,3.9388,3.9388,3.9388,3.9388,0.0,3.9388,3.9388,3.9388,3.9388,3.9388,3.9388,3.9388,3.9388,3.9388,3.9388,3.9388,3.9388,3.9388,3.9517,3.9681,3.9844,3.9915,3.995,4.0156,4.0226,4.0351,4.0974,4.1127,4.136,4.2141,4.2426,4.252,4.2583,4.2583,4.2614,4.2676,4.3166,4.3423,4.28,4.3739,4.4367,4.3706,4.4179,4.4615,4.4615,4.4615,4.4615,4.4615,4.4615,4.4615,4.4615,4.4615,4.4615,4.4615,4.4615,4.4615,4.4615,4.4615,4.4615,4.4615,4.4615,4.4615,4.4615,4.4615,4.4615,4.4615,4.4615,4.4615,2.7635,2.76,2.7764,2.8427,2.9086,2.9744,3.0261,0.0,3.138,3.138,3.1336,3.1307,3.1482,3.1438,3.1409,3.1511,3.1511,3.1959,3.3305,3.3499,3.3993,3.534,3.5504,3.5504,0.0,0.0,3.5504,3.5504,3.6118,3.6746,3.7375,3.8302,3.899,3.9373,3.9388,3.9388,3.9388,3.9388,3.9388,3.9388,3.9388,3.9388,3.9388,3.9388,3.9388,3.9388,3.9388,3.9388,0.0,3.9388,3.9388,3.9388,3.9388,3.9388,3.9388,3.9388,3.9388,3.9388,3.9388,3.9388,3.9388,3.9388,3.9388,3.9409,3.9481,3.9517,3.9553,3.9768,3.9803,3.991,4.0316,4.0405,4.0474,4.082,4.0956,4.1109,4.1509,4.1608,4.1739,4.2125,4.2504,4.2691,4.2426,4.2909,4.3259,4.2953,4.3152,4.3469,4.3885,4.3943,4.4105,4.4542,4.4615,4.4615,4.4615,4.4615,4.4615,4.4615,4.4615,4.4615,4.4615,4.4615,4.4615,4.4615,4.4615,4.4615,4.4615,4.4615,4.4615,4.4615,4.4615,4.4615,2.76,2.76,2.7694,2.8136,2.8883,2.959,2.9898,0.0,3.1234,3.1234,3.1161,3.1176,3.1336,3.1292,3.1263,3.1366,3.1395,3.1782,3.296,3.3257,3.3825,3.507,0.0,3.5359,3.5504,3.5504,3.5472,3.5439,3.589,3.6477,3.7105,3.7749,3.8497,3.9358,3.9388,3.9373,3.9301,3.9373,3.9373,3.9301,3.9373,3.9388,3.9388,3.9388,3.9373,3.9301,3.9301,3.9301,0.0,3.9301,3.9337,3.9388,3.9388,3.9388,3.9388,3.9388,3.9388,3.9388,3.9388,3.9388,3.9388,3.9388,3.9388,3.9388,3.9388,3.9388,3.9424,3.9589,3.9625,3.9625,3.9783,3.9854,3.9925,3.9925,3.996,4.0137,4.0597,4.0684,4.0839,4.1311,4.169,4.1852,4.1641,4.2046,4.2284,4.2078,4.2237,4.2536,4.3075,4.3136,4.3423,4.4179,4.4265,4.4367,4.457,4.4615,4.4615,4.4615,4.4615,4.4615,4.4615,4.4615,4.4615,4.4615,4.4615,4.4615,4.4615,4.4615,4.4615,4.4615,4.4615,4.4615,2.76,2.76,2.7575,2.7452,2.8355,2.9277,2.914,3.0129,3.1117,3.1117,3.1117,3.1117,3.1117,3.1117,3.1117,3.1117,3.1102,3.1383,3.2198,3.2698,3.338,0.0,3.4732,3.5082,3.5472,3.5504,3.5439,3.5213,3.5407,0.0,3.6462,3.709,3.8033,3.9379,3.9388,3.9301,3.9104,3.9301,3.9301,3.9104,3.9301,3.9388,3.9388,3.9388,3.9301,3.9104,3.9104,3.9104,0.0,3.9104,3.9228,3.9388,3.9388,3.9388,3.9388,3.9388,3.9388,3.9388,3.9388,3.9388,3.9388,3.9388,3.9388,3.9388,3.9388,3.9388,3.9388,3.9388,3.9388,3.9388,3.9424,3.9553,3.9681,3.9681,3.9854,4.0011,4.0011,3.9996,3.9996,4.0031,4.0562,4.082,4.0121,4.1127,4.1772,4.1127,4.1592,4.2093,4.23,4.23,4.2614,4.3423,4.3512,4.381,4.4542,4.4615,4.4615,4.4615,4.4615,4.4615,4.4615,4.4615,4.4615,4.4615,4.4615,4.4615,4.4615,4.4615,4.4615,4.4615,4.4615,4.4615,2.7361,2.7321,2.7335,2.7284,2.7894,2.8621,2.8913,2.9649,3.0397,3.0807,3.0821,3.0821,3.1043,3.0984,3.0955,3.1087,3.1117,3.1324,3.1988,3.2622,0.0,3.4048,3.4715,3.5148,0.0,3.5439,3.5439,3.5213,3.5261,3.5576,3.6265,3.6783,3.756,3.8691,3.917,3.9373,3.9301,3.9228,3.9141,3.9104,3.9017,3.898,3.898,3.898,3.8943,3.8907,3.8907,3.8907,3.8907,3.8907,3.8943,3.898,3.9141,3.9177,3.9228,3.9337,3.9388,3.9388,3.9388,3.9388,3.9388,3.9388,3.9388,3.9388,3.9388,3.9388,3.9388,3.9388,3.9388,3.9388,3.9388,3.946,3.9481,3.9481,3.9553,3.9604,3.9604,3.9604,3.9604,3.9604,3.9859,4.0056,3.9839,4.0266,4.0562,4.0351,4.0509,4.082,4.1344,4.1411,4.1723,4.2583,4.2676,4.3183,4.4485,4.4615,4.4615,4.4615,4.4615,4.4615,4.4615,4.4615,4.4615,4.4615,4.4615,4.4615,4.4615,4.4615,4.4615,4.4615,4.4615,4.4615,2.7207,2.7207,2.7181,2.713,2.7615,2.8236,2.8703,2.9317,2.9959,3.0601,3.0672,3.0672,3.0866,3.0791,3.0762,3.0895,3.0925,3.1057,3.1499,3.2275,0.0,3.4032,3.4765,0.0,3.4916,3.5195,3.5294,3.503,3.5049,3.5259,3.5692,3.6241,3.6926,3.7808,3.8716,3.9141,3.9046,3.9031,3.8943,3.8885,3.8833,3.8782,3.8782,3.8782,3.876,3.8686,3.8686,3.8686,0.0,3.8686,3.8723,3.8819,3.8943,3.898,3.898,3.9141,3.9177,3.9177,3.9265,3.9301,3.9301,3.9388,3.9388,3.9388,3.9388,3.9388,3.9388,3.9388,3.9388,3.9388,3.9388,3.9388,3.9388,3.9388,3.9388,3.9388,3.9388,3.9388,3.9388,3.9388,3.9481,3.9589,3.9589,3.9711,3.9783,3.9783,3.9783,3.9945,4.0443,4.0512,4.0823,4.1739,4.1788,4.23,4.3515,4.396,4.431,4.457,4.4615,4.4615,4.4615,4.4615,4.4615,4.4615,4.4615,4.4615,4.4615,4.4615,4.4615,4.4615,4.4615,4.4615,0.0,2.7181,2.713,2.7029,2.7401,2.7973,2.8577,2.9131,0.0,3.0467,3.0598,3.0598,3.0598,3.0598,3.0598,3.0598,3.0598,3.0642,3.0762,3.1762,3.2991,0.0,3.485,3.4983,3.4481,3.4883,3.5049,3.4731,3.4817,3.4902,3.4902,3.5505,3.6168,3.6845,3.8053,3.8642,3.8516,3.8686,3.8686,3.8478,3.8686,3.8745,3.8745,3.8745,3.8649,0.0,3.8478,3.8478,3.8478,3.8478,3.8575,3.8745,3.8782,3.8797,3.8797,3.8782,3.8782,3.8819,3.9017,3.9068,3.9104,3.9301,3.9388,3.9388,3.9388,3.9388,3.9388,3.9388,3.9388,3.9388,3.9388,3.9388,3.9388,3.9388,3.9388,3.9388,3.9388,3.9388,3.9388,3.9388,3.9388,3.9388,3.9388,3.9388,3.9388,3.9388,3.9388,3.9445,3.9646,3.9696,3.9985,4.0805,4.0907,4.1178,4.1869,4.2845,4.3722,4.4384,4.4457,4.444,4.444,4.4514,4.4514,4.4514,4.457,4.4615,4.4615,4.4615,4.4615,4.4615,4.4615,4.4615,2.6884,0.0,2.6884,2.6858,2.6948,2.7341,0.0,2.8825,2.9218,3.0365,3.0598,3.0598,3.0598,3.0598,3.0598,3.0598,3.0598,3.0598,3.0642,3.1731,3.3024,3.447,3.4731,3.4765,3.4631,3.485,3.4916,3.4698,3.4731,3.4765,3.4765,3.5263,3.5787,3.6443,3.7244,3.7996,3.8708,3.8612,3.8553,3.8478,3.8389,3.8352,3.8352,3.8352,3.8315,3.8277,3.8277,3.8277,3.8277,3.8277,3.8315,3.8352,3.8516,3.859,3.859,3.876,3.8782,3.8819,3.887,3.887,3.8907,3.9104,3.9177,3.9177,3.9337,3.9388,3.9388,3.9388,3.9388,3.9388,3.9388,3.9388,3.9388,3.9388,3.9388,3.9388,3.9388,3.9388,3.9388,3.9388,3.9388,3.9388,3.9388,3.9388,3.9388,3.9388,3.9388,3.9424,3.9445,3.9445,3.9625,3.9985,4.0021,4.0339,4.1145,4.2078,4.2645,4.2847,4.2939,4.3,4.3,4.3499,4.3752,4.3752,4.431,4.4615,4.4615,4.4615,4.4615,4.4615,4.4615,4.4615,2.6806,2.6806,2.6806,2.6806,2.6806,2.7041,2.8028,2.8463,2.8985,2.9929,3.0409,3.0598,3.0598,3.0598,3.0598,3.0598,3.0598,3.0816,3.138,3.2324,3.3358,3.4432,3.4631,3.4664,0.0,3.4716,3.475,3.4582,3.4563,3.4563,3.4563,3.4816,3.5212,3.5851,3.6504,3.7397,3.8523,3.8441,3.8366,3.8366,3.824,3.8202,3.8202,3.8202,3.8202,3.8202,3.8202,3.8202,3.8202,3.8202,3.8202,3.8202,3.8315,3.8366,3.8366,3.8486,3.8523,3.8538,3.8612,3.8723,3.8819,3.8943,3.8943,3.898,3.9177,3.9265,3.9265,3.9373,3.9388,3.9388,3.9388,3.9388,3.9388,3.9388,3.9388,3.9388,3.9388,3.9388,3.9388,3.9388,3.9388,3.9388,3.9388,3.9388,3.9388,3.9388,3.9388,3.9388,3.9388,3.9388,3.9445,3.9553,3.9553,3.9753,4.025,4.0789,4.1395,4.2141,4.2221,4.2252,4.2252,4.2629,4.2845,4.2953,4.3634,4.4018,4.4105,4.444,4.4615,4.4615,4.4615,4.4615,2.6806,2.6806,2.6806,2.6806,2.6806,2.6953,2.755,2.8216,2.8855,2.9465,0.0,3.0598,3.0598,3.0598,3.0598,3.0598,3.0685,0.0,3.2338,3.3064,3.3736,3.4341,3.4563,0.0,3.4414,3.4563,3.4597,3.4414,3.4414,3.4414,3.4414,3.4414,3.4704,3.5378,3.5894,3.6765,3.8057,3.8159,3.8202,3.8202,3.8202,3.8202,3.8202,3.8202,3.8202,3.8202,0.0,0.0,3.8202,3.8202,3.8202,3.8202,3.8202,3.8202,3.8202,3.8202,3.8202,3.8202,3.8404,3.859,3.8708,3.8745,3.8745,3.8797,3.898,3.9068,3.9104,3.9265,3.9337,3.9388,3.9388,3.9388,3.9388,3.9388,3.9388,3.9388,3.9388,3.9388,3.9388,3.9388,3.9388,3.9388,3.9388,3.9388,3.9388,3.9388,3.9388,3.9388,3.9388,3.9388,3.9388,3.9388,3.9388,3.9388,3.9388,3.9553,4.02,4.1511,4.1642,4.1755,4.1836,4.1836,4.1997,4.23,4.2847,4.3259,4.3512,4.4133,4.4468,4.4615,4.4615,4.4615,2.6806,2.6806,2.6806,2.6806,2.6806,2.6953,2.755,2.8216,2.8855,2.9465,3.0132,3.0598,3.0598,3.0598,3.0598,3.0598,3.1032,3.1642,0.0,0.0,3.3736,3.4341,0.0,3.4414,3.4414,3.4414,3.4414,3.4414,3.4414,3.4414,3.4414,3.4414,3.4704,3.5378,3.5494,3.6162,3.7433,3.7941,3.8202,3.8202,3.8202,3.8202,3.8202,3.8202,3.8202,3.8202,0.0,3.8202,3.8202,3.8202,3.8202,3.8202,3.8202,3.8202,3.8202,3.8202,3.8202,3.8202,3.824,3.8277,3.8315,3.8516,3.8553,3.859,3.8797,3.887,3.887,3.887,3.9141,3.9388,3.9388,3.9388,3.9388,3.9388,3.9388,3.9388,3.9388,3.9388,3.9388,3.9388,3.9388,3.9388,3.9388,3.9388,3.9388,3.9388,3.9388,3.9388,3.9388,3.9388,3.9388,3.9388,3.9388,3.9388,3.9388,3.9424,3.9553,3.9773,4.0141,4.0562,4.1127,4.116,4.1509,4.23,4.2395,4.28,4.3512,4.3601,4.3972,4.4615,4.4615,4.4615,2.6806,2.6806,2.6806,2.6806,2.6806,2.6852,2.7157,2.7969,2.8796,2.9058,2.9929,3.0598,3.0598,3.0598,3.0598,3.0598,0.0,3.2133,3.2452,3.3354,3.4095,0.0,0.0,3.4414,3.4414,3.4414,3.4414,3.4414,3.4414,3.4414,3.4414,3.4414,3.4545,3.4835,3.5218,3.5683,3.6293,3.723,3.7883,3.8202,3.8202,3.8202,3.8202,3.8202,3.8202,3.8202,0.0,3.8202,3.8202,3.8202,3.8202,3.8202,3.8202,3.8202,3.8202,3.8202,3.8202,3.8202,3.8202,3.8202,3.8202,3.8315,3.8329,3.8366,3.859,3.8664,3.8649,3.8745,3.9017,3.9228,3.9228,3.9301,3.9388,3.9388,3.9388,3.9388,3.9388,3.9388,3.9388,3.9388,3.9388,3.9388,3.9388,3.9388,3.9388,3.9388,3.9388,3.9388,3.9388,3.9388,3.9388,3.9388,3.9388,3.9388,3.9388,3.9388,3.9388,3.9388,3.9568,3.9803,4.0111,4.0146,4.0374,4.0891,4.1262,4.1739,4.23,4.266,4.3045,4.3469,4.3856,4.4018,2.6806,2.6806,2.6806,2.6806,2.6806,2.6806,2.6806,2.7794,2.8709,2.8709,2.9726,3.0598,3.0598,3.0598,3.0598,3.0598,3.1671,3.2481,3.2481,3.3616,3.4414,3.4414,3.4414,3.4414,3.4414,3.4414,3.4414,3.4414,3.4414,3.4414,3.4414,3.4414,3.4414,3.4414,3.4893,3.5247,3.5392,3.6359,3.7244,3.7984,3.813,3.8202,3.8202,3.8202,3.8202,3.8202,3.8202,3.8202,3.8202,3.8202,3.8202,3.8202,3.8202,3.8202,3.8202,3.8202,3.8202,3.8202,3.8202,3.8202,3.8202,3.8202,3.8202,3.824,3.8366,3.8441,3.8478,3.8612,3.8797,3.8958,3.9031,3.9177,3.9337,3.9337,3.9373,3.9388,3.9388,3.9388,3.9388,3.9388,3.9388,3.9388,3.9388,3.9388,3.9388,3.9388,3.9388,3.9388,3.9388,3.9388,3.9388,3.9388,3.9388,3.9388,3.9388,3.9388,3.9388,3.9388,3.9388,3.9388,3.9388,3.9388,3.9481,3.9696,4.022,4.0721,4.1243,4.1739,4.2141,4.2458,4.2984,4.3227,2.6806,2.6806,2.6806,2.6806,2.6806,2.6806,2.6806,2.7794,2.8709,2.8709,2.9726,3.0598,3.0598,3.0598,3.0598,3.0598,3.1671,3.2481,3.2481,0.0,3.4414,3.4414,3.4414,3.4414,3.4414,3.4414,3.4414,3.4414,3.4414,3.4414,3.4414,3.4414,3.4414,3.4414,3.4457,3.4762,3.5392,3.5494,3.6162,3.7375,3.7941,3.8202,3.8202,3.8202,3.8202,3.8202,3.8202,3.8202,3.8202,3.8202,3.8202,3.8202,3.8202,3.8202,3.8202,3.8202,3.8202,3.8202,3.8202,3.8202,3.8202,3.8202,3.8202,3.8202,3.8202,3.8202,3.824,3.824,3.8389,3.859,3.8745,3.898,3.9104,3.9104,3.9265,3.9388,3.9388,3.9388,3.9388,3.9388,3.9388,3.9388,3.9388,3.9388,3.9388,3.9388,3.9388,3.9388,3.9388,3.9388,3.9388,3.9388,3.9388,3.9388,3.9388,3.9388,3.9388,3.9388,3.9388,3.9388,3.9388,3.9388,3.9481,3.9696,3.9753,4.0181,4.1042,4.106,4.1509,4.2332,4.2363,4.2458,2.6806,2.6806,2.6806,2.6806,2.6806,2.6806,2.6806,2.7794,2.8709,2.8709,2.9726,3.0598,0.0,0.0,3.0598,3.0598,3.1671,3.2481,3.2481,3.3616,3.4414,3.4414,3.4414,3.4414,3.4414,3.4414,3.4414,3.4414,3.4414,3.4414,3.4414,3.4414,3.4414,3.4414,3.4414,3.453,3.4777,3.5203,3.5639,3.6148,3.7157,3.7651,3.7651,3.8028,3.8202,3.8202,3.8202,3.8202,3.8202,3.8202,3.8202,3.8202,3.8202,3.8202,3.8202,3.8202,3.8202,3.8202,3.8202,3.8202,3.8202,3.8202,3.8202,3.8202,3.8202,3.8202,3.8202,3.8202,3.824,3.8352,3.8538,3.876,3.8907,3.8907,3.9068,3.9228,3.9228,3.9301,3.9388,3.9388,3.9388,3.9388,3.9388,3.9388,3.9388,3.9388,3.9388,3.9388,3.9388,3.9388,3.9388,3.9388,3.9388,3.9388,3.9388,3.9388,3.9388,3.9388,3.9388,3.9388,3.9388,3.9388,3.946,3.9517,3.9517,3.9753,4.0181,4.0181,4.0424,4.0888,4.1294,4.1509,2.6806,2.6806,2.6806,2.6806,2.6806,2.6806,2.6806,2.7794,2.8709,2.8709,2.9726,3.0598,3.0598,0.0,0.0,0.0,3.1671,3.2481,3.2481,3.3616,3.4414,3.4414,3.4414,3.4414,3.4414,3.4414,3.4414,3.4414,3.4414,3.4414,3.4414,3.4414,3.4414,3.4414,3.4414,3.4414,3.4414,3.4849,3.5101,3.5116,3.617,3.691,3.7317,3.7738,3.8028,3.8202,3.8202,3.8202,3.8202,3.8202,3.8202,3.8202,3.8202,3.8202,3.8202,3.8202,3.8202,3.8202,3.8202,3.8202,3.8202,3.8202,3.8202,3.8202,3.8202,3.8202,3.8202,3.8202,3.8202,3.824,3.8366,3.8538,3.8723,3.8723,3.887,3.9017,3.9017,3.9141,3.9301,3.9301,3.9337,3.9388,3.9388,3.9388,3.9388,3.9388,3.9388,3.9388,3.9388,3.9388,3.9388,3.9388,3.9388,3.9388,3.9388,3.9388,3.9388,3.9388,3.9388,3.9388,3.9388,3.9388,3.9388,3.9388,3.9388,3.9445,3.9625,3.9625,3.9696,3.9925,4.0389,4.0615,2.6779,2.6779,2.6806,2.6806,2.6806,2.6806,2.6806,2.7794,2.8709,2.8723,2.9726,3.0598,3.0598,3.0598,0.0,3.0598,3.1671,3.2481,3.2481,3.3616,3.4414,3.4414,3.4414,3.4414,3.4414,3.4414,3.4414,3.4414,3.4414,3.4414,3.4414,3.4414,3.4414,3.4414,3.4414,3.4414,3.4414,3.4414,3.4414,3.4428,3.5087,3.606,3.7288,3.7302,3.7622,3.8188,3.8188,3.8202,3.8202,3.8202,3.8202,3.8202,3.8202,3.8202,3.8202,3.8202,3.8202,3.8202,3.8202,3.8202,3.8202,3.8202,3.8202,3.8202,3.8202,3.8202,3.8202,3.8202,3.8202,3.8202,3.8202,3.8366,3.8478,3.8478,3.8649,3.8782,3.8782,3.8943,3.9104,3.9104,3.9265,3.9388,3.9388,3.9388,3.9388,3.9388,3.9388,3.9388,3.9388,3.9388,3.9388,3.9388,3.9388,3.9388,3.9388,3.9388,3.9388,3.9388,3.9388,3.9388,3.9388,3.9388,3.9388,3.9388,3.9388,3.9388,3.9388,3.9388,3.9517,3.9681,3.9681,3.9803,2.6179,2.6285,2.6498,2.6753,2.6806,2.6806,2.6806,2.7794,2.8956,2.9857,3.0336,3.0598,3.0598,3.0598,0.0,3.0598,3.1671,3.2481,3.2481,3.3616,3.4414,3.4414,3.4414,3.4414,3.4414,3.4414,3.4414,3.4414,3.4414,3.4414,3.4414,3.4414,3.4414,3.4414,3.4414,3.4414,3.4414,3.4414,3.4414,3.4414,3.4603,3.5125,3.5988,3.6402,3.6954,3.7578,3.7578,3.781,3.8202,3.8202,3.8202,3.8202,3.8202,3.8202,3.8202,3.8202,3.8202,3.8202,3.8202,3.8202,3.8202,3.8202,3.8202,3.8202,3.8202,3.8202,3.8202,3.8202,3.8202,3.8202,3.8202,3.824,3.8277,3.8277,3.8427,3.859,3.859,3.876,3.8907,3.8907,3.8943,3.898,3.898,3.9104,3.9177,3.9177,3.9301,3.9388,3.9388,3.9388,3.9388,3.9388,3.9388,3.9388,3.9388,3.9388,3.9388,3.9388,3.9388,3.9388,3.9388,3.9388,3.9388,3.9388,3.9388,3.9388,3.9388,3.9388,3.9424,3.9481,3.9481,3.9517,2.6218,2.6379,2.6566,2.6753,2.6806,2.6852,2.7099,2.794,0.0,0.0,3.0598,3.0598,3.0598,3.0598,0.0,3.0598,3.1671,3.2481,3.2481,3.3616,3.4414,3.4414,3.4414,3.4414,3.4414,3.4414,3.4414,3.4414,3.4414,3.4414,3.4414,3.4414,3.4414,3.4414,3.4414,3.4414,3.4414,3.4414,3.4414,3.4414,3.4414,3.4617,3.5009,3.5648,3.6286,3.691,3.691,3.7259,3.7839,3.7839,3.7984,3.8202,3.8202,3.8202,3.8202,3.8202,3.8202,3.8202,3.8202,3.8202,3.8202,3.8202,3.8202,3.8202,3.8202,3.8202,3.8202,3.8202,3.8202,3.8202,3.8202,3.8202,3.8202,3.8202,3.8277,3.8366,3.8366,3.8538,3.8686,3.8686,3.876,3.8782,3.8782,3.8907,3.898,3.898,3.9141,3.9265,3.9265,3.9337,3.9388,3.9388,3.9388,3.9388,3.9388,3.9388,3.9388,3.9388,3.9388,3.9388,3.9388,3.9388,3.9388,3.9388,3.9388,3.9388,3.9388,3.9388,3.9388,3.9388,3.9388,3.9388,2.6459,2.658,2.6647,2.67,2.6753,2.6953,2.7496,2.8188,2.9043,3.0263,0.0,3.0598,3.0598,3.0598,3.0598,3.0598,3.1613,3.2423,3.2481,3.3558,3.4356,3.4399,3.4414,3.4414,3.4414,3.4414,3.4414,3.4414,3.4414,3.4414,3.4414,3.4414,3.4414,3.4414,3.4414,3.4414,3.4414,3.4414,3.4414,3.4414,3.4414,3.4414,3.4428,3.5043,3.5654,3.6228,3.6286,3.6649,3.7215,3.7215,3.7578,3.813,3.813,3.8159,3.8202,3.8202,3.8202,3.8202,3.8202,3.8202,3.8202,3.8202,3.8202,3.8202,3.8202,3.8202,3.8202,3.8202,3.8202,3.8202,3.8202,3.8202,3.8202,3.8202,3.8202,3.8202,3.8202,3.8329,3.8478,3.8478,3.8612,3.8745,3.8745,3.8745,3.8797,3.8782,3.8943,3.9068,3.9104,3.9265,3.9388,3.9388,3.9388,3.9388,3.9388,3.9388,3.9388,3.9388,3.9388,3.9388,3.9388,3.9388,3.9388,3.9388,3.9388,3.9388,3.9388,3.9388,3.9388,3.9388,3.9388,3.9388,2.4496,2.4908,2.5508,2.5975,2.6447,2.6833,2.6945,2.7881,2.8927,2.9668,3.0219,3.0598,3.0598,3.0598,3.0598,3.0598,3.1235,3.1886,3.244,3.318,3.3862,3.4356,3.4414,3.4414,3.4414,3.4414,3.4414,3.4414,3.4414,3.4414,3.4414,3.4414,3.4414,3.4414,3.4414,3.4414,3.4414,3.4414,3.4414,3.4414,3.4414,3.4414,3.4414,3.4559,3.4965,3.5625,3.6083,3.6388,3.6519,3.6519,3.691,3.7491,3.7491,3.7781,3.8202,3.8202,3.8202,3.8202,3.8202,3.8202,3.8202,3.8202,3.8202,3.8202,3.8202,3.8202,3.8202,3.8202,3.8202,3.8202,3.8202,3.8202,3.8202,3.8202,3.8202,3.8202,3.8202,3.824,3.824,3.824,3.8315,3.8315,3.8315,3.8464,3.8612,3.8797,3.8819,3.8907,3.9068,3.9141,3.9213,3.9388,3.9388,3.9388,3.9388,3.9388,3.9388,3.9388,3.9388,3.9388,3.9388,3.9388,3.9388,3.9388,3.9388,3.9388,3.9388,3.9388,3.9388,3.9388,3.9388,3.9388,2.4224,2.4753,2.5398,2.5811,0.0,2.595,2.5939,2.7131,2.8355,2.8684,2.9737,3.0598,3.0598,3.0598,3.0598,3.0598,3.1105,3.1611,3.1959,3.2861,3.3634,3.392,3.4225,3.4414,3.4414,3.4414,3.4414,3.4414,3.4414,3.4414,3.4414,3.4414,3.4414,3.4414,3.4414,3.4414,3.4414,3.4414,3.4414,3.4414,3.4414,3.4414,3.4414,3.4414,3.4588,3.4922,3.5256,3.5575,3.5851,3.5851,3.6243,3.6823,3.6823,3.7215,3.7781,3.7781,3.7955,3.8202,3.8202,3.8202,3.8202,3.8202,3.8202,3.8202,3.8202,3.8202,3.8202,3.8202,3.8202,3.8202,3.8202,3.8202,3.8202,3.8202,3.8202,3.8202,3.8202,3.8202,3.8202,3.8202,3.8202,3.8202,3.8202,3.8277,3.8389,3.8501,3.8612,3.8686,3.8811,3.8907,3.9017,3.9228,3.9265,3.9301,3.9388,3.9388,3.9388,3.9388,3.9388,3.9388,3.9388,3.9388,3.9388,3.9388,3.9388,3.9388,3.9388,3.9388,3.9388,3.9388,3.9388,3.9388,2.4211,2.4782,2.5315,2.5398,2.5203,0.0,2.4879,2.6264,2.7603,2.7603,2.9197,3.0598,3.0598,3.0598,3.0598,3.0598,3.1018,3.1395,3.148,3.2454,3.3242,3.3474,3.3935,3.4298,3.4399,3.4414,3.4414,3.4414,3.4414,3.4414,3.4414,3.4414,3.4414,3.4414,3.4414,3.4414,3.4414,3.4414,3.4414,3.4414,3.4414,3.4414,3.4414,3.4414,3.4414,3.4414,3.4414,3.4704,3.5232,3.5232,3.561,3.6141,3.6141,3.6548,3.7128,3.7128,3.7447,3.7897,3.8014,3.8043,3.8072,3.8173,3.8202,3.8202,3.8202,3.8202,3.8202,3.8202,3.8202,3.8202,3.8202,3.8202,3.8202,3.8202,3.8202,3.8202,3.8202,3.8202,3.8202,3.8202,3.8202,3.8202,3.8202,3.8202,3.8202,3.8202,3.8329,3.8441,3.8478,3.8664,3.8833,3.9017,3.9068,3.9141,3.9337,3.9337,3.9337,3.9388,3.9388,3.9388,3.9388,3.9388,3.9388,3.9388,3.9388,3.9388,3.9388,3.9388,3.9388,3.9388,3.9388,3.9388,2.2763,2.3369,2.3946,0.0,2.425,2.4879,0.0,0.0,2.6849,0.0,2.884,3.0598,3.0598,3.0598,3.0598,3.0598,3.067,3.0887,3.1438,3.164,3.2193,3.3358,3.3576,3.3819,3.4356,3.4414,3.4414,3.4414,3.4414,3.4414,3.4414,3.4414,3.4414,3.4414,3.4414,3.4414,3.4414,3.4414,3.4414,3.4414,3.4414,3.4414,3.4414,3.4414,3.4414,3.4414,3.4414,3.4457,3.4545,3.4545,3.4907,3.5523,3.5523,3.588,3.6446,3.6446,3.6489,3.6649,3.723,3.7433,3.752,3.8028,3.8202,3.8202,3.8202,3.8202,3.8202,3.8202,3.8202,3.8202,3.8202,3.8202,3.8202,3.8202,3.8202,3.8202,3.8202,3.8202,3.8202,3.8202,3.8202,3.8202,3.8202,3.8202,3.8202,3.8202,3.8202,3.8277,3.8478,3.8516,3.8627,3.8833,3.8819,3.8907,3.9104,3.9141,3.9228,3.9388,3.9388,3.9388,3.9388,3.9388,3.9388,3.9388,3.9388,3.9388,3.9388,3.9388,3.9388,3.9388,3.9388,3.9388,2.2841,2.3113,2.3322,0.0,2.3725,2.3884,2.359,2.4687,2.5824,2.6126,2.7697,2.9063,2.9369,2.9763,3.0038,3.0038,3.0357,3.0699,3.0945,3.1293,3.1729,3.2309,3.2716,3.318,3.3819,3.3891,3.4037,3.4385,3.4414,3.4414,3.4414,3.4414,3.4414,3.4414,3.4414,3.4414,3.4414,3.4414,3.4414,3.4414,3.4414,3.4414,3.4414,3.4414,3.4414,3.4414,3.4414,3.4414,3.4414,3.4414,3.4574,3.4835,3.4835,3.5212,3.5778,3.5778,3.5996,3.6344,3.6649,3.6751,3.6852,3.7491,3.7709,3.7767,3.8101,3.8202,3.8202,3.8202,3.8202,3.8202,3.8202,3.8202,3.8202,3.8202,3.8202,3.8202,3.8202,3.8202,3.8202,3.8202,3.8202,3.8202,3.8202,3.8202,3.8202,3.8202,3.8202,3.824,3.8315,3.8329,3.8389,3.8612,3.8612,3.8723,3.8907,3.9031,3.9141,3.9228,3.9337,3.9388,3.9388,3.9388,3.9388,3.9388,3.9388,3.9388,3.9388,3.9388,3.9388,3.9388,3.9388,3.9388,2.2919,0.0,2.2896,2.3442,2.3275,2.3017,0.0,0.0,2.4848,0.0,2.6406,2.7344,2.7879,2.873,2.9314,2.9314,2.9901,3.0282,3.0085,3.0623,3.1013,3.0982,3.1599,3.2256,3.2922,3.3158,3.3427,3.3891,3.408,3.4167,3.4167,3.4327,3.4414,3.4414,3.4414,3.4414,3.4414,3.4414,3.4414,3.4414,3.4414,3.4414,3.4414,3.4414,3.4298,3.4113,3.4113,3.3977,3.3825,3.3825,3.3942,3.4113,3.4113,3.4519,3.516,3.516,3.5415,3.5851,3.6011,3.6069,3.617,3.6838,3.7056,3.7172,3.7781,3.797,3.8014,3.8159,3.8202,3.8202,3.8202,3.8202,3.8202,3.8202,3.8202,3.8202,3.8202,3.8202,3.8202,3.8202,3.8202,3.8202,3.8202,3.8202,3.8202,3.8202,3.8202,3.8202,3.8202,3.8202,3.824,3.8404,3.8404,3.8516,3.8723,3.887,3.8958,3.9017,3.9228,3.9301,3.9301,3.9373,3.9388,3.9388,3.9388,3.9388,3.9388,3.9388,3.9388,3.9388,3.9388,3.9388,2.2389,2.2451,0.0,2.2878,2.283,2.28,0.0,0.0,2.3972,2.4707,2.53,2.5895,2.6476,2.767,2.8556,2.8556,2.9156,2.9421,2.873,2.9247,2.9687,2.9624,3.0211,3.088,3.1528,3.2188,3.2585,3.2582,3.318,3.3547,3.3547,3.4095,3.4414,3.4414,3.4414,3.4414,3.4414,3.4414,3.4414,3.4414,3.4414,3.4414,3.4414,3.4414,3.3962,3.3262,3.3262,3.2875,3.2232,3.2232,3.2613,3.3262,3.3262,3.3756,3.4457,3.4457,3.4486,3.4603,3.5232,3.545,3.5552,3.6156,3.6359,3.6489,3.7143,3.736,3.7476,3.8043,3.8202,3.8202,3.8202,3.8202,3.8202,3.8202,3.8202,3.8202,3.8202,3.8202,3.8202,3.8202,3.8202,3.8202,3.8202,3.8202,3.8202,3.8202,3.8202,3.8202,3.8202,3.8202,3.8202,3.8202,3.8202,3.8277,3.8478,3.8516,3.8627,3.8782,3.898,3.9104,3.9104,3.9301,3.9388,3.9388,3.9388,3.9388,3.9388,3.9388,3.9388,3.9388,3.9388,3.9388,0.0,0.0,0.0,2.2543,2.2647,2.2739,2.283,2.3027,2.3325,2.3864,2.4559,2.5206,2.5521,2.6837,2.7855,2.7855,2.8441,2.8794,2.8524,2.873,2.8876,2.8869,2.909,2.9499,3.0165,3.0419,3.0928,3.1777,3.2084,3.2409,3.2829,3.3456,3.3804,3.3804,3.4196,3.4414,3.4414,3.4414,3.4414,3.4414,3.4414,3.4414,3.4414,3.4414,3.3707,3.2506,3.2506,3.2326,3.211,3.211,3.2254,3.2506,3.2506,3.2946,3.3638,3.3638,3.3962,3.4443,3.4675,3.4762,3.4781,3.4896,3.4953,3.4959,3.5125,3.518,3.5433,3.6557,3.6855,3.7068,3.7974,3.8202,3.8202,3.8202,3.8202,3.8202,3.8202,3.8202,3.8202,3.8202,3.8202,3.8202,3.8202,3.8202,3.8202,3.8202,3.8202,3.8202,3.8202,3.8202,3.8202,3.8202,3.8202,3.824,3.8277,3.8441,3.8516,3.8612,3.8797,3.8907,3.8907,3.898,3.9068,3.9177,3.9228,3.9265,3.9388,3.9388,3.9388,3.9388,3.9388,3.9388,2.2197,0.0,0.0,0.0,2.2463,2.2555,2.2678,2.2708,2.2887,2.341,2.4112,2.4723,2.5034,2.6118,2.6994,2.7061,2.767,2.8084,2.7855,2.8019,2.8084,2.7855,2.8019,2.8343,2.8778,2.9017,2.9542,3.0429,3.0698,0.0,3.1782,3.245,3.3042,3.3489,3.3877,3.4196,3.4414,3.4414,3.4414,3.4414,3.4113,3.4011,3.4011,3.3756,3.2911,3.1709,3.1709,3.1576,3.1331,3.1331,3.1466,3.1709,3.1709,3.2182,3.2826,3.2826,3.3157,3.3618,3.3618,3.3618,3.3605,3.3505,3.3501,3.354,3.3639,3.3666,3.3902,3.5051,3.5398,3.5637,3.6764,3.7396,3.7772,3.7772,3.8,3.8202,3.8202,3.8202,3.8202,3.8202,3.8202,3.8202,3.8202,3.8202,3.8202,3.8202,3.8202,3.8202,3.8202,3.8202,3.8202,3.8202,3.8202,3.8202,3.8202,3.8315,3.8404,3.8404,3.8575,3.8686,3.8686,3.8745,3.887,3.898,3.9068,3.9177,3.9301,3.9373,3.9388,3.9388,3.9388,3.9388,0.0,0.0,0.0,0.0,0.0,0.0,2.2616,0.0,2.2597,2.3322,2.3894,2.4435,2.4942,2.5517,2.5933,2.6131,2.6905,2.7229,2.6589,2.704,2.7229,2.6555,2.7061,2.7484,2.7451,2.8051,2.8427,2.846,2.9048,2.9717,3.0413,3.1096,3.2028,3.338,3.3423,3.3728,3.4303,3.4332,3.4332,3.4332,3.3555,3.3178,3.3143,3.2434,3.1673,3.0895,3.0895,3.0482,2.9792,2.9792,3.0203,3.0857,3.0857,3.1378,3.2074,3.2074,3.2074,3.211,3.2074,3.211,3.211,3.2074,3.2037,3.2146,3.2729,3.2905,3.3064,3.3723,3.3938,3.4074,3.4634,3.5797,3.683,3.683,3.7515,3.8113,3.8113,3.8113,3.8127,3.8202,3.8202,3.8202,3.8202,3.8202,3.8202,3.8202,3.8202,3.8202,3.8202,3.8202,3.8202,3.8202,3.8202,3.8202,3.8202,3.8202,3.8202,3.8202,3.8366,3.8478,3.8478,3.8686,3.8797,3.8782,3.898,3.9104,3.9104,3.9301,3.9388,3.9388,3.9388,3.9388,2.2197,0.0,0.0,0.0,0.0,0.0,0.0,0.0,2.2438,2.2534,2.3172,2.3818,2.4126,2.4795,2.5421,2.5732,2.6094,2.6267,2.6084,2.6349,2.6499,2.6305,2.6589,2.6714,2.6555,2.6714,2.704,0.0,2.7615,2.8027,2.9008,2.9695,3.0427,3.1237,3.1667,3.1986,3.2152,3.2547,3.2733,3.2733,3.2506,3.2398,3.2398,3.2182,3.1673,3.0895,3.0895,3.0482,2.9792,2.9792,2.9934,3.0101,3.0101,3.0558,3.123,3.123,3.1599,3.2074,3.1942,3.1978,3.1965,3.1267,3.1119,3.1158,3.0802,3.0714,3.0932,3.2118,3.2468,3.2754,3.3908,3.4815,3.537,3.537,3.5871,3.6306,3.6306,3.6306,3.6699,3.7962,3.8202,3.8202,3.8202,3.8202,3.8202,3.8202,3.8202,3.8202,3.8202,3.8202,3.8202,3.8202,3.8202,3.8202,3.8202,3.8202,3.8202,3.8202,3.824,3.8277,3.8277,3.8352,3.8427,3.859,3.8797,3.8943,3.9104,3.9301,3.9388,3.9388,3.9388,3.9388,0.0,0.0,0.0,0.0,0.0,0.0,2.1956,2.2037,2.2142,0.0,2.2764,2.3405,2.3743,2.4396,2.4986,2.5415,2.5571,2.5723,2.5875,2.598,2.6062,2.6062,2.6188,2.6188,2.6097,2.6062,2.6258,2.6633,2.6552,2.6867,2.7776,2.855,2.924,2.9869,3.0337,3.0685,3.093,3.148,3.1779,3.1743,3.1662,3.1599,3.1599,3.1156,3.0707,3.0266,3.019,2.9947,2.965,2.965,2.9702,2.9792,2.9792,3.0062,3.0444,3.0444,3.0746,3.1121,3.1009,3.1046,3.1046,3.0457,3.0343,3.0343,2.9934,2.9792,2.9971,3.0804,3.1177,3.1539,3.2358,3.3249,3.3965,3.4206,3.4766,3.5316,3.556,3.5615,3.6029,3.74,3.7644,3.7772,3.8127,3.8202,3.8202,3.8202,3.8202,3.8202,3.8202,3.8202,3.8202,3.8202,3.8202,3.8202,3.8202,3.8202,3.8202,3.8202,3.8202,3.8202,3.8202,3.8202,3.824,3.8366,3.8649,3.8943,3.9228,3.9337,3.9388,3.9388,3.9388,3.9388,0.0,0.0,0.0,0.0,0.0,0.0,2.16,2.1651,2.1726,0.0,2.2464,2.2955,2.3481,2.3984,2.4511,2.5061,2.5205,2.5394,2.5793,2.5828,2.5875,2.5875,2.5875,2.5875,2.5875,2.5875,2.5875,2.5875,2.5875,2.6164,2.6731,2.7524,2.8212,2.8799,2.9074,2.947,2.9996,3.0624,3.0912,3.0944,3.074,3.0693,3.067,2.9781,2.938,2.9341,2.9157,2.9197,2.938,2.938,2.9521,2.9792,2.9792,2.9792,2.9792,2.9792,2.9792,2.9792,2.9753,2.9792,2.9792,2.9753,2.9792,2.9792,2.9792,2.9792,2.9792,2.9792,3.0143,3.052,3.052,3.1482,3.2606,3.3074,3.3821,3.4564,3.5117,3.5238,3.5507,3.6439,3.6688,3.7014,3.7758,3.7924,3.7924,3.7924,3.7924,3.7924,3.7924,3.8,3.8037,3.8037,3.8127,3.8202,3.8202,3.8202,3.8202,3.8202,3.8202,3.8202,3.8202,3.8202,3.8202,3.8202,3.8612,3.898,3.9373,3.9388,3.9388,3.9388,3.9388,3.9388,0.0,0.0,0.0,0.0,0.0,0.0,2.1285,2.1285,2.1316,0.0,2.1472,2.1681,2.2169,2.2702,2.3327,2.4107,2.4602,2.5028,2.5359,2.5571,2.5641,2.5641,2.5793,2.5828,2.5676,2.5641,2.5641,2.5641,2.5793,2.5898,2.5873,2.6186,2.6408,2.6556,2.7157,2.747,2.7419,2.8127,2.8633,2.89,2.9064,2.9238,2.9457,2.9419,2.9314,2.917,2.9131,2.9131,2.917,2.917,2.9417,2.9792,2.9792,2.9792,2.9792,2.9792,2.9792,2.9753,2.956,2.9611,2.9753,2.956,2.9611,2.9792,2.9792,2.9792,2.9792,2.9792,2.9867,2.9955,2.9955,3.0475,3.1023,3.1137,3.164,3.2207,3.2769,3.2842,3.3273,3.4611,3.5413,3.5909,3.6068,3.6108,3.6108,3.6108,3.6108,3.6108,3.6108,3.6727,3.713,3.713,3.7772,3.8202,3.8202,3.8202,3.8202,3.8202,3.8202,3.8202,3.8202,3.8202,3.8202,3.8202,3.8612,3.8907,3.9141,3.9301,3.9388,3.9388,3.9388,3.9388,0.0,0.0,0.0,2.0871,0.0,0.0,0.0,2.0903,2.0967,2.1158,2.119,2.1339,2.1822,2.2132,2.2637,2.3572,2.4108,2.4472,2.4719,2.5135,2.5453,2.5453,2.5535,2.5571,2.5453,2.5453,2.5453,2.5453,2.5535,2.5571,2.5465,2.5641,2.5758,2.5758,2.6191,2.641,2.6316,2.6953,2.736,2.7496,2.8187,2.8582,2.8699,2.8995,2.9028,2.8922,2.8855,2.8855,2.8961,2.8961,2.9131,2.9456,2.9456,2.9585,2.9792,2.965,2.9702,2.9792,2.965,2.9702,2.9753,2.947,2.956,2.9792,2.965,2.9689,2.9792,2.9792,2.9792,2.9792,2.9792,2.9993,3.0281,3.0557,3.0821,3.1148,3.1687,3.2014,3.2416,3.3155,3.3884,3.4622,3.5453,3.5615,3.5615,3.5615,3.5615,3.5615,3.5615,3.5989,3.6439,3.6844,3.7285,3.772,3.8165,3.8202,3.8202,3.8202,3.8202,3.8202,3.8202,3.8202,3.824,3.8366,3.8538,3.876,3.8943,3.9068,3.9177,3.9388,3.9388,3.9388,0.0,0.0,0.0,0.0,0.0,2.0172,0.0,0.0,0.0,2.0903,2.0999,0.0,0.0,0.0,0.0,0.0,0.0,0.0,0.0,2.4495,0.0,2.5087,2.5206,2.5276,2.5218,2.5218,2.5241,2.5312,2.5241,2.5241,2.5312,2.5453,2.5535,2.5535,2.5723,2.5828,2.5793,2.6269,2.6527,2.6613,2.7483,2.8009,2.8191,2.849,2.8667,2.8724,2.8578,2.8578,2.8724,2.8724,2.8843,2.9052,2.9091,2.9378,2.9702,2.947,2.956,2.9792,2.9792,2.9792,2.9753,2.956,2.9611,2.9753,2.947,2.9611,2.9792,2.974,2.9753,2.9792,2.9792,2.9792,2.9905,3.0357,3.0457,3.0608,3.1122,3.1587,3.1964,3.2177,3.2591,3.3386,3.4884,3.5102,3.5102,3.5102,3.5102,3.5183,3.5346,3.5494,3.5949,3.6819,3.7053,3.7453,3.8127,3.8202,3.8202,3.8202,3.8202,3.8202,3.8202,3.8202,3.8277,3.8441,3.8478,3.859,3.876,3.8797,3.898,3.9337,3.9337,3.9337,0.0,0.0,0.0,0.0,2.0118,0.0,2.014,0.0,2.0183,2.0216,0.0,0.0,0.0,0.0,0.0,0.0,0.0,0.0,2.2845,2.3352,2.3861,2.4288,2.4897,2.5182,2.4897,2.4861,2.4992,2.5276,2.5016,2.4992,2.5276,2.5312,2.5347,2.5347,2.5535,2.5535,2.5382,2.5596,2.5863,2.6166,2.6457,2.7015,2.7767,2.7997,2.8249,2.855,2.851,2.851,2.855,2.855,2.8657,2.8843,2.9013,2.9236,2.9419,2.9419,2.956,2.9792,2.9792,2.9792,2.9792,2.9753,2.9792,2.9753,2.947,2.9611,2.974,2.9509,2.9611,2.9792,2.9792,2.9792,2.9817,2.988,2.988,3.0043,3.0583,3.0758,3.1072,3.2026,3.2265,3.2508,3.3267,3.3398,3.3398,3.3398,3.3398,3.3641,3.4426,3.5156,3.5949,3.6819,3.7606,3.8089,3.8202,3.8202,3.8202,3.8202,3.8202,3.8202,3.8202,3.8202,3.8202,3.824,3.8404,3.8516,3.8553,3.8723,3.8907,3.9141,3.9141,3.9228,0.0,0.0,0.0,0.0,0.0,0.0,2.0118,0.0,2.0118,0.0,0.0,0.0,0.0,0.0,0.0,0.0,2.1464,0.0,0.0,0.0,2.3236,0.0,0.0,0.0,2.479,2.479,2.4957,2.5276,2.4992,2.4957,2.5276,2.5312,2.5312,2.5312,2.5382,2.5382,2.5312,2.5382,2.5503,2.5636,2.6034,2.6419,2.6803,2.7505,2.7915,2.8065,2.8378,2.851,2.851,2.851,2.855,2.8618,2.8697,2.8934,2.9236,2.9236,2.9353,2.956,2.956,2.956,2.956,2.956,2.9495,2.9378,2.9392,2.9611,2.9702,2.9326,2.9495,2.9753,2.9611,2.9702,2.9792,2.9792,2.9792,2.9854,3.0093,3.0394,3.0746,3.1198,3.1524,3.1913,3.2478,3.2855,3.3124,3.3124,3.3124,3.3411,3.4272,3.4703,3.5413,3.678,3.7208,3.7644,3.8165,3.8202,3.8202,3.8202,3.8202,3.8202,3.8202,3.8202,3.8202,3.8202,3.8277,3.8329,3.8329,3.8076,3.8069,3.8345,3.8854,3.9005,2.0118,0.0,0.0,0.0,0.0,0.0,0.0,0.0,0.0,0.0,0.0,0.0,0.0,0.0,2.0227,2.0609,0.0,2.1074,0.0,2.18,0.0,0.0,0.0,0.0,0.0,2.4538,2.467,2.5111,2.4849,2.4849,2.5276,2.5312,2.5312,2.5312,2.5312,2.5312,2.5312,2.5312,2.5312,2.5312,2.5697,2.5961,2.6129,2.7079,2.7546,2.7714,2.8282,2.851,2.851,2.851,2.851,2.851,2.851,2.8669,2.8934,2.9013,2.9157,2.9302,2.9302,2.9341,2.9419,2.9419,2.9314,2.9197,2.9223,2.9404,2.9546,2.9131,2.93,2.9585,2.9431,2.956,2.9702,2.9792,2.9792,2.9792,2.9792,3.0105,3.0432,3.0583,3.0922,3.1348,3.1888,3.2466,3.2893,3.3099,3.3124,3.3411,3.4272,3.4397,3.495,3.6399,3.6517,3.6883,3.7772,3.7848,3.7962,3.8165,3.8202,3.8202,3.8202,3.8202,3.8202,3.8202,3.8043,3.7955,3.7955,3.7331,3.7208,3.7588,3.8204,3.8338,0.0,0.0,0.0,2.0118,0.0,0.0,0.0,0.0,2.0118,0.0,0.0,0.0,0.0,2.0118,2.0118,2.0129,2.0129,0.0,0.0,0.0,0.0,0.0,0.0,0.0,0.0,2.3861,2.397,2.4754,2.4454,2.455,2.5276,2.5312,2.5312,2.5312,2.5312,2.5312,2.5312,2.5312,2.5312,2.5312,2.5324,2.56,2.6117,2.6657,2.7198,2.7714,2.8282,2.851,2.851,2.851,2.851,2.851,2.851,2.851,2.855,2.8724,2.8922,2.9091,2.9091,2.9236,2.9419,2.9419,2.9419,2.9302,2.8961,2.8961,2.9091,2.8882,2.8961,2.917,2.9341,2.9419,2.947,2.974,2.9792,2.9792,2.9792,2.9804,2.998,3.0507,3.0633,3.0809,3.1323,3.1876,3.2428,3.2993,3.3124,3.3411,3.4272,3.4397,3.4703,3.5548,3.5655,3.5989,3.6858,3.6936,3.7285,3.8165,3.8202,3.8202,3.8202,3.8202,3.8202,3.8202,3.7636,3.7346,3.7331,3.6664,3.6522,3.6939,3.6969,3.7149,0.0,0.0,2.0118,2.0118,0.0,0.0,0.0,0.0,0.0,0.0,0.0,0.0,0.0,2.0118,2.0118,2.0118,2.0118,2.0118,0.0,0.0,0.0,0.0,0.0,0.0,0.0,0.0,2.3824,2.4345,2.4273,2.4418,2.4957,2.5182,2.5312,2.5312,2.5312,2.5312,2.5312,2.5312,2.5312,2.5312,2.5312,2.5408,2.5588,2.6142,2.6683,2.7198,2.7726,2.8186,2.851,2.851,2.851,2.851,2.851,2.851,2.851,2.8724,2.8843,2.8882,2.8882,2.8843,2.8816,2.8949,2.8988,2.8988,2.8843,2.8922,2.9013,2.8697,2.8855,2.9091,2.904,2.9184,2.9419,2.9509,2.965,2.9792,2.9792,2.9792,2.9842,3.003,3.0068,3.0244,3.0783,3.1035,3.1461,3.2365,3.283,3.3411,3.4272,3.4397,3.4703,3.5494,3.5615,3.5695,3.6029,3.657,3.7014,3.7323,3.7886,3.8202,3.8202,3.7825,3.7607,3.7607,3.6983,3.6649,3.6649,3.5996,3.5816,3.6045,3.5649,3.595,2.0118,2.0118,0.0,2.0118,2.0118,0.0,2.0118,0.0,2.0118,0.0,0.0,0.0,0.0,0.0,2.0118,2.0118,2.0118,2.0074,0.0,1.9933,0.0,0.0,0.0,0.0,0.0,0.0,2.3377,2.3959,2.397,2.4225,0.0,2.4873,2.5028,2.5276,2.5182,2.5182,2.5312,2.5312,2.5312,2.5312,2.5312,2.5312,2.5324,2.5853,2.6406,2.6922,2.745,2.7978,2.851,2.851,2.851,2.851,2.851,2.851,2.851,2.8657,2.8685,2.8685,2.8803,2.8724,2.8618,2.8764,2.8791,2.8803,2.8724,2.8776,2.8816,2.859,2.8709,2.8855,2.8803,2.8988,2.9223,2.938,2.9509,2.9702,2.9792,2.9792,2.9792,2.9792,2.9792,2.9905,3.0269,3.0482,3.0909,3.1788,3.2403,3.298,3.3544,3.3808,3.4134,3.4677,3.4705,3.4828,3.5156,3.6241,3.6897,3.6897,3.772,3.8101,3.7897,3.752,3.7302,3.7302,3.6431,3.6083,3.6301,3.5444,3.5127,3.5268,3.4873,3.5152]}]]